<?xml version="1.0" encoding="UTF-8" standalone="no" ?>
<gpx xmlns="http://www.topografix.com/GPX/1/1" xmlns:xsi="http://www.w3.org/2001/XMLSchema-instance" xsi:schemaLocation="http://www.topografix.com/GPX/1/1 http://www.topografix.com/GPX/1/1/gpx.xsd" version="1.1" creator="VisuGPX - https://www.visugpx.com">
  <metadata>
    <name>Le chemin Urbain V</name>
    <desc><![CDATA[Quatrième étape du "Chemin Urbain V" de Mende à La Fage
Relevé "terrain" avec le logiciel "IphiGeNie" sur un iPad mini.
Pour en savoir plus (photos, commentaires, liens divers) voir notre site :
http://www.la-marche-au-long-cours.fr/crbst_120.html]]></desc>
  </metadata>
  <trk>
    <name><![CDATA[Mende - La Fage]]></name>
    <cmt><![CDATA[27 avr. 2016 07:24:39]]></cmt>
    <trkseg>
      <trkpt lat="44.5173" lon="3.4975">
        <ele>738</ele>
        <time>2016-04-27T05:24:52Z</time>
      </trkpt>
      <trkpt lat="44.51725" lon="3.49814">
        <ele>734</ele>
        <time>2016-04-27T05:24:57Z</time>
      </trkpt>
      <trkpt lat="44.51732" lon="3.49803">
        <ele>734</ele>
        <time>2016-04-27T05:25:00Z</time>
      </trkpt>
      <trkpt lat="44.51735" lon="3.49796">
        <ele>734</ele>
        <time>2016-04-27T05:25:14Z</time>
      </trkpt>
      <trkpt lat="44.51737" lon="3.49784">
        <ele>734</ele>
        <time>2016-04-27T05:26:42Z</time>
      </trkpt>
      <trkpt lat="44.51743" lon="3.49784">
        <ele>735</ele>
        <time>2016-04-27T05:30:10Z</time>
      </trkpt>
      <trkpt lat="44.51748" lon="3.4977">
        <ele>735</ele>
        <time>2016-04-27T05:30:31Z</time>
      </trkpt>
      <trkpt lat="44.51751" lon="3.49758">
        <ele>732</ele>
        <time>2016-04-27T05:30:43Z</time>
      </trkpt>
      <trkpt lat="44.5173" lon="3.49767">
        <ele>732</ele>
        <time>2016-04-27T05:31:47Z</time>
      </trkpt>
      <trkpt lat="44.51731" lon="3.49763">
        <ele>733</ele>
        <time>2016-04-27T05:31:57Z</time>
      </trkpt>
      <trkpt lat="44.51732" lon="3.49756">
        <ele>733</ele>
        <time>2016-04-27T05:32:00Z</time>
      </trkpt>
      <trkpt lat="44.51732" lon="3.49749">
        <ele>734</ele>
        <time>2016-04-27T05:32:04Z</time>
      </trkpt>
      <trkpt lat="44.51732" lon="3.49742">
        <ele>734</ele>
        <time>2016-04-27T05:32:08Z</time>
      </trkpt>
      <trkpt lat="44.51728" lon="3.49729">
        <ele>734</ele>
        <time>2016-04-27T05:32:19Z</time>
      </trkpt>
      <trkpt lat="44.51729" lon="3.49723">
        <ele>734</ele>
        <time>2016-04-27T05:32:23Z</time>
      </trkpt>
      <trkpt lat="44.5174" lon="3.49705">
        <ele>731</ele>
        <time>2016-04-27T05:32:35Z</time>
      </trkpt>
      <trkpt lat="44.51746" lon="3.49696">
        <ele>731</ele>
        <time>2016-04-27T05:32:41Z</time>
      </trkpt>
      <trkpt lat="44.51755" lon="3.49681">
        <ele>731</ele>
        <time>2016-04-27T05:32:50Z</time>
      </trkpt>
      <trkpt lat="44.51758" lon="3.49675">
        <ele>732</ele>
        <time>2016-04-27T05:32:54Z</time>
      </trkpt>
      <trkpt lat="44.51758" lon="3.49669">
        <ele>732</ele>
        <time>2016-04-27T05:32:58Z</time>
      </trkpt>
      <trkpt lat="44.51754" lon="3.49663">
        <ele>732</ele>
        <time>2016-04-27T05:33:04Z</time>
      </trkpt>
      <trkpt lat="44.51743" lon="3.49659">
        <ele>733</ele>
        <time>2016-04-27T05:33:11Z</time>
      </trkpt>
      <trkpt lat="44.51734" lon="3.49643">
        <ele>732</ele>
        <time>2016-04-27T05:33:25Z</time>
      </trkpt>
      <trkpt lat="44.5172" lon="3.49632">
        <ele>733</ele>
        <time>2016-04-27T05:33:41Z</time>
      </trkpt>
      <trkpt lat="44.51706" lon="3.49628">
        <ele>735</ele>
        <time>2016-04-27T05:34:00Z</time>
      </trkpt>
      <trkpt lat="44.51697" lon="3.49625">
        <ele>738</ele>
        <time>2016-04-27T05:34:13Z</time>
      </trkpt>
      <trkpt lat="44.51693" lon="3.49621">
        <ele>739</ele>
        <time>2016-04-27T05:34:20Z</time>
      </trkpt>
      <trkpt lat="44.51689" lon="3.49617">
        <ele>739</ele>
        <time>2016-04-27T05:34:27Z</time>
      </trkpt>
      <trkpt lat="44.51685" lon="3.49612">
        <ele>739</ele>
        <time>2016-04-27T05:34:34Z</time>
      </trkpt>
      <trkpt lat="44.51681" lon="3.49609">
        <ele>739</ele>
        <time>2016-04-27T05:34:41Z</time>
      </trkpt>
      <trkpt lat="44.51678" lon="3.49605">
        <ele>739</ele>
        <time>2016-04-27T05:34:48Z</time>
      </trkpt>
      <trkpt lat="44.51662" lon="3.49589">
        <ele>742</ele>
        <time>2016-04-27T05:35:22Z</time>
      </trkpt>
      <trkpt lat="44.51648" lon="3.49584">
        <ele>745</ele>
        <time>2016-04-27T05:35:43Z</time>
      </trkpt>
      <trkpt lat="44.51644" lon="3.4958">
        <ele>746</ele>
        <time>2016-04-27T05:35:49Z</time>
      </trkpt>
      <trkpt lat="44.5164" lon="3.49583">
        <ele>746</ele>
        <time>2016-04-27T05:35:55Z</time>
      </trkpt>
      <trkpt lat="44.51637" lon="3.49589">
        <ele>746</ele>
        <time>2016-04-27T05:36:00Z</time>
      </trkpt>
      <trkpt lat="44.5163" lon="3.49606">
        <ele>746</ele>
        <time>2016-04-27T05:36:15Z</time>
      </trkpt>
      <trkpt lat="44.51623" lon="3.49617">
        <ele>748</ele>
        <time>2016-04-27T05:36:26Z</time>
      </trkpt>
      <trkpt lat="44.51619" lon="3.49623">
        <ele>748</ele>
        <time>2016-04-27T05:36:31Z</time>
      </trkpt>
      <trkpt lat="44.51606" lon="3.49643">
        <ele>751</ele>
        <time>2016-04-27T05:36:51Z</time>
      </trkpt>
      <trkpt lat="44.51602" lon="3.49648">
        <ele>751</ele>
        <time>2016-04-27T05:36:56Z</time>
      </trkpt>
      <trkpt lat="44.51599" lon="3.49652">
        <ele>751</ele>
        <time>2016-04-27T05:37:00Z</time>
      </trkpt>
      <trkpt lat="44.51591" lon="3.4966">
        <ele>753</ele>
        <time>2016-04-27T05:37:09Z</time>
      </trkpt>
      <trkpt lat="44.51583" lon="3.49669">
        <ele>753</ele>
        <time>2016-04-27T05:37:19Z</time>
      </trkpt>
      <trkpt lat="44.51565" lon="3.49691">
        <ele>757</ele>
        <time>2016-04-27T05:37:42Z</time>
      </trkpt>
      <trkpt lat="44.51562" lon="3.49696">
        <ele>757</ele>
        <time>2016-04-27T05:37:46Z</time>
      </trkpt>
      <trkpt lat="44.51559" lon="3.49701">
        <ele>757</ele>
        <time>2016-04-27T05:37:51Z</time>
      </trkpt>
      <trkpt lat="44.51553" lon="3.49719">
        <ele>755</ele>
        <time>2016-04-27T05:38:09Z</time>
      </trkpt>
      <trkpt lat="44.51549" lon="3.49722">
        <ele>755</ele>
        <time>2016-04-27T05:38:14Z</time>
      </trkpt>
      <trkpt lat="44.51544" lon="3.49724">
        <ele>755</ele>
        <time>2016-04-27T05:38:20Z</time>
      </trkpt>
      <trkpt lat="44.5154" lon="3.4972">
        <ele>754</ele>
        <time>2016-04-27T05:38:39Z</time>
      </trkpt>
      <trkpt lat="44.51532" lon="3.49711">
        <ele>752</ele>
        <time>2016-04-27T05:38:52Z</time>
      </trkpt>
      <trkpt lat="44.51528" lon="3.49707">
        <ele>752</ele>
        <time>2016-04-27T05:38:58Z</time>
      </trkpt>
      <trkpt lat="44.51513" lon="3.49683">
        <ele>756</ele>
        <time>2016-04-27T05:39:31Z</time>
      </trkpt>
      <trkpt lat="44.51497" lon="3.49669">
        <ele>762</ele>
        <time>2016-04-27T05:40:01Z</time>
      </trkpt>
      <trkpt lat="44.51493" lon="3.49665">
        <ele>762</ele>
        <time>2016-04-27T05:40:09Z</time>
      </trkpt>
      <trkpt lat="44.51489" lon="3.49663">
        <ele>763</ele>
        <time>2016-04-27T05:40:17Z</time>
      </trkpt>
      <trkpt lat="44.51484" lon="3.49661">
        <ele>763</ele>
        <time>2016-04-27T05:40:27Z</time>
      </trkpt>
      <trkpt lat="44.51475" lon="3.49658">
        <ele>766</ele>
        <time>2016-04-27T05:41:34Z</time>
      </trkpt>
      <trkpt lat="44.51461" lon="3.49659">
        <ele>771</ele>
        <time>2016-04-27T05:42:05Z</time>
      </trkpt>
      <trkpt lat="44.51452" lon="3.49654">
        <ele>775</ele>
        <time>2016-04-27T05:42:21Z</time>
      </trkpt>
      <trkpt lat="44.51447" lon="3.49652">
        <ele>775</ele>
        <time>2016-04-27T05:42:29Z</time>
      </trkpt>
      <trkpt lat="44.51431" lon="3.49642">
        <ele>780</ele>
        <time>2016-04-27T05:43:03Z</time>
      </trkpt>
      <trkpt lat="44.51426" lon="3.49641">
        <ele>781</ele>
        <time>2016-04-27T05:43:13Z</time>
      </trkpt>
      <trkpt lat="44.51407" lon="3.49635">
        <ele>785</ele>
        <time>2016-04-27T05:43:49Z</time>
      </trkpt>
      <trkpt lat="44.51402" lon="3.49634">
        <ele>786</ele>
        <time>2016-04-27T05:43:58Z</time>
      </trkpt>
      <trkpt lat="44.514" lon="3.49635">
        <ele>787</ele>
        <time>2016-04-27T05:44:04Z</time>
      </trkpt>
      <trkpt lat="44.51393" lon="3.49632">
        <ele>788</ele>
        <time>2016-04-27T05:44:19Z</time>
      </trkpt>
      <trkpt lat="44.51388" lon="3.49632">
        <ele>788</ele>
        <time>2016-04-27T05:44:25Z</time>
      </trkpt>
      <trkpt lat="44.51383" lon="3.49632">
        <ele>791</ele>
        <time>2016-04-27T05:44:35Z</time>
      </trkpt>
      <trkpt lat="44.5138" lon="3.49628">
        <ele>793</ele>
        <time>2016-04-27T05:44:44Z</time>
      </trkpt>
      <trkpt lat="44.51382" lon="3.49622">
        <ele>795</ele>
        <time>2016-04-27T05:44:54Z</time>
      </trkpt>
      <trkpt lat="44.51389" lon="3.49611">
        <ele>801</ele>
        <time>2016-04-27T05:45:11Z</time>
      </trkpt>
      <trkpt lat="44.51393" lon="3.49607">
        <ele>800</ele>
        <time>2016-04-27T05:45:19Z</time>
      </trkpt>
      <trkpt lat="44.51395" lon="3.49601">
        <ele>800</ele>
        <time>2016-04-27T05:45:28Z</time>
      </trkpt>
      <trkpt lat="44.51397" lon="3.49595">
        <ele>800</ele>
        <time>2016-04-27T05:45:35Z</time>
      </trkpt>
      <trkpt lat="44.5141" lon="3.4957">
        <ele>803</ele>
        <time>2016-04-27T05:46:10Z</time>
      </trkpt>
      <trkpt lat="44.51414" lon="3.49563">
        <ele>805</ele>
        <time>2016-04-27T05:46:25Z</time>
      </trkpt>
      <trkpt lat="44.51416" lon="3.49557">
        <ele>805</ele>
        <time>2016-04-27T05:46:34Z</time>
      </trkpt>
      <trkpt lat="44.5142" lon="3.49554">
        <ele>806</ele>
        <time>2016-04-27T05:46:42Z</time>
      </trkpt>
      <trkpt lat="44.51418" lon="3.49554">
        <ele>809</ele>
        <time>2016-04-27T05:47:10Z</time>
      </trkpt>
      <trkpt lat="44.51414" lon="3.49549">
        <ele>809</ele>
        <time>2016-04-27T05:47:16Z</time>
      </trkpt>
      <trkpt lat="44.51412" lon="3.49543">
        <ele>810</ele>
        <time>2016-04-27T05:47:24Z</time>
      </trkpt>
      <trkpt lat="44.51413" lon="3.49536">
        <ele>809</ele>
        <time>2016-04-27T05:47:32Z</time>
      </trkpt>
      <trkpt lat="44.51414" lon="3.4953">
        <ele>807</ele>
        <time>2016-04-27T05:47:40Z</time>
      </trkpt>
      <trkpt lat="44.51414" lon="3.49523">
        <ele>806</ele>
        <time>2016-04-27T05:47:48Z</time>
      </trkpt>
      <trkpt lat="44.51405" lon="3.49499">
        <ele>811</ele>
        <time>2016-04-27T05:48:15Z</time>
      </trkpt>
      <trkpt lat="44.51402" lon="3.49493">
        <ele>811</ele>
        <time>2016-04-27T05:48:22Z</time>
      </trkpt>
      <trkpt lat="44.51401" lon="3.4949">
        <ele>812</ele>
        <time>2016-04-27T05:48:33Z</time>
      </trkpt>
      <trkpt lat="44.51402" lon="3.49486">
        <ele>813</ele>
        <time>2016-04-27T05:49:05Z</time>
      </trkpt>
      <trkpt lat="44.514" lon="3.4948">
        <ele>814</ele>
        <time>2016-04-27T05:49:12Z</time>
      </trkpt>
      <trkpt lat="44.51384" lon="3.49456">
        <ele>819</ele>
        <time>2016-04-27T05:49:47Z</time>
      </trkpt>
      <trkpt lat="44.51371" lon="3.49437">
        <ele>825</ele>
        <time>2016-04-27T05:50:20Z</time>
      </trkpt>
      <trkpt lat="44.51363" lon="3.4942">
        <ele>831</ele>
        <time>2016-04-27T05:50:51Z</time>
      </trkpt>
      <trkpt lat="44.5136" lon="3.49415">
        <ele>832</ele>
        <time>2016-04-27T05:50:59Z</time>
      </trkpt>
      <trkpt lat="44.51358" lon="3.49412">
        <ele>834</ele>
        <time>2016-04-27T05:51:10Z</time>
      </trkpt>
      <trkpt lat="44.51357" lon="3.49404">
        <ele>837</ele>
        <time>2016-04-27T05:51:27Z</time>
      </trkpt>
      <trkpt lat="44.51353" lon="3.49399">
        <ele>839</ele>
        <time>2016-04-27T05:51:34Z</time>
      </trkpt>
      <trkpt lat="44.51348" lon="3.49395">
        <ele>840</ele>
        <time>2016-04-27T05:51:43Z</time>
      </trkpt>
      <trkpt lat="44.51345" lon="3.49389">
        <ele>841</ele>
        <time>2016-04-27T05:51:52Z</time>
      </trkpt>
      <trkpt lat="44.51344" lon="3.49385">
        <ele>842</ele>
        <time>2016-04-27T05:51:59Z</time>
      </trkpt>
      <trkpt lat="44.51341" lon="3.4938">
        <ele>845</ele>
        <time>2016-04-27T05:52:08Z</time>
      </trkpt>
      <trkpt lat="44.51342" lon="3.49382">
        <ele>845</ele>
        <time>2016-04-27T05:55:41Z</time>
      </trkpt>
      <trkpt lat="44.51341" lon="3.49389">
        <ele>845</ele>
        <time>2016-04-27T05:55:47Z</time>
      </trkpt>
      <trkpt lat="44.51339" lon="3.49402">
        <ele>846</ele>
        <time>2016-04-27T05:56:01Z</time>
      </trkpt>
      <trkpt lat="44.51334" lon="3.49399">
        <ele>846</ele>
        <time>2016-04-27T05:56:10Z</time>
      </trkpt>
      <trkpt lat="44.5133" lon="3.49395">
        <ele>847</ele>
        <time>2016-04-27T05:56:23Z</time>
      </trkpt>
      <trkpt lat="44.51335" lon="3.49388">
        <ele>849</ele>
        <time>2016-04-27T05:56:34Z</time>
      </trkpt>
      <trkpt lat="44.51333" lon="3.49382">
        <ele>850</ele>
        <time>2016-04-27T05:56:42Z</time>
      </trkpt>
      <trkpt lat="44.51327" lon="3.49378">
        <ele>850</ele>
        <time>2016-04-27T05:56:51Z</time>
      </trkpt>
      <trkpt lat="44.51325" lon="3.49372">
        <ele>850</ele>
        <time>2016-04-27T05:56:59Z</time>
      </trkpt>
      <trkpt lat="44.51318" lon="3.49353">
        <ele>852</ele>
        <time>2016-04-27T05:57:26Z</time>
      </trkpt>
      <trkpt lat="44.51319" lon="3.49348">
        <ele>853</ele>
        <time>2016-04-27T05:57:34Z</time>
      </trkpt>
      <trkpt lat="44.51317" lon="3.49344">
        <ele>855</ele>
        <time>2016-04-27T05:57:42Z</time>
      </trkpt>
      <trkpt lat="44.51309" lon="3.49342">
        <ele>857</ele>
        <time>2016-04-27T05:57:58Z</time>
      </trkpt>
      <trkpt lat="44.51305" lon="3.49338">
        <ele>857</ele>
        <time>2016-04-27T05:58:04Z</time>
      </trkpt>
      <trkpt lat="44.51296" lon="3.49312">
        <ele>860</ele>
        <time>2016-04-27T05:58:37Z</time>
      </trkpt>
      <trkpt lat="44.51295" lon="3.49306">
        <ele>861</ele>
        <time>2016-04-27T05:58:43Z</time>
      </trkpt>
      <trkpt lat="44.51291" lon="3.49302">
        <ele>861</ele>
        <time>2016-04-27T05:58:52Z</time>
      </trkpt>
      <trkpt lat="44.51286" lon="3.49291">
        <ele>862</ele>
        <time>2016-04-27T05:59:06Z</time>
      </trkpt>
      <trkpt lat="44.51281" lon="3.4928">
        <ele>866</ele>
        <time>2016-04-27T05:59:22Z</time>
      </trkpt>
      <trkpt lat="44.51269" lon="3.4927">
        <ele>870</ele>
        <time>2016-04-27T05:59:46Z</time>
      </trkpt>
      <trkpt lat="44.5126" lon="3.49252">
        <ele>875</ele>
        <time>2016-04-27T06:00:19Z</time>
      </trkpt>
      <trkpt lat="44.51256" lon="3.49248">
        <ele>875</ele>
        <time>2016-04-27T06:00:26Z</time>
      </trkpt>
      <trkpt lat="44.51246" lon="3.4924">
        <ele>879</ele>
        <time>2016-04-27T06:00:55Z</time>
      </trkpt>
      <trkpt lat="44.51241" lon="3.49237">
        <ele>879</ele>
        <time>2016-04-27T06:01:00Z</time>
      </trkpt>
      <trkpt lat="44.51234" lon="3.49229">
        <ele>879</ele>
        <time>2016-04-27T06:01:13Z</time>
      </trkpt>
      <trkpt lat="44.51232" lon="3.49224">
        <ele>879</ele>
        <time>2016-04-27T06:01:25Z</time>
      </trkpt>
      <trkpt lat="44.51226" lon="3.49213">
        <ele>880</ele>
        <time>2016-04-27T06:01:47Z</time>
      </trkpt>
      <trkpt lat="44.51223" lon="3.49206">
        <ele>883</ele>
        <time>2016-04-27T06:02:00Z</time>
      </trkpt>
      <trkpt lat="44.51217" lon="3.49201">
        <ele>887</ele>
        <time>2016-04-27T06:02:16Z</time>
      </trkpt>
      <trkpt lat="44.51213" lon="3.492">
        <ele>888</ele>
        <time>2016-04-27T06:02:23Z</time>
      </trkpt>
      <trkpt lat="44.51205" lon="3.49191">
        <ele>891</ele>
        <time>2016-04-27T06:02:39Z</time>
      </trkpt>
      <trkpt lat="44.51202" lon="3.49186">
        <ele>891</ele>
        <time>2016-04-27T06:02:47Z</time>
      </trkpt>
      <trkpt lat="44.51199" lon="3.49182">
        <ele>892</ele>
        <time>2016-04-27T06:02:53Z</time>
      </trkpt>
      <trkpt lat="44.51198" lon="3.49177">
        <ele>893</ele>
        <time>2016-04-27T06:03:01Z</time>
      </trkpt>
      <trkpt lat="44.51195" lon="3.49171">
        <ele>894</ele>
        <time>2016-04-27T06:03:09Z</time>
      </trkpt>
      <trkpt lat="44.51194" lon="3.49168">
        <ele>894</ele>
        <time>2016-04-27T06:03:15Z</time>
      </trkpt>
      <trkpt lat="44.5119" lon="3.49164">
        <ele>895</ele>
        <time>2016-04-27T06:03:24Z</time>
      </trkpt>
      <trkpt lat="44.51189" lon="3.4916">
        <ele>896</ele>
        <time>2016-04-27T06:03:31Z</time>
      </trkpt>
      <trkpt lat="44.51183" lon="3.49151">
        <ele>900</ele>
        <time>2016-04-27T06:04:01Z</time>
      </trkpt>
      <trkpt lat="44.51175" lon="3.49148">
        <ele>905</ele>
        <time>2016-04-27T06:04:25Z</time>
      </trkpt>
      <trkpt lat="44.51174" lon="3.49145">
        <ele>907</ele>
        <time>2016-04-27T06:04:38Z</time>
      </trkpt>
      <trkpt lat="44.51169" lon="3.49141">
        <ele>911</ele>
        <time>2016-04-27T06:05:20Z</time>
      </trkpt>
      <trkpt lat="44.51165" lon="3.49137">
        <ele>911</ele>
        <time>2016-04-27T06:05:29Z</time>
      </trkpt>
      <trkpt lat="44.51161" lon="3.49134">
        <ele>911</ele>
        <time>2016-04-27T06:05:36Z</time>
      </trkpt>
      <trkpt lat="44.5116" lon="3.49131">
        <ele>911</ele>
        <time>2016-04-27T06:05:42Z</time>
      </trkpt>
      <trkpt lat="44.51158" lon="3.49128">
        <ele>911</ele>
        <time>2016-04-27T06:05:48Z</time>
      </trkpt>
      <trkpt lat="44.51157" lon="3.49122">
        <ele>910</ele>
        <time>2016-04-27T06:05:56Z</time>
      </trkpt>
      <trkpt lat="44.51149" lon="3.49094">
        <ele>913</ele>
        <time>2016-04-27T06:06:25Z</time>
      </trkpt>
      <trkpt lat="44.51142" lon="3.49066">
        <ele>918</ele>
        <time>2016-04-27T06:06:58Z</time>
      </trkpt>
      <trkpt lat="44.51136" lon="3.49048">
        <ele>924</ele>
        <time>2016-04-27T06:07:22Z</time>
      </trkpt>
      <trkpt lat="44.51139" lon="3.49018">
        <ele>932</ele>
        <time>2016-04-27T06:07:55Z</time>
      </trkpt>
      <trkpt lat="44.51135" lon="3.4901">
        <ele>934</ele>
        <time>2016-04-27T06:08:09Z</time>
      </trkpt>
      <trkpt lat="44.51127" lon="3.49">
        <ele>937</ele>
        <time>2016-04-27T06:08:26Z</time>
      </trkpt>
      <trkpt lat="44.51125" lon="3.48994">
        <ele>937</ele>
        <time>2016-04-27T06:08:32Z</time>
      </trkpt>
      <trkpt lat="44.51122" lon="3.4899">
        <ele>937</ele>
        <time>2016-04-27T06:08:40Z</time>
      </trkpt>
      <trkpt lat="44.51117" lon="3.48979">
        <ele>938</ele>
        <time>2016-04-27T06:08:56Z</time>
      </trkpt>
      <trkpt lat="44.51117" lon="3.48972">
        <ele>939</ele>
        <time>2016-04-27T06:09:03Z</time>
      </trkpt>
      <trkpt lat="44.51113" lon="3.48965">
        <ele>940</ele>
        <time>2016-04-27T06:09:12Z</time>
      </trkpt>
      <trkpt lat="44.51114" lon="3.48952">
        <ele>940</ele>
        <time>2016-04-27T06:09:26Z</time>
      </trkpt>
      <trkpt lat="44.51114" lon="3.48933">
        <ele>944</ele>
        <time>2016-04-27T06:09:48Z</time>
      </trkpt>
      <trkpt lat="44.51112" lon="3.48927">
        <ele>945</ele>
        <time>2016-04-27T06:09:55Z</time>
      </trkpt>
      <trkpt lat="44.51109" lon="3.48922">
        <ele>946</ele>
        <time>2016-04-27T06:10:03Z</time>
      </trkpt>
      <trkpt lat="44.51105" lon="3.4891">
        <ele>946</ele>
        <time>2016-04-27T06:10:15Z</time>
      </trkpt>
      <trkpt lat="44.51101" lon="3.48905">
        <ele>946</ele>
        <time>2016-04-27T06:10:23Z</time>
      </trkpt>
      <trkpt lat="44.511" lon="3.48899">
        <ele>948</ele>
        <time>2016-04-27T06:10:30Z</time>
      </trkpt>
      <trkpt lat="44.51099" lon="3.48896">
        <ele>948</ele>
        <time>2016-04-27T06:10:36Z</time>
      </trkpt>
      <trkpt lat="44.51109" lon="3.48889">
        <ele>952</ele>
        <time>2016-04-27T06:10:59Z</time>
      </trkpt>
      <trkpt lat="44.51112" lon="3.489">
        <ele>957</ele>
        <time>2016-04-27T06:11:18Z</time>
      </trkpt>
      <trkpt lat="44.51111" lon="3.48914">
        <ele>960</ele>
        <time>2016-04-27T06:11:35Z</time>
      </trkpt>
      <trkpt lat="44.51107" lon="3.48918">
        <ele>962</ele>
        <time>2016-04-27T06:11:40Z</time>
      </trkpt>
      <trkpt lat="44.51103" lon="3.48922">
        <ele>962</ele>
        <time>2016-04-27T06:11:44Z</time>
      </trkpt>
      <trkpt lat="44.51102" lon="3.48929">
        <ele>962</ele>
        <time>2016-04-27T06:11:50Z</time>
      </trkpt>
      <trkpt lat="44.51102" lon="3.48936">
        <ele>961</ele>
        <time>2016-04-27T06:11:57Z</time>
      </trkpt>
      <trkpt lat="44.51101" lon="3.48942">
        <ele>961</ele>
        <time>2016-04-27T06:12:04Z</time>
      </trkpt>
      <trkpt lat="44.511" lon="3.48949">
        <ele>961</ele>
        <time>2016-04-27T06:12:15Z</time>
      </trkpt>
      <trkpt lat="44.511" lon="3.48956">
        <ele>962</ele>
        <time>2016-04-27T06:12:22Z</time>
      </trkpt>
      <trkpt lat="44.511" lon="3.48963">
        <ele>962</ele>
        <time>2016-04-27T06:12:28Z</time>
      </trkpt>
      <trkpt lat="44.51099" lon="3.4897">
        <ele>962</ele>
        <time>2016-04-27T06:12:36Z</time>
      </trkpt>
      <trkpt lat="44.51097" lon="3.48977">
        <ele>962</ele>
        <time>2016-04-27T06:12:43Z</time>
      </trkpt>
      <trkpt lat="44.51094" lon="3.48987">
        <ele>960</ele>
        <time>2016-04-27T06:12:52Z</time>
      </trkpt>
      <trkpt lat="44.51091" lon="3.49016">
        <ele>956</ele>
        <time>2016-04-27T06:13:23Z</time>
      </trkpt>
      <trkpt lat="44.51091" lon="3.49023">
        <ele>954</ele>
        <time>2016-04-27T06:13:30Z</time>
      </trkpt>
      <trkpt lat="44.51095" lon="3.49062">
        <ele>967</ele>
        <time>2016-04-27T06:14:06Z</time>
      </trkpt>
      <trkpt lat="44.51095" lon="3.49068">
        <ele>968</ele>
        <time>2016-04-27T06:14:12Z</time>
      </trkpt>
      <trkpt lat="44.51093" lon="3.49074">
        <ele>969</ele>
        <time>2016-04-27T06:14:17Z</time>
      </trkpt>
      <trkpt lat="44.51093" lon="3.49081">
        <ele>970</ele>
        <time>2016-04-27T06:14:23Z</time>
      </trkpt>
      <trkpt lat="44.51094" lon="3.49087">
        <ele>969</ele>
        <time>2016-04-27T06:14:30Z</time>
      </trkpt>
      <trkpt lat="44.51097" lon="3.49093">
        <ele>968</ele>
        <time>2016-04-27T06:14:36Z</time>
      </trkpt>
      <trkpt lat="44.51097" lon="3.49099">
        <ele>968</ele>
        <time>2016-04-27T06:14:41Z</time>
      </trkpt>
      <trkpt lat="44.511" lon="3.49119">
        <ele>973</ele>
        <time>2016-04-27T06:14:57Z</time>
      </trkpt>
      <trkpt lat="44.51098" lon="3.49126">
        <ele>975</ele>
        <time>2016-04-27T06:15:03Z</time>
      </trkpt>
      <trkpt lat="44.51095" lon="3.49132">
        <ele>976</ele>
        <time>2016-04-27T06:15:09Z</time>
      </trkpt>
      <trkpt lat="44.51094" lon="3.49139">
        <ele>975</ele>
        <time>2016-04-27T06:15:15Z</time>
      </trkpt>
      <trkpt lat="44.51095" lon="3.49145">
        <ele>975</ele>
        <time>2016-04-27T06:15:21Z</time>
      </trkpt>
      <trkpt lat="44.51094" lon="3.49152">
        <ele>974</ele>
        <time>2016-04-27T06:15:27Z</time>
      </trkpt>
      <trkpt lat="44.51094" lon="3.49159">
        <ele>975</ele>
        <time>2016-04-27T06:15:33Z</time>
      </trkpt>
      <trkpt lat="44.51091" lon="3.49172">
        <ele>976</ele>
        <time>2016-04-27T06:15:46Z</time>
      </trkpt>
      <trkpt lat="44.51093" lon="3.49181">
        <ele>976</ele>
        <time>2016-04-27T06:15:59Z</time>
      </trkpt>
      <trkpt lat="44.51093" lon="3.49189">
        <ele>977</ele>
        <time>2016-04-27T06:16:05Z</time>
      </trkpt>
      <trkpt lat="44.51094" lon="3.49195">
        <ele>977</ele>
        <time>2016-04-27T06:16:12Z</time>
      </trkpt>
      <trkpt lat="44.51094" lon="3.49202">
        <ele>977</ele>
        <time>2016-04-27T06:16:19Z</time>
      </trkpt>
      <trkpt lat="44.5109" lon="3.49205">
        <ele>977</ele>
        <time>2016-04-27T06:16:28Z</time>
      </trkpt>
      <trkpt lat="44.51088" lon="3.49204">
        <ele>976</ele>
        <time>2016-04-27T06:17:27Z</time>
      </trkpt>
      <trkpt lat="44.51087" lon="3.49195">
        <ele>975</ele>
        <time>2016-04-27T06:18:46Z</time>
      </trkpt>
      <trkpt lat="44.51084" lon="3.49191">
        <ele>976</ele>
        <time>2016-04-27T06:18:51Z</time>
      </trkpt>
      <trkpt lat="44.5108" lon="3.49186">
        <ele>976</ele>
        <time>2016-04-27T06:18:56Z</time>
      </trkpt>
      <trkpt lat="44.51079" lon="3.49179">
        <ele>977</ele>
        <time>2016-04-27T06:19:04Z</time>
      </trkpt>
      <trkpt lat="44.51079" lon="3.49175">
        <ele>977</ele>
        <time>2016-04-27T06:19:15Z</time>
      </trkpt>
      <trkpt lat="44.51077" lon="3.49169">
        <ele>977</ele>
        <time>2016-04-27T06:19:20Z</time>
      </trkpt>
      <trkpt lat="44.51074" lon="3.49156">
        <ele>976</ele>
        <time>2016-04-27T06:19:31Z</time>
      </trkpt>
      <trkpt lat="44.51076" lon="3.4915">
        <ele>975</ele>
        <time>2016-04-27T06:19:38Z</time>
      </trkpt>
      <trkpt lat="44.51075" lon="3.49146">
        <ele>977</ele>
        <time>2016-04-27T06:27:29Z</time>
      </trkpt>
      <trkpt lat="44.5108" lon="3.49144">
        <ele>982</ele>
        <time>2016-04-27T06:27:46Z</time>
      </trkpt>
      <trkpt lat="44.51079" lon="3.49144">
        <ele>986</ele>
        <time>2016-04-27T06:35:15Z</time>
      </trkpt>
      <trkpt lat="44.51075" lon="3.49141">
        <ele>986</ele>
        <time>2016-04-27T06:35:23Z</time>
      </trkpt>
      <trkpt lat="44.51075" lon="3.49134">
        <ele>986</ele>
        <time>2016-04-27T06:35:30Z</time>
      </trkpt>
      <trkpt lat="44.51073" lon="3.4912">
        <ele>989</ele>
        <time>2016-04-27T06:35:44Z</time>
      </trkpt>
      <trkpt lat="44.5107" lon="3.49115">
        <ele>989</ele>
        <time>2016-04-27T06:35:50Z</time>
      </trkpt>
      <trkpt lat="44.51066" lon="3.4911">
        <ele>989</ele>
        <time>2016-04-27T06:35:54Z</time>
      </trkpt>
      <trkpt lat="44.51066" lon="3.49103">
        <ele>990</ele>
        <time>2016-04-27T06:35:58Z</time>
      </trkpt>
      <trkpt lat="44.51063" lon="3.49098">
        <ele>991</ele>
        <time>2016-04-27T06:36:04Z</time>
      </trkpt>
      <trkpt lat="44.51065" lon="3.49087">
        <ele>990</ele>
        <time>2016-04-27T06:36:18Z</time>
      </trkpt>
      <trkpt lat="44.51066" lon="3.4908">
        <ele>989</ele>
        <time>2016-04-27T06:36:23Z</time>
      </trkpt>
      <trkpt lat="44.51064" lon="3.49073">
        <ele>990</ele>
        <time>2016-04-27T06:36:29Z</time>
      </trkpt>
      <trkpt lat="44.51066" lon="3.49067">
        <ele>991</ele>
        <time>2016-04-27T06:36:36Z</time>
      </trkpt>
      <trkpt lat="44.51068" lon="3.4906">
        <ele>993</ele>
        <time>2016-04-27T06:36:42Z</time>
      </trkpt>
      <trkpt lat="44.51069" lon="3.49054">
        <ele>993</ele>
        <time>2016-04-27T06:36:48Z</time>
      </trkpt>
      <trkpt lat="44.51066" lon="3.49049">
        <ele>992</ele>
        <time>2016-04-27T06:36:55Z</time>
      </trkpt>
      <trkpt lat="44.51065" lon="3.49042">
        <ele>991</ele>
        <time>2016-04-27T06:37:01Z</time>
      </trkpt>
      <trkpt lat="44.51058" lon="3.49011">
        <ele>995</ele>
        <time>2016-04-27T06:37:27Z</time>
      </trkpt>
      <trkpt lat="44.51053" lon="3.48993">
        <ele>995</ele>
        <time>2016-04-27T06:37:42Z</time>
      </trkpt>
      <trkpt lat="44.51053" lon="3.48979">
        <ele>995</ele>
        <time>2016-04-27T06:37:53Z</time>
      </trkpt>
      <trkpt lat="44.51055" lon="3.48974">
        <ele>996</ele>
        <time>2016-04-27T06:37:59Z</time>
      </trkpt>
      <trkpt lat="44.51058" lon="3.48969">
        <ele>998</ele>
        <time>2016-04-27T06:38:06Z</time>
      </trkpt>
      <trkpt lat="44.51056" lon="3.48956">
        <ele>1002</ele>
        <time>2016-04-27T06:38:18Z</time>
      </trkpt>
      <trkpt lat="44.51055" lon="3.48949">
        <ele>1003</ele>
        <time>2016-04-27T06:38:23Z</time>
      </trkpt>
      <trkpt lat="44.51056" lon="3.48929">
        <ele>1009</ele>
        <time>2016-04-27T06:38:41Z</time>
      </trkpt>
      <trkpt lat="44.51056" lon="3.48922">
        <ele>1008</ele>
        <time>2016-04-27T06:38:48Z</time>
      </trkpt>
      <trkpt lat="44.51054" lon="3.48909">
        <ele>1009</ele>
        <time>2016-04-27T06:39:01Z</time>
      </trkpt>
      <trkpt lat="44.51053" lon="3.48902">
        <ele>1009</ele>
        <time>2016-04-27T06:39:07Z</time>
      </trkpt>
      <trkpt lat="44.51056" lon="3.48896">
        <ele>1009</ele>
        <time>2016-04-27T06:39:12Z</time>
      </trkpt>
      <trkpt lat="44.51059" lon="3.48891">
        <ele>1010</ele>
        <time>2016-04-27T06:39:17Z</time>
      </trkpt>
      <trkpt lat="44.51061" lon="3.48884">
        <ele>1010</ele>
        <time>2016-04-27T06:39:21Z</time>
      </trkpt>
      <trkpt lat="44.5106" lon="3.48877">
        <ele>1010</ele>
        <time>2016-04-27T06:39:25Z</time>
      </trkpt>
      <trkpt lat="44.51054" lon="3.48866">
        <ele>1009</ele>
        <time>2016-04-27T06:39:32Z</time>
      </trkpt>
      <trkpt lat="44.51053" lon="3.4886">
        <ele>1009</ele>
        <time>2016-04-27T06:39:36Z</time>
      </trkpt>
      <trkpt lat="44.51042" lon="3.48829">
        <ele>1005</ele>
        <time>2016-04-27T06:39:59Z</time>
      </trkpt>
      <trkpt lat="44.51037" lon="3.48817">
        <ele>1004</ele>
        <time>2016-04-27T06:40:08Z</time>
      </trkpt>
      <trkpt lat="44.51033" lon="3.48813">
        <ele>1004</ele>
        <time>2016-04-27T06:40:12Z</time>
      </trkpt>
      <trkpt lat="44.51033" lon="3.48807">
        <ele>1004</ele>
        <time>2016-04-27T06:40:26Z</time>
      </trkpt>
      <trkpt lat="44.51033" lon="3.488">
        <ele>1005</ele>
        <time>2016-04-27T06:40:32Z</time>
      </trkpt>
      <trkpt lat="44.51036" lon="3.48794">
        <ele>1006</ele>
        <time>2016-04-27T06:40:38Z</time>
      </trkpt>
      <trkpt lat="44.51036" lon="3.48787">
        <ele>1009</ele>
        <time>2016-04-27T06:40:44Z</time>
      </trkpt>
      <trkpt lat="44.51033" lon="3.4878">
        <ele>1010</ele>
        <time>2016-04-27T06:40:49Z</time>
      </trkpt>
      <trkpt lat="44.51018" lon="3.48763">
        <ele>1018</ele>
        <time>2016-04-27T06:41:19Z</time>
      </trkpt>
      <trkpt lat="44.51013" lon="3.48759">
        <ele>1020</ele>
        <time>2016-04-27T06:41:32Z</time>
      </trkpt>
      <trkpt lat="44.51009" lon="3.48755">
        <ele>1021</ele>
        <time>2016-04-27T06:41:39Z</time>
      </trkpt>
      <trkpt lat="44.51001" lon="3.48747">
        <ele>1019</ele>
        <time>2016-04-27T06:41:53Z</time>
      </trkpt>
      <trkpt lat="44.50999" lon="3.48741">
        <ele>1020</ele>
        <time>2016-04-27T06:42:01Z</time>
      </trkpt>
      <trkpt lat="44.50999" lon="3.48728">
        <ele>1023</ele>
        <time>2016-04-27T06:42:16Z</time>
      </trkpt>
      <trkpt lat="44.51004" lon="3.48708">
        <ele>1027</ele>
        <time>2016-04-27T06:42:39Z</time>
      </trkpt>
      <trkpt lat="44.51004" lon="3.48701">
        <ele>1027</ele>
        <time>2016-04-27T06:42:46Z</time>
      </trkpt>
      <trkpt lat="44.51005" lon="3.48694">
        <ele>1025</ele>
        <time>2016-04-27T06:42:53Z</time>
      </trkpt>
      <trkpt lat="44.51001" lon="3.4869">
        <ele>1023</ele>
        <time>2016-04-27T06:43:01Z</time>
      </trkpt>
      <trkpt lat="44.50997" lon="3.48688">
        <ele>1021</ele>
        <time>2016-04-27T06:43:11Z</time>
      </trkpt>
      <trkpt lat="44.50994" lon="3.48695">
        <ele>1019</ele>
        <time>2016-04-27T06:44:16Z</time>
      </trkpt>
      <trkpt lat="44.5099" lon="3.48699">
        <ele>1020</ele>
        <time>2016-04-27T06:44:21Z</time>
      </trkpt>
      <trkpt lat="44.50979" lon="3.48713">
        <ele>1019</ele>
        <time>2016-04-27T06:44:36Z</time>
      </trkpt>
      <trkpt lat="44.50976" lon="3.48718">
        <ele>1022</ele>
        <time>2016-04-27T06:44:43Z</time>
      </trkpt>
      <trkpt lat="44.50973" lon="3.48724">
        <ele>1022</ele>
        <time>2016-04-27T06:44:49Z</time>
      </trkpt>
      <trkpt lat="44.50974" lon="3.48732">
        <ele>1022</ele>
        <time>2016-04-27T06:45:59Z</time>
      </trkpt>
      <trkpt lat="44.5098" lon="3.48753">
        <ele>1023</ele>
        <time>2016-04-27T06:46:10Z</time>
      </trkpt>
      <trkpt lat="44.50989" lon="3.4877">
        <ele>1027</ele>
        <time>2016-04-27T06:46:25Z</time>
      </trkpt>
      <trkpt lat="44.50989" lon="3.48779">
        <ele>1017</ele>
        <time>2016-04-27T06:47:33Z</time>
      </trkpt>
      <trkpt lat="44.50991" lon="3.48784">
        <ele>1017</ele>
        <time>2016-04-27T06:47:39Z</time>
      </trkpt>
      <trkpt lat="44.50994" lon="3.48789">
        <ele>1018</ele>
        <time>2016-04-27T06:47:46Z</time>
      </trkpt>
      <trkpt lat="44.50995" lon="3.48792">
        <ele>1016</ele>
        <time>2016-04-27T06:49:49Z</time>
      </trkpt>
      <trkpt lat="44.50996" lon="3.488">
        <ele>1017</ele>
        <time>2016-04-27T06:50:07Z</time>
      </trkpt>
      <trkpt lat="44.50995" lon="3.48819">
        <ele>1021</ele>
        <time>2016-04-27T06:50:38Z</time>
      </trkpt>
      <trkpt lat="44.51005" lon="3.48851">
        <ele>1025</ele>
        <time>2016-04-27T06:51:08Z</time>
      </trkpt>
      <trkpt lat="44.51011" lon="3.48861">
        <ele>1026</ele>
        <time>2016-04-27T06:51:20Z</time>
      </trkpt>
      <trkpt lat="44.51012" lon="3.48869">
        <ele>1026</ele>
        <time>2016-04-27T06:51:26Z</time>
      </trkpt>
      <trkpt lat="44.51015" lon="3.48874">
        <ele>1025</ele>
        <time>2016-04-27T06:51:31Z</time>
      </trkpt>
      <trkpt lat="44.51018" lon="3.48878">
        <ele>1025</ele>
        <time>2016-04-27T06:51:37Z</time>
      </trkpt>
      <trkpt lat="44.51026" lon="3.48887">
        <ele>1029</ele>
        <time>2016-04-27T06:51:54Z</time>
      </trkpt>
      <trkpt lat="44.51022" lon="3.48884">
        <ele>1033</ele>
        <time>2016-04-27T06:52:52Z</time>
      </trkpt>
      <trkpt lat="44.51017" lon="3.48883">
        <ele>1033</ele>
        <time>2016-04-27T06:52:57Z</time>
      </trkpt>
      <trkpt lat="44.51013" lon="3.48887">
        <ele>1034</ele>
        <time>2016-04-27T06:53:04Z</time>
      </trkpt>
      <trkpt lat="44.51006" lon="3.48904">
        <ele>1032</ele>
        <time>2016-04-27T06:53:21Z</time>
      </trkpt>
      <trkpt lat="44.51003" lon="3.4891">
        <ele>1033</ele>
        <time>2016-04-27T06:53:27Z</time>
      </trkpt>
      <trkpt lat="44.50989" lon="3.48931">
        <ele>1038</ele>
        <time>2016-04-27T06:53:49Z</time>
      </trkpt>
      <trkpt lat="44.50987" lon="3.48938">
        <ele>1037</ele>
        <time>2016-04-27T06:53:53Z</time>
      </trkpt>
      <trkpt lat="44.50984" lon="3.48944">
        <ele>1038</ele>
        <time>2016-04-27T06:53:58Z</time>
      </trkpt>
      <trkpt lat="44.50977" lon="3.48982">
        <ele>1046</ele>
        <time>2016-04-27T06:54:31Z</time>
      </trkpt>
      <trkpt lat="44.50977" lon="3.48989">
        <ele>1048</ele>
        <time>2016-04-27T06:54:38Z</time>
      </trkpt>
      <trkpt lat="44.50977" lon="3.48995">
        <ele>1048</ele>
        <time>2016-04-27T06:54:43Z</time>
      </trkpt>
      <trkpt lat="44.5098" lon="3.49002">
        <ele>1047</ele>
        <time>2016-04-27T06:54:49Z</time>
      </trkpt>
      <trkpt lat="44.50982" lon="3.49009">
        <ele>1047</ele>
        <time>2016-04-27T06:54:57Z</time>
      </trkpt>
      <trkpt lat="44.50988" lon="3.49028">
        <ele>1045</ele>
        <time>2016-04-27T06:55:15Z</time>
      </trkpt>
      <trkpt lat="44.50989" lon="3.49035">
        <ele>1045</ele>
        <time>2016-04-27T06:55:22Z</time>
      </trkpt>
      <trkpt lat="44.50995" lon="3.49048">
        <ele>1046</ele>
        <time>2016-04-27T06:55:32Z</time>
      </trkpt>
      <trkpt lat="44.50999" lon="3.49059">
        <ele>1046</ele>
        <time>2016-04-27T06:55:40Z</time>
      </trkpt>
      <trkpt lat="44.51" lon="3.49066">
        <ele>1047</ele>
        <time>2016-04-27T06:55:45Z</time>
      </trkpt>
      <trkpt lat="44.50997" lon="3.49072">
        <ele>1048</ele>
        <time>2016-04-27T06:55:51Z</time>
      </trkpt>
      <trkpt lat="44.50993" lon="3.49077">
        <ele>1049</ele>
        <time>2016-04-27T06:55:58Z</time>
      </trkpt>
      <trkpt lat="44.50995" lon="3.49084">
        <ele>1050</ele>
        <time>2016-04-27T06:56:03Z</time>
      </trkpt>
      <trkpt lat="44.50994" lon="3.49091">
        <ele>1050</ele>
        <time>2016-04-27T06:56:09Z</time>
      </trkpt>
      <trkpt lat="44.50992" lon="3.49097">
        <ele>1053</ele>
        <time>2016-04-27T06:56:16Z</time>
      </trkpt>
      <trkpt lat="44.50991" lon="3.49112">
        <ele>1058</ele>
        <time>2016-04-27T06:56:28Z</time>
      </trkpt>
      <trkpt lat="44.5099" lon="3.49119">
        <ele>1058</ele>
        <time>2016-04-27T06:56:33Z</time>
      </trkpt>
      <trkpt lat="44.50988" lon="3.49125">
        <ele>1057</ele>
        <time>2016-04-27T06:56:37Z</time>
      </trkpt>
      <trkpt lat="44.50986" lon="3.49132">
        <ele>1058</ele>
        <time>2016-04-27T06:56:42Z</time>
      </trkpt>
      <trkpt lat="44.50986" lon="3.49139">
        <ele>1058</ele>
        <time>2016-04-27T06:56:46Z</time>
      </trkpt>
      <trkpt lat="44.50985" lon="3.49153">
        <ele>1057</ele>
        <time>2016-04-27T06:56:54Z</time>
      </trkpt>
      <trkpt lat="44.50983" lon="3.49166">
        <ele>1063</ele>
        <time>2016-04-27T06:57:05Z</time>
      </trkpt>
      <trkpt lat="44.50981" lon="3.49172">
        <ele>1063</ele>
        <time>2016-04-27T06:57:10Z</time>
      </trkpt>
      <trkpt lat="44.50982" lon="3.49179">
        <ele>1059</ele>
        <time>2016-04-27T06:58:12Z</time>
      </trkpt>
      <trkpt lat="44.50979" lon="3.49192">
        <ele>1056</ele>
        <time>2016-04-27T06:58:21Z</time>
      </trkpt>
      <trkpt lat="44.50977" lon="3.49205">
        <ele>1059</ele>
        <time>2016-04-27T06:58:32Z</time>
      </trkpt>
      <trkpt lat="44.50978" lon="3.49225">
        <ele>1056</ele>
        <time>2016-04-27T06:58:42Z</time>
      </trkpt>
      <trkpt lat="44.50979" lon="3.49232">
        <ele>1056</ele>
        <time>2016-04-27T06:58:45Z</time>
      </trkpt>
      <trkpt lat="44.50984" lon="3.49244">
        <ele>1055</ele>
        <time>2016-04-27T06:58:52Z</time>
      </trkpt>
      <trkpt lat="44.50986" lon="3.49257">
        <ele>1056</ele>
        <time>2016-04-27T06:59:01Z</time>
      </trkpt>
      <trkpt lat="44.50987" lon="3.49264">
        <ele>1056</ele>
        <time>2016-04-27T06:59:05Z</time>
      </trkpt>
      <trkpt lat="44.50986" lon="3.49279">
        <ele>1055</ele>
        <time>2016-04-27T06:59:16Z</time>
      </trkpt>
      <trkpt lat="44.50988" lon="3.49285">
        <ele>1055</ele>
        <time>2016-04-27T06:59:20Z</time>
      </trkpt>
      <trkpt lat="44.50994" lon="3.49319">
        <ele>1058</ele>
        <time>2016-04-27T06:59:42Z</time>
      </trkpt>
      <trkpt lat="44.50998" lon="3.49322">
        <ele>1058</ele>
        <time>2016-04-27T06:59:46Z</time>
      </trkpt>
      <trkpt lat="44.51002" lon="3.49326">
        <ele>1058</ele>
        <time>2016-04-27T06:59:51Z</time>
      </trkpt>
      <trkpt lat="44.51002" lon="3.49331">
        <ele>1059</ele>
        <time>2016-04-27T07:00:04Z</time>
      </trkpt>
      <trkpt lat="44.51001" lon="3.49335">
        <ele>1061</ele>
        <time>2016-04-27T07:00:30Z</time>
      </trkpt>
      <trkpt lat="44.51002" lon="3.49343">
        <ele>1062</ele>
        <time>2016-04-27T07:00:35Z</time>
      </trkpt>
      <trkpt lat="44.51003" lon="3.49349">
        <ele>1061</ele>
        <time>2016-04-27T07:00:39Z</time>
      </trkpt>
      <trkpt lat="44.51005" lon="3.49356">
        <ele>1061</ele>
        <time>2016-04-27T07:00:43Z</time>
      </trkpt>
      <trkpt lat="44.51007" lon="3.49369">
        <ele>1062</ele>
        <time>2016-04-27T07:00:53Z</time>
      </trkpt>
      <trkpt lat="44.51008" lon="3.49375">
        <ele>1061</ele>
        <time>2016-04-27T07:00:57Z</time>
      </trkpt>
      <trkpt lat="44.51011" lon="3.49389">
        <ele>1064</ele>
        <time>2016-04-27T07:01:09Z</time>
      </trkpt>
      <trkpt lat="44.51014" lon="3.49394">
        <ele>1065</ele>
        <time>2016-04-27T07:01:15Z</time>
      </trkpt>
      <trkpt lat="44.51018" lon="3.49399">
        <ele>1064</ele>
        <time>2016-04-27T07:01:22Z</time>
      </trkpt>
      <trkpt lat="44.51022" lon="3.494">
        <ele>1065</ele>
        <time>2016-04-27T07:01:27Z</time>
      </trkpt>
      <trkpt lat="44.51027" lon="3.49402">
        <ele>1065</ele>
        <time>2016-04-27T07:01:32Z</time>
      </trkpt>
      <trkpt lat="44.51035" lon="3.49408">
        <ele>1066</ele>
        <time>2016-04-27T07:01:43Z</time>
      </trkpt>
      <trkpt lat="44.51053" lon="3.49429">
        <ele>1063</ele>
        <time>2016-04-27T07:02:14Z</time>
      </trkpt>
      <trkpt lat="44.51051" lon="3.49423">
        <ele>1063</ele>
        <time>2016-04-27T07:02:20Z</time>
      </trkpt>
      <trkpt lat="44.51051" lon="3.49419">
        <ele>1063</ele>
        <time>2016-04-27T07:02:26Z</time>
      </trkpt>
      <trkpt lat="44.51055" lon="3.49416">
        <ele>1063</ele>
        <time>2016-04-27T07:02:37Z</time>
      </trkpt>
      <trkpt lat="44.51052" lon="3.49411">
        <ele>1065</ele>
        <time>2016-04-27T07:03:59Z</time>
      </trkpt>
      <trkpt lat="44.51047" lon="3.4941">
        <ele>1065</ele>
        <time>2016-04-27T07:04:04Z</time>
      </trkpt>
      <trkpt lat="44.51044" lon="3.49406">
        <ele>1065</ele>
        <time>2016-04-27T07:04:09Z</time>
      </trkpt>
      <trkpt lat="44.51041" lon="3.49409">
        <ele>1064</ele>
        <time>2016-04-27T07:04:37Z</time>
      </trkpt>
      <trkpt lat="44.51037" lon="3.49423">
        <ele>1064</ele>
        <time>2016-04-27T07:04:50Z</time>
      </trkpt>
      <trkpt lat="44.51037" lon="3.49429">
        <ele>1064</ele>
        <time>2016-04-27T07:04:56Z</time>
      </trkpt>
      <trkpt lat="44.51035" lon="3.49435">
        <ele>1064</ele>
        <time>2016-04-27T07:05:03Z</time>
      </trkpt>
      <trkpt lat="44.51033" lon="3.49441">
        <ele>1064</ele>
        <time>2016-04-27T07:05:09Z</time>
      </trkpt>
      <trkpt lat="44.51033" lon="3.49445">
        <ele>1062</ele>
        <time>2016-04-27T07:06:45Z</time>
      </trkpt>
      <trkpt lat="44.51029" lon="3.49446">
        <ele>1062</ele>
        <time>2016-04-27T07:06:54Z</time>
      </trkpt>
      <trkpt lat="44.51023" lon="3.49449">
        <ele>1063</ele>
        <time>2016-04-27T07:08:10Z</time>
      </trkpt>
      <trkpt lat="44.51007" lon="3.49475">
        <ele>1069</ele>
        <time>2016-04-27T07:08:41Z</time>
      </trkpt>
      <trkpt lat="44.51001" lon="3.49487">
        <ele>1072</ele>
        <time>2016-04-27T07:08:53Z</time>
      </trkpt>
      <trkpt lat="44.50998" lon="3.49492">
        <ele>1071</ele>
        <time>2016-04-27T07:08:57Z</time>
      </trkpt>
      <trkpt lat="44.50994" lon="3.49496">
        <ele>1071</ele>
        <time>2016-04-27T07:09:02Z</time>
      </trkpt>
      <trkpt lat="44.5099" lon="3.495">
        <ele>1073</ele>
        <time>2016-04-27T07:09:08Z</time>
      </trkpt>
      <trkpt lat="44.50968" lon="3.49528">
        <ele>1066</ele>
        <time>2016-04-27T07:09:34Z</time>
      </trkpt>
      <trkpt lat="44.50964" lon="3.49532">
        <ele>1066</ele>
        <time>2016-04-27T07:09:38Z</time>
      </trkpt>
      <trkpt lat="44.50958" lon="3.49544">
        <ele>1071</ele>
        <time>2016-04-27T07:09:49Z</time>
      </trkpt>
      <trkpt lat="44.50955" lon="3.49549">
        <ele>1071</ele>
        <time>2016-04-27T07:09:54Z</time>
      </trkpt>
      <trkpt lat="44.50951" lon="3.49553">
        <ele>1070</ele>
        <time>2016-04-27T07:09:58Z</time>
      </trkpt>
      <trkpt lat="44.50949" lon="3.49559">
        <ele>1070</ele>
        <time>2016-04-27T07:10:02Z</time>
      </trkpt>
      <trkpt lat="44.50924" lon="3.49594">
        <ele>1063</ele>
        <time>2016-04-27T07:10:36Z</time>
      </trkpt>
      <trkpt lat="44.50922" lon="3.496">
        <ele>1061</ele>
        <time>2016-04-27T07:10:41Z</time>
      </trkpt>
      <trkpt lat="44.50918" lon="3.49602">
        <ele>1060</ele>
        <time>2016-04-27T07:10:46Z</time>
      </trkpt>
      <trkpt lat="44.50913" lon="3.49605">
        <ele>1060</ele>
        <time>2016-04-27T07:10:50Z</time>
      </trkpt>
      <trkpt lat="44.50909" lon="3.4961">
        <ele>1058</ele>
        <time>2016-04-27T07:10:53Z</time>
      </trkpt>
      <trkpt lat="44.50904" lon="3.49614">
        <ele>1058</ele>
        <time>2016-04-27T07:10:57Z</time>
      </trkpt>
      <trkpt lat="44.50899" lon="3.49618">
        <ele>1059</ele>
        <time>2016-04-27T07:11:03Z</time>
      </trkpt>
      <trkpt lat="44.50898" lon="3.49621">
        <ele>1059</ele>
        <time>2016-04-27T07:11:09Z</time>
      </trkpt>
      <trkpt lat="44.50898" lon="3.49624">
        <ele>1057</ele>
        <time>2016-04-27T07:11:52Z</time>
      </trkpt>
      <trkpt lat="44.50895" lon="3.49631">
        <ele>1057</ele>
        <time>2016-04-27T07:11:57Z</time>
      </trkpt>
      <trkpt lat="44.50893" lon="3.49636">
        <ele>1057</ele>
        <time>2016-04-27T07:12:03Z</time>
      </trkpt>
      <trkpt lat="44.50874" lon="3.49669">
        <ele>1050</ele>
        <time>2016-04-27T07:12:33Z</time>
      </trkpt>
      <trkpt lat="44.5087" lon="3.49683">
        <ele>1050</ele>
        <time>2016-04-27T07:12:43Z</time>
      </trkpt>
      <trkpt lat="44.50864" lon="3.49696">
        <ele>1048</ele>
        <time>2016-04-27T07:12:54Z</time>
      </trkpt>
      <trkpt lat="44.5086" lon="3.49701">
        <ele>1050</ele>
        <time>2016-04-27T07:13:00Z</time>
      </trkpt>
      <trkpt lat="44.50858" lon="3.49707">
        <ele>1051</ele>
        <time>2016-04-27T07:13:05Z</time>
      </trkpt>
      <trkpt lat="44.50854" lon="3.49718">
        <ele>1048</ele>
        <time>2016-04-27T07:13:14Z</time>
      </trkpt>
      <trkpt lat="44.50853" lon="3.49725">
        <ele>1048</ele>
        <time>2016-04-27T07:13:21Z</time>
      </trkpt>
      <trkpt lat="44.50853" lon="3.49732">
        <ele>1048</ele>
        <time>2016-04-27T07:13:27Z</time>
      </trkpt>
      <trkpt lat="44.5085" lon="3.49736">
        <ele>1048</ele>
        <time>2016-04-27T07:13:32Z</time>
      </trkpt>
      <trkpt lat="44.50841" lon="3.49745">
        <ele>1048</ele>
        <time>2016-04-27T07:13:43Z</time>
      </trkpt>
      <trkpt lat="44.50838" lon="3.4975">
        <ele>1048</ele>
        <time>2016-04-27T07:13:48Z</time>
      </trkpt>
      <trkpt lat="44.50835" lon="3.49756">
        <ele>1047</ele>
        <time>2016-04-27T07:13:53Z</time>
      </trkpt>
      <trkpt lat="44.50834" lon="3.49763">
        <ele>1048</ele>
        <time>2016-04-27T07:13:57Z</time>
      </trkpt>
      <trkpt lat="44.50831" lon="3.49768">
        <ele>1048</ele>
        <time>2016-04-27T07:14:03Z</time>
      </trkpt>
      <trkpt lat="44.5083" lon="3.49775">
        <ele>1047</ele>
        <time>2016-04-27T07:14:08Z</time>
      </trkpt>
      <trkpt lat="44.50826" lon="3.49788">
        <ele>1043</ele>
        <time>2016-04-27T07:14:23Z</time>
      </trkpt>
      <trkpt lat="44.50827" lon="3.49796">
        <ele>1042</ele>
        <time>2016-04-27T07:14:28Z</time>
      </trkpt>
      <trkpt lat="44.50828" lon="3.49803">
        <ele>1042</ele>
        <time>2016-04-27T07:14:33Z</time>
      </trkpt>
      <trkpt lat="44.50841" lon="3.49852">
        <ele>1034</ele>
        <time>2016-04-27T07:15:07Z</time>
      </trkpt>
      <trkpt lat="44.50844" lon="3.49858">
        <ele>1035</ele>
        <time>2016-04-27T07:15:15Z</time>
      </trkpt>
      <trkpt lat="44.50843" lon="3.49865">
        <ele>1036</ele>
        <time>2016-04-27T07:15:23Z</time>
      </trkpt>
      <trkpt lat="44.50849" lon="3.49905">
        <ele>1028</ele>
        <time>2016-04-27T07:15:52Z</time>
      </trkpt>
      <trkpt lat="44.50845" lon="3.49917">
        <ele>1029</ele>
        <time>2016-04-27T07:16:02Z</time>
      </trkpt>
      <trkpt lat="44.50843" lon="3.49923">
        <ele>1028</ele>
        <time>2016-04-27T07:16:06Z</time>
      </trkpt>
      <trkpt lat="44.5084" lon="3.49929">
        <ele>1026</ele>
        <time>2016-04-27T07:16:10Z</time>
      </trkpt>
      <trkpt lat="44.50831" lon="3.49935">
        <ele>1023</ele>
        <time>2016-04-27T07:16:20Z</time>
      </trkpt>
      <trkpt lat="44.50825" lon="3.49946">
        <ele>1023</ele>
        <time>2016-04-27T07:16:31Z</time>
      </trkpt>
      <trkpt lat="44.50823" lon="3.49952">
        <ele>1022</ele>
        <time>2016-04-27T07:16:37Z</time>
      </trkpt>
      <trkpt lat="44.50823" lon="3.49956">
        <ele>1022</ele>
        <time>2016-04-27T07:16:54Z</time>
      </trkpt>
      <trkpt lat="44.50818" lon="3.49959">
        <ele>1022</ele>
        <time>2016-04-27T07:17:00Z</time>
      </trkpt>
      <trkpt lat="44.50814" lon="3.49962">
        <ele>1023</ele>
        <time>2016-04-27T07:17:08Z</time>
      </trkpt>
      <trkpt lat="44.50813" lon="3.49969">
        <ele>1024</ele>
        <time>2016-04-27T07:17:14Z</time>
      </trkpt>
      <trkpt lat="44.5081" lon="3.49975">
        <ele>1024</ele>
        <time>2016-04-27T07:17:18Z</time>
      </trkpt>
      <trkpt lat="44.50793" lon="3.50007">
        <ele>1016</ele>
        <time>2016-04-27T07:17:51Z</time>
      </trkpt>
      <trkpt lat="44.5079" lon="3.50013">
        <ele>1015</ele>
        <time>2016-04-27T07:17:57Z</time>
      </trkpt>
      <trkpt lat="44.50786" lon="3.50017">
        <ele>1015</ele>
        <time>2016-04-27T07:18:02Z</time>
      </trkpt>
      <trkpt lat="44.50783" lon="3.50023">
        <ele>1015</ele>
        <time>2016-04-27T07:18:06Z</time>
      </trkpt>
      <trkpt lat="44.50781" lon="3.5003">
        <ele>1015</ele>
        <time>2016-04-27T07:18:11Z</time>
      </trkpt>
      <trkpt lat="44.50778" lon="3.50035">
        <ele>1015</ele>
        <time>2016-04-27T07:18:16Z</time>
      </trkpt>
      <trkpt lat="44.50775" lon="3.5004">
        <ele>1014</ele>
        <time>2016-04-27T07:18:23Z</time>
      </trkpt>
      <trkpt lat="44.50775" lon="3.50047">
        <ele>1013</ele>
        <time>2016-04-27T07:18:30Z</time>
      </trkpt>
      <trkpt lat="44.50772" lon="3.50052">
        <ele>1012</ele>
        <time>2016-04-27T07:18:39Z</time>
      </trkpt>
      <trkpt lat="44.50767" lon="3.50055">
        <ele>1009</ele>
        <time>2016-04-27T07:18:58Z</time>
      </trkpt>
      <trkpt lat="44.50765" lon="3.50054">
        <ele>1009</ele>
        <time>2016-04-27T07:19:09Z</time>
      </trkpt>
      <trkpt lat="44.50762" lon="3.50051">
        <ele>1008</ele>
        <time>2016-04-27T07:19:21Z</time>
      </trkpt>
      <trkpt lat="44.5076" lon="3.50046">
        <ele>1006</ele>
        <time>2016-04-27T07:19:31Z</time>
      </trkpt>
      <trkpt lat="44.50756" lon="3.50045">
        <ele>1003</ele>
        <time>2016-04-27T07:19:40Z</time>
      </trkpt>
      <trkpt lat="44.50748" lon="3.50042">
        <ele>1002</ele>
        <time>2016-04-27T07:19:54Z</time>
      </trkpt>
      <trkpt lat="44.50743" lon="3.50044">
        <ele>1000</ele>
        <time>2016-04-27T07:20:02Z</time>
      </trkpt>
      <trkpt lat="44.50738" lon="3.50045">
        <ele>1000</ele>
        <time>2016-04-27T07:20:11Z</time>
      </trkpt>
      <trkpt lat="44.50724" lon="3.50046">
        <ele>1003</ele>
        <time>2016-04-27T07:20:32Z</time>
      </trkpt>
      <trkpt lat="44.50724" lon="3.50049">
        <ele>1003</ele>
        <time>2016-04-27T07:20:38Z</time>
      </trkpt>
      <trkpt lat="44.5072" lon="3.50052">
        <ele>1009</ele>
        <time>2016-04-27T07:20:58Z</time>
      </trkpt>
      <trkpt lat="44.50709" lon="3.50054">
        <ele>1012</ele>
        <time>2016-04-27T07:21:16Z</time>
      </trkpt>
      <trkpt lat="44.50699" lon="3.50052">
        <ele>1013</ele>
        <time>2016-04-27T07:21:28Z</time>
      </trkpt>
      <trkpt lat="44.50695" lon="3.50053">
        <ele>1013</ele>
        <time>2016-04-27T07:21:33Z</time>
      </trkpt>
      <trkpt lat="44.50681" lon="3.5006">
        <ele>1012</ele>
        <time>2016-04-27T07:21:52Z</time>
      </trkpt>
      <trkpt lat="44.5067" lon="3.50073">
        <ele>1019</ele>
        <time>2016-04-27T07:22:19Z</time>
      </trkpt>
      <trkpt lat="44.50669" lon="3.5008">
        <ele>1019</ele>
        <time>2016-04-27T07:22:25Z</time>
      </trkpt>
      <trkpt lat="44.50671" lon="3.50085">
        <ele>1018</ele>
        <time>2016-04-27T07:22:29Z</time>
      </trkpt>
      <trkpt lat="44.50676" lon="3.50089">
        <ele>1018</ele>
        <time>2016-04-27T07:22:34Z</time>
      </trkpt>
      <trkpt lat="44.50674" lon="3.50096">
        <ele>1017</ele>
        <time>2016-04-27T07:22:43Z</time>
      </trkpt>
      <trkpt lat="44.50678" lon="3.50107">
        <ele>1015</ele>
        <time>2016-04-27T07:22:54Z</time>
      </trkpt>
      <trkpt lat="44.50675" lon="3.50114">
        <ele>1014</ele>
        <time>2016-04-27T07:23:00Z</time>
      </trkpt>
      <trkpt lat="44.50671" lon="3.50118">
        <ele>1015</ele>
        <time>2016-04-27T07:23:09Z</time>
      </trkpt>
      <trkpt lat="44.50667" lon="3.50121">
        <ele>1014</ele>
        <time>2016-04-27T07:23:16Z</time>
      </trkpt>
      <trkpt lat="44.50663" lon="3.50125">
        <ele>1013</ele>
        <time>2016-04-27T07:23:22Z</time>
      </trkpt>
      <trkpt lat="44.50661" lon="3.50131">
        <ele>1015</ele>
        <time>2016-04-27T07:23:28Z</time>
      </trkpt>
      <trkpt lat="44.50658" lon="3.50136">
        <ele>1015</ele>
        <time>2016-04-27T07:23:33Z</time>
      </trkpt>
      <trkpt lat="44.50656" lon="3.50143">
        <ele>1016</ele>
        <time>2016-04-27T07:23:39Z</time>
      </trkpt>
      <trkpt lat="44.50652" lon="3.50147">
        <ele>1016</ele>
        <time>2016-04-27T07:23:43Z</time>
      </trkpt>
      <trkpt lat="44.50648" lon="3.50149">
        <ele>1018</ele>
        <time>2016-04-27T07:23:47Z</time>
      </trkpt>
      <trkpt lat="44.50645" lon="3.50153">
        <ele>1018</ele>
        <time>2016-04-27T07:23:52Z</time>
      </trkpt>
      <trkpt lat="44.50641" lon="3.50157">
        <ele>1018</ele>
        <time>2016-04-27T07:23:58Z</time>
      </trkpt>
      <trkpt lat="44.50632" lon="3.50164">
        <ele>1020</ele>
        <time>2016-04-27T07:24:08Z</time>
      </trkpt>
      <trkpt lat="44.5063" lon="3.5017">
        <ele>1019</ele>
        <time>2016-04-27T07:24:13Z</time>
      </trkpt>
      <trkpt lat="44.50625" lon="3.50172">
        <ele>1020</ele>
        <time>2016-04-27T07:24:18Z</time>
      </trkpt>
      <trkpt lat="44.50615" lon="3.50174">
        <ele>1022</ele>
        <time>2016-04-27T07:24:27Z</time>
      </trkpt>
      <trkpt lat="44.50593" lon="3.50204">
        <ele>1031</ele>
        <time>2016-04-27T07:24:54Z</time>
      </trkpt>
      <trkpt lat="44.50577" lon="3.50223">
        <ele>1031</ele>
        <time>2016-04-27T07:25:11Z</time>
      </trkpt>
      <trkpt lat="44.50574" lon="3.50229">
        <ele>1032</ele>
        <time>2016-04-27T07:25:15Z</time>
      </trkpt>
      <trkpt lat="44.50571" lon="3.50242">
        <ele>1033</ele>
        <time>2016-04-27T07:25:25Z</time>
      </trkpt>
      <trkpt lat="44.50568" lon="3.50248">
        <ele>1034</ele>
        <time>2016-04-27T07:25:30Z</time>
      </trkpt>
      <trkpt lat="44.50566" lon="3.50254">
        <ele>1034</ele>
        <time>2016-04-27T07:25:34Z</time>
      </trkpt>
      <trkpt lat="44.50546" lon="3.50294">
        <ele>1027</ele>
        <time>2016-04-27T07:26:04Z</time>
      </trkpt>
      <trkpt lat="44.50541" lon="3.50306">
        <ele>1026</ele>
        <time>2016-04-27T07:26:12Z</time>
      </trkpt>
      <trkpt lat="44.50526" lon="3.50325">
        <ele>1029</ele>
        <time>2016-04-27T07:26:28Z</time>
      </trkpt>
      <trkpt lat="44.50522" lon="3.50331">
        <ele>1029</ele>
        <time>2016-04-27T07:26:32Z</time>
      </trkpt>
      <trkpt lat="44.50519" lon="3.50337">
        <ele>1029</ele>
        <time>2016-04-27T07:26:38Z</time>
      </trkpt>
      <trkpt lat="44.50515" lon="3.5034">
        <ele>1029</ele>
        <time>2016-04-27T07:26:43Z</time>
      </trkpt>
      <trkpt lat="44.5051" lon="3.50343">
        <ele>1031</ele>
        <time>2016-04-27T07:26:49Z</time>
      </trkpt>
      <trkpt lat="44.50508" lon="3.5035">
        <ele>1030</ele>
        <time>2016-04-27T07:26:54Z</time>
      </trkpt>
      <trkpt lat="44.50506" lon="3.50357">
        <ele>1028</ele>
        <time>2016-04-27T07:26:59Z</time>
      </trkpt>
      <trkpt lat="44.50504" lon="3.50362">
        <ele>1028</ele>
        <time>2016-04-27T07:27:05Z</time>
      </trkpt>
      <trkpt lat="44.50503" lon="3.50377">
        <ele>1027</ele>
        <time>2016-04-27T07:27:15Z</time>
      </trkpt>
      <trkpt lat="44.50506" lon="3.50383">
        <ele>1028</ele>
        <time>2016-04-27T07:27:20Z</time>
      </trkpt>
      <trkpt lat="44.50507" lon="3.50389">
        <ele>1028</ele>
        <time>2016-04-27T07:27:27Z</time>
      </trkpt>
      <trkpt lat="44.50519" lon="3.50402">
        <ele>1028</ele>
        <time>2016-04-27T07:27:42Z</time>
      </trkpt>
      <trkpt lat="44.50528" lon="3.50408">
        <ele>1027</ele>
        <time>2016-04-27T07:27:51Z</time>
      </trkpt>
      <trkpt lat="44.50528" lon="3.50411">
        <ele>1026</ele>
        <time>2016-04-27T07:28:02Z</time>
      </trkpt>
      <trkpt lat="44.50551" lon="3.50423">
        <ele>1026</ele>
        <time>2016-04-27T07:28:47Z</time>
      </trkpt>
      <trkpt lat="44.50546" lon="3.5042">
        <ele>1028</ele>
        <time>2016-04-27T07:28:59Z</time>
      </trkpt>
      <trkpt lat="44.5054" lon="3.5041">
        <ele>1029</ele>
        <time>2016-04-27T07:29:06Z</time>
      </trkpt>
      <trkpt lat="44.50536" lon="3.50412">
        <ele>1038</ele>
        <time>2016-04-27T07:29:27Z</time>
      </trkpt>
      <trkpt lat="44.50532" lon="3.50416">
        <ele>1039</ele>
        <time>2016-04-27T07:29:28Z</time>
      </trkpt>
      <trkpt lat="44.50532" lon="3.50416">
        <ele>1032</ele>
        <time>2016-04-27T07:30:08Z</time>
      </trkpt>
      <trkpt lat="44.50537" lon="3.50414">
        <ele>1031</ele>
        <time>2016-04-27T07:30:18Z</time>
      </trkpt>
      <trkpt lat="44.5054" lon="3.50419">
        <ele>1029</ele>
        <time>2016-04-27T07:30:27Z</time>
      </trkpt>
      <trkpt lat="44.50543" lon="3.50425">
        <ele>1027</ele>
        <time>2016-04-27T07:30:32Z</time>
      </trkpt>
      <trkpt lat="44.50549" lon="3.50436">
        <ele>1026</ele>
        <time>2016-04-27T07:30:42Z</time>
      </trkpt>
      <trkpt lat="44.50548" lon="3.50449">
        <ele>1025</ele>
        <time>2016-04-27T07:30:51Z</time>
      </trkpt>
      <trkpt lat="44.50548" lon="3.50456">
        <ele>1025</ele>
        <time>2016-04-27T07:30:57Z</time>
      </trkpt>
      <trkpt lat="44.50546" lon="3.50463">
        <ele>1025</ele>
        <time>2016-04-27T07:31:02Z</time>
      </trkpt>
      <trkpt lat="44.50543" lon="3.50468">
        <ele>1024</ele>
        <time>2016-04-27T07:31:06Z</time>
      </trkpt>
      <trkpt lat="44.50543" lon="3.50475">
        <ele>1023</ele>
        <time>2016-04-27T07:31:12Z</time>
      </trkpt>
      <trkpt lat="44.50544" lon="3.50482">
        <ele>1024</ele>
        <time>2016-04-27T07:31:19Z</time>
      </trkpt>
      <trkpt lat="44.50542" lon="3.50492">
        <ele>1028</ele>
        <time>2016-04-27T07:31:35Z</time>
      </trkpt>
      <trkpt lat="44.5054" lon="3.50505">
        <ele>1026</ele>
        <time>2016-04-27T07:31:44Z</time>
      </trkpt>
      <trkpt lat="44.50539" lon="3.50511">
        <ele>1026</ele>
        <time>2016-04-27T07:31:50Z</time>
      </trkpt>
      <trkpt lat="44.5054" lon="3.50533">
        <ele>1023</ele>
        <time>2016-04-27T07:32:06Z</time>
      </trkpt>
      <trkpt lat="44.50538" lon="3.50539">
        <ele>1021</ele>
        <time>2016-04-27T07:32:11Z</time>
      </trkpt>
      <trkpt lat="44.5054" lon="3.50545">
        <ele>1021</ele>
        <time>2016-04-27T07:32:16Z</time>
      </trkpt>
      <trkpt lat="44.50541" lon="3.50552">
        <ele>1022</ele>
        <time>2016-04-27T07:32:22Z</time>
      </trkpt>
      <trkpt lat="44.5054" lon="3.50558">
        <ele>1022</ele>
        <time>2016-04-27T07:32:28Z</time>
      </trkpt>
      <trkpt lat="44.5054" lon="3.50574">
        <ele>1025</ele>
        <time>2016-04-27T07:32:38Z</time>
      </trkpt>
      <trkpt lat="44.50539" lon="3.5058">
        <ele>1025</ele>
        <time>2016-04-27T07:32:42Z</time>
      </trkpt>
      <trkpt lat="44.50529" lon="3.50606">
        <ele>1019</ele>
        <time>2016-04-27T07:32:56Z</time>
      </trkpt>
      <trkpt lat="44.5053" lon="3.50614">
        <ele>1020</ele>
        <time>2016-04-27T07:33:02Z</time>
      </trkpt>
      <trkpt lat="44.50537" lon="3.50625">
        <ele>1023</ele>
        <time>2016-04-27T07:33:13Z</time>
      </trkpt>
      <trkpt lat="44.50536" lon="3.50638">
        <ele>1024</ele>
        <time>2016-04-27T07:33:24Z</time>
      </trkpt>
      <trkpt lat="44.50538" lon="3.50644">
        <ele>1026</ele>
        <time>2016-04-27T07:33:31Z</time>
      </trkpt>
      <trkpt lat="44.50537" lon="3.5065">
        <ele>1026</ele>
        <time>2016-04-27T07:33:36Z</time>
      </trkpt>
      <trkpt lat="44.50534" lon="3.50657">
        <ele>1027</ele>
        <time>2016-04-27T07:33:41Z</time>
      </trkpt>
      <trkpt lat="44.50525" lon="3.50664">
        <ele>1027</ele>
        <time>2016-04-27T07:33:49Z</time>
      </trkpt>
      <trkpt lat="44.50521" lon="3.50667">
        <ele>1027</ele>
        <time>2016-04-27T07:33:52Z</time>
      </trkpt>
      <trkpt lat="44.50519" lon="3.50674">
        <ele>1026</ele>
        <time>2016-04-27T07:33:56Z</time>
      </trkpt>
      <trkpt lat="44.5052" lon="3.50681">
        <ele>1026</ele>
        <time>2016-04-27T07:34:00Z</time>
      </trkpt>
      <trkpt lat="44.50522" lon="3.50688">
        <ele>1028</ele>
        <time>2016-04-27T07:34:05Z</time>
      </trkpt>
      <trkpt lat="44.5052" lon="3.50695">
        <ele>1028</ele>
        <time>2016-04-27T07:34:10Z</time>
      </trkpt>
      <trkpt lat="44.50519" lon="3.50701">
        <ele>1028</ele>
        <time>2016-04-27T07:34:14Z</time>
      </trkpt>
      <trkpt lat="44.5052" lon="3.50708">
        <ele>1028</ele>
        <time>2016-04-27T07:34:18Z</time>
      </trkpt>
      <trkpt lat="44.50525" lon="3.50719">
        <ele>1031</ele>
        <time>2016-04-27T07:34:29Z</time>
      </trkpt>
      <trkpt lat="44.5052" lon="3.50723">
        <ele>1032</ele>
        <time>2016-04-27T07:34:34Z</time>
      </trkpt>
      <trkpt lat="44.50517" lon="3.50728">
        <ele>1032</ele>
        <time>2016-04-27T07:34:42Z</time>
      </trkpt>
      <trkpt lat="44.50518" lon="3.50732">
        <ele>1033</ele>
        <time>2016-04-27T07:34:48Z</time>
      </trkpt>
      <trkpt lat="44.5053" lon="3.50762">
        <ele>1039</ele>
        <time>2016-04-27T07:35:16Z</time>
      </trkpt>
      <trkpt lat="44.50534" lon="3.50765">
        <ele>1038</ele>
        <time>2016-04-27T07:35:26Z</time>
      </trkpt>
      <trkpt lat="44.50538" lon="3.50783">
        <ele>1035</ele>
        <time>2016-04-27T07:35:47Z</time>
      </trkpt>
      <trkpt lat="44.50533" lon="3.5078">
        <ele>1034</ele>
        <time>2016-04-27T07:35:51Z</time>
      </trkpt>
      <trkpt lat="44.50528" lon="3.50777">
        <ele>1033</ele>
        <time>2016-04-27T07:35:56Z</time>
      </trkpt>
      <trkpt lat="44.50525" lon="3.50774">
        <ele>1035</ele>
        <time>2016-04-27T07:36:16Z</time>
      </trkpt>
      <trkpt lat="44.50524" lon="3.50768">
        <ele>1033</ele>
        <time>2016-04-27T07:36:27Z</time>
      </trkpt>
      <trkpt lat="44.50525" lon="3.50758">
        <ele>1033</ele>
        <time>2016-04-27T07:36:39Z</time>
      </trkpt>
      <trkpt lat="44.50526" lon="3.50756">
        <ele>1033</ele>
        <time>2016-04-27T07:36:45Z</time>
      </trkpt>
      <trkpt lat="44.50531" lon="3.50754">
        <ele>1034</ele>
        <time>2016-04-27T07:36:50Z</time>
      </trkpt>
      <trkpt lat="44.50546" lon="3.50731">
        <ele>1037</ele>
        <time>2016-04-27T07:37:29Z</time>
      </trkpt>
      <trkpt lat="44.50556" lon="3.50735">
        <ele>1035</ele>
        <time>2016-04-27T07:37:46Z</time>
      </trkpt>
      <trkpt lat="44.50565" lon="3.50737">
        <ele>1035</ele>
        <time>2016-04-27T07:37:56Z</time>
      </trkpt>
      <trkpt lat="44.50601" lon="3.50739">
        <ele>1039</ele>
        <time>2016-04-27T07:38:27Z</time>
      </trkpt>
      <trkpt lat="44.50604" lon="3.50744">
        <ele>1039</ele>
        <time>2016-04-27T07:38:31Z</time>
      </trkpt>
      <trkpt lat="44.50608" lon="3.50747">
        <ele>1038</ele>
        <time>2016-04-27T07:38:35Z</time>
      </trkpt>
      <trkpt lat="44.50613" lon="3.50749">
        <ele>1038</ele>
        <time>2016-04-27T07:38:39Z</time>
      </trkpt>
      <trkpt lat="44.50627" lon="3.50757">
        <ele>1036</ele>
        <time>2016-04-27T07:38:51Z</time>
      </trkpt>
      <trkpt lat="44.50641" lon="3.50762">
        <ele>1037</ele>
        <time>2016-04-27T07:39:04Z</time>
      </trkpt>
      <trkpt lat="44.50661" lon="3.50766">
        <ele>1043</ele>
        <time>2016-04-27T07:39:27Z</time>
      </trkpt>
      <trkpt lat="44.50666" lon="3.50768">
        <ele>1042</ele>
        <time>2016-04-27T07:39:31Z</time>
      </trkpt>
      <trkpt lat="44.5067" lon="3.5077">
        <ele>1041</ele>
        <time>2016-04-27T07:39:36Z</time>
      </trkpt>
      <trkpt lat="44.50675" lon="3.50772">
        <ele>1041</ele>
        <time>2016-04-27T07:39:42Z</time>
      </trkpt>
      <trkpt lat="44.5068" lon="3.50774">
        <ele>1041</ele>
        <time>2016-04-27T07:39:47Z</time>
      </trkpt>
      <trkpt lat="44.50685" lon="3.50777">
        <ele>1041</ele>
        <time>2016-04-27T07:39:52Z</time>
      </trkpt>
      <trkpt lat="44.50689" lon="3.50781">
        <ele>1040</ele>
        <time>2016-04-27T07:39:57Z</time>
      </trkpt>
      <trkpt lat="44.50703" lon="3.50787">
        <ele>1044</ele>
        <time>2016-04-27T07:40:12Z</time>
      </trkpt>
      <trkpt lat="44.50707" lon="3.50791">
        <ele>1043</ele>
        <time>2016-04-27T07:40:19Z</time>
      </trkpt>
      <trkpt lat="44.50712" lon="3.50792">
        <ele>1042</ele>
        <time>2016-04-27T07:40:36Z</time>
      </trkpt>
      <trkpt lat="44.50731" lon="3.50803">
        <ele>1047</ele>
        <time>2016-04-27T07:41:00Z</time>
      </trkpt>
      <trkpt lat="44.50736" lon="3.50804">
        <ele>1047</ele>
        <time>2016-04-27T07:41:05Z</time>
      </trkpt>
      <trkpt lat="44.50741" lon="3.50803">
        <ele>1047</ele>
        <time>2016-04-27T07:41:10Z</time>
      </trkpt>
      <trkpt lat="44.50744" lon="3.50807">
        <ele>1048</ele>
        <time>2016-04-27T07:41:16Z</time>
      </trkpt>
      <trkpt lat="44.50746" lon="3.50809">
        <ele>1048</ele>
        <time>2016-04-27T07:41:22Z</time>
      </trkpt>
      <trkpt lat="44.50747" lon="3.50815">
        <ele>1046</ele>
        <time>2016-04-27T07:41:31Z</time>
      </trkpt>
      <trkpt lat="44.50747" lon="3.50822">
        <ele>1047</ele>
        <time>2016-04-27T07:49:13Z</time>
      </trkpt>
      <trkpt lat="44.50746" lon="3.50829">
        <ele>1047</ele>
        <time>2016-04-27T07:49:19Z</time>
      </trkpt>
      <trkpt lat="44.50748" lon="3.50834">
        <ele>1047</ele>
        <time>2016-04-27T07:49:24Z</time>
      </trkpt>
      <trkpt lat="44.50753" lon="3.50861">
        <ele>1051</ele>
        <time>2016-04-27T07:49:43Z</time>
      </trkpt>
      <trkpt lat="44.50753" lon="3.50869">
        <ele>1052</ele>
        <time>2016-04-27T07:49:48Z</time>
      </trkpt>
      <trkpt lat="44.50751" lon="3.50875">
        <ele>1051</ele>
        <time>2016-04-27T07:49:52Z</time>
      </trkpt>
      <trkpt lat="44.50752" lon="3.50882">
        <ele>1052</ele>
        <time>2016-04-27T07:49:57Z</time>
      </trkpt>
      <trkpt lat="44.50754" lon="3.50895">
        <ele>1052</ele>
        <time>2016-04-27T07:50:07Z</time>
      </trkpt>
      <trkpt lat="44.50753" lon="3.50902">
        <ele>1052</ele>
        <time>2016-04-27T07:50:12Z</time>
      </trkpt>
      <trkpt lat="44.50765" lon="3.50934">
        <ele>1060</ele>
        <time>2016-04-27T07:50:34Z</time>
      </trkpt>
      <trkpt lat="44.50766" lon="3.50947">
        <ele>1059</ele>
        <time>2016-04-27T07:50:43Z</time>
      </trkpt>
      <trkpt lat="44.50771" lon="3.50952">
        <ele>1059</ele>
        <time>2016-04-27T07:50:47Z</time>
      </trkpt>
      <trkpt lat="44.50774" lon="3.50957">
        <ele>1060</ele>
        <time>2016-04-27T07:50:51Z</time>
      </trkpt>
      <trkpt lat="44.50789" lon="3.51002">
        <ele>1055</ele>
        <time>2016-04-27T07:51:22Z</time>
      </trkpt>
      <trkpt lat="44.50793" lon="3.51008">
        <ele>1055</ele>
        <time>2016-04-27T07:51:26Z</time>
      </trkpt>
      <trkpt lat="44.50796" lon="3.51014">
        <ele>1055</ele>
        <time>2016-04-27T07:51:30Z</time>
      </trkpt>
      <trkpt lat="44.50803" lon="3.51027">
        <ele>1058</ele>
        <time>2016-04-27T07:51:38Z</time>
      </trkpt>
      <trkpt lat="44.50803" lon="3.51034">
        <ele>1057</ele>
        <time>2016-04-27T07:51:43Z</time>
      </trkpt>
      <trkpt lat="44.50801" lon="3.5104">
        <ele>1056</ele>
        <time>2016-04-27T07:51:47Z</time>
      </trkpt>
      <trkpt lat="44.50801" lon="3.51046">
        <ele>1055</ele>
        <time>2016-04-27T07:51:51Z</time>
      </trkpt>
      <trkpt lat="44.50804" lon="3.51052">
        <ele>1055</ele>
        <time>2016-04-27T07:51:55Z</time>
      </trkpt>
      <trkpt lat="44.50807" lon="3.51072">
        <ele>1052</ele>
        <time>2016-04-27T07:52:07Z</time>
      </trkpt>
      <trkpt lat="44.50814" lon="3.51084">
        <ele>1052</ele>
        <time>2016-04-27T07:52:15Z</time>
      </trkpt>
      <trkpt lat="44.50816" lon="3.51091">
        <ele>1052</ele>
        <time>2016-04-27T07:52:19Z</time>
      </trkpt>
      <trkpt lat="44.50819" lon="3.51104">
        <ele>1053</ele>
        <time>2016-04-27T07:52:27Z</time>
      </trkpt>
      <trkpt lat="44.50817" lon="3.51111">
        <ele>1052</ele>
        <time>2016-04-27T07:52:31Z</time>
      </trkpt>
      <trkpt lat="44.50816" lon="3.51117">
        <ele>1052</ele>
        <time>2016-04-27T07:52:35Z</time>
      </trkpt>
      <trkpt lat="44.50816" lon="3.51124">
        <ele>1052</ele>
        <time>2016-04-27T07:52:40Z</time>
      </trkpt>
      <trkpt lat="44.5082" lon="3.51127">
        <ele>1052</ele>
        <time>2016-04-27T07:52:44Z</time>
      </trkpt>
      <trkpt lat="44.50822" lon="3.51133">
        <ele>1052</ele>
        <time>2016-04-27T07:52:48Z</time>
      </trkpt>
      <trkpt lat="44.50823" lon="3.5114">
        <ele>1053</ele>
        <time>2016-04-27T07:52:53Z</time>
      </trkpt>
      <trkpt lat="44.50821" lon="3.51146">
        <ele>1053</ele>
        <time>2016-04-27T07:52:58Z</time>
      </trkpt>
      <trkpt lat="44.50815" lon="3.51157">
        <ele>1052</ele>
        <time>2016-04-27T07:53:05Z</time>
      </trkpt>
      <trkpt lat="44.50816" lon="3.51165">
        <ele>1052</ele>
        <time>2016-04-27T07:53:09Z</time>
      </trkpt>
      <trkpt lat="44.50817" lon="3.51171">
        <ele>1054</ele>
        <time>2016-04-27T07:53:14Z</time>
      </trkpt>
      <trkpt lat="44.50817" lon="3.51179">
        <ele>1056</ele>
        <time>2016-04-27T07:53:19Z</time>
      </trkpt>
      <trkpt lat="44.50816" lon="3.51186">
        <ele>1056</ele>
        <time>2016-04-27T07:53:24Z</time>
      </trkpt>
      <trkpt lat="44.50818" lon="3.51193">
        <ele>1057</ele>
        <time>2016-04-27T07:53:29Z</time>
      </trkpt>
      <trkpt lat="44.50817" lon="3.512">
        <ele>1058</ele>
        <time>2016-04-27T07:53:34Z</time>
      </trkpt>
      <trkpt lat="44.50813" lon="3.51214">
        <ele>1062</ele>
        <time>2016-04-27T07:53:43Z</time>
      </trkpt>
      <trkpt lat="44.50814" lon="3.51221">
        <ele>1067</ele>
        <time>2016-04-27T07:53:48Z</time>
      </trkpt>
      <trkpt lat="44.50814" lon="3.51228">
        <ele>1067</ele>
        <time>2016-04-27T07:53:52Z</time>
      </trkpt>
      <trkpt lat="44.50812" lon="3.51234">
        <ele>1068</ele>
        <time>2016-04-27T07:53:56Z</time>
      </trkpt>
      <trkpt lat="44.50804" lon="3.51245">
        <ele>1066</ele>
        <time>2016-04-27T07:54:04Z</time>
      </trkpt>
      <trkpt lat="44.50806" lon="3.51253">
        <ele>1066</ele>
        <time>2016-04-27T07:54:09Z</time>
      </trkpt>
      <trkpt lat="44.50808" lon="3.5126">
        <ele>1066</ele>
        <time>2016-04-27T07:54:13Z</time>
      </trkpt>
      <trkpt lat="44.50819" lon="3.51299">
        <ele>1061</ele>
        <time>2016-04-27T07:54:37Z</time>
      </trkpt>
      <trkpt lat="44.5082" lon="3.51307">
        <ele>1061</ele>
        <time>2016-04-27T07:54:41Z</time>
      </trkpt>
      <trkpt lat="44.50822" lon="3.5132">
        <ele>1062</ele>
        <time>2016-04-27T07:54:49Z</time>
      </trkpt>
      <trkpt lat="44.50823" lon="3.51327">
        <ele>1062</ele>
        <time>2016-04-27T07:54:53Z</time>
      </trkpt>
      <trkpt lat="44.50824" lon="3.51333">
        <ele>1061</ele>
        <time>2016-04-27T07:54:57Z</time>
      </trkpt>
      <trkpt lat="44.50826" lon="3.5134">
        <ele>1061</ele>
        <time>2016-04-27T07:55:01Z</time>
      </trkpt>
      <trkpt lat="44.50828" lon="3.51346">
        <ele>1063</ele>
        <time>2016-04-27T07:55:05Z</time>
      </trkpt>
      <trkpt lat="44.5083" lon="3.51353">
        <ele>1064</ele>
        <time>2016-04-27T07:55:09Z</time>
      </trkpt>
      <trkpt lat="44.50833" lon="3.51374">
        <ele>1063</ele>
        <time>2016-04-27T07:55:23Z</time>
      </trkpt>
      <trkpt lat="44.50834" lon="3.51389">
        <ele>1066</ele>
        <time>2016-04-27T07:55:33Z</time>
      </trkpt>
      <trkpt lat="44.50838" lon="3.51402">
        <ele>1066</ele>
        <time>2016-04-27T07:55:44Z</time>
      </trkpt>
      <trkpt lat="44.50841" lon="3.51408">
        <ele>1066</ele>
        <time>2016-04-27T07:55:48Z</time>
      </trkpt>
      <trkpt lat="44.50843" lon="3.51414">
        <ele>1066</ele>
        <time>2016-04-27T07:55:52Z</time>
      </trkpt>
      <trkpt lat="44.50844" lon="3.51442">
        <ele>1061</ele>
        <time>2016-04-27T07:56:08Z</time>
      </trkpt>
      <trkpt lat="44.50846" lon="3.51448">
        <ele>1061</ele>
        <time>2016-04-27T07:56:12Z</time>
      </trkpt>
      <trkpt lat="44.50848" lon="3.51454">
        <ele>1062</ele>
        <time>2016-04-27T07:56:16Z</time>
      </trkpt>
      <trkpt lat="44.50848" lon="3.51461">
        <ele>1062</ele>
        <time>2016-04-27T07:56:20Z</time>
      </trkpt>
      <trkpt lat="44.50854" lon="3.51481">
        <ele>1064</ele>
        <time>2016-04-27T07:56:32Z</time>
      </trkpt>
      <trkpt lat="44.50856" lon="3.51487">
        <ele>1064</ele>
        <time>2016-04-27T07:56:36Z</time>
      </trkpt>
      <trkpt lat="44.50858" lon="3.51493">
        <ele>1064</ele>
        <time>2016-04-27T07:56:40Z</time>
      </trkpt>
      <trkpt lat="44.50861" lon="3.51507">
        <ele>1065</ele>
        <time>2016-04-27T07:56:49Z</time>
      </trkpt>
      <trkpt lat="44.5086" lon="3.51515">
        <ele>1065</ele>
        <time>2016-04-27T07:57:01Z</time>
      </trkpt>
      <trkpt lat="44.50862" lon="3.51522">
        <ele>1066</ele>
        <time>2016-04-27T07:57:05Z</time>
      </trkpt>
      <trkpt lat="44.50864" lon="3.51529">
        <ele>1066</ele>
        <time>2016-04-27T07:57:09Z</time>
      </trkpt>
      <trkpt lat="44.50866" lon="3.51537">
        <ele>1067</ele>
        <time>2016-04-27T07:57:13Z</time>
      </trkpt>
      <trkpt lat="44.50871" lon="3.51551">
        <ele>1066</ele>
        <time>2016-04-27T07:57:21Z</time>
      </trkpt>
      <trkpt lat="44.50871" lon="3.51565">
        <ele>1065</ele>
        <time>2016-04-27T07:57:29Z</time>
      </trkpt>
      <trkpt lat="44.50873" lon="3.51579">
        <ele>1064</ele>
        <time>2016-04-27T07:57:38Z</time>
      </trkpt>
      <trkpt lat="44.5088" lon="3.51604">
        <ele>1067</ele>
        <time>2016-04-27T07:57:58Z</time>
      </trkpt>
      <trkpt lat="44.50883" lon="3.51611">
        <ele>1067</ele>
        <time>2016-04-27T07:58:03Z</time>
      </trkpt>
      <trkpt lat="44.50888" lon="3.51623">
        <ele>1065</ele>
        <time>2016-04-27T07:58:11Z</time>
      </trkpt>
      <trkpt lat="44.50892" lon="3.51635">
        <ele>1065</ele>
        <time>2016-04-27T07:58:19Z</time>
      </trkpt>
      <trkpt lat="44.50895" lon="3.51642">
        <ele>1065</ele>
        <time>2016-04-27T07:58:24Z</time>
      </trkpt>
      <trkpt lat="44.50898" lon="3.51648">
        <ele>1065</ele>
        <time>2016-04-27T07:58:28Z</time>
      </trkpt>
      <trkpt lat="44.509" lon="3.51654">
        <ele>1065</ele>
        <time>2016-04-27T07:58:32Z</time>
      </trkpt>
      <trkpt lat="44.50905" lon="3.51674">
        <ele>1062</ele>
        <time>2016-04-27T07:58:44Z</time>
      </trkpt>
      <trkpt lat="44.50908" lon="3.51679">
        <ele>1062</ele>
        <time>2016-04-27T07:58:48Z</time>
      </trkpt>
      <trkpt lat="44.50912" lon="3.51684">
        <ele>1062</ele>
        <time>2016-04-27T07:58:52Z</time>
      </trkpt>
      <trkpt lat="44.50915" lon="3.5169">
        <ele>1064</ele>
        <time>2016-04-27T07:58:56Z</time>
      </trkpt>
      <trkpt lat="44.50916" lon="3.51698">
        <ele>1064</ele>
        <time>2016-04-27T07:59:01Z</time>
      </trkpt>
      <trkpt lat="44.50917" lon="3.51705">
        <ele>1064</ele>
        <time>2016-04-27T07:59:07Z</time>
      </trkpt>
      <trkpt lat="44.50923" lon="3.51716">
        <ele>1062</ele>
        <time>2016-04-27T07:59:16Z</time>
      </trkpt>
      <trkpt lat="44.50929" lon="3.51727">
        <ele>1062</ele>
        <time>2016-04-27T07:59:24Z</time>
      </trkpt>
      <trkpt lat="44.50931" lon="3.51733">
        <ele>1062</ele>
        <time>2016-04-27T07:59:28Z</time>
      </trkpt>
      <trkpt lat="44.50941" lon="3.51751">
        <ele>1065</ele>
        <time>2016-04-27T07:59:40Z</time>
      </trkpt>
      <trkpt lat="44.50948" lon="3.51771">
        <ele>1066</ele>
        <time>2016-04-27T07:59:52Z</time>
      </trkpt>
      <trkpt lat="44.5095" lon="3.51784">
        <ele>1064</ele>
        <time>2016-04-27T08:00:00Z</time>
      </trkpt>
      <trkpt lat="44.50953" lon="3.51789">
        <ele>1064</ele>
        <time>2016-04-27T08:00:04Z</time>
      </trkpt>
      <trkpt lat="44.50961" lon="3.51826">
        <ele>1056</ele>
        <time>2016-04-27T08:00:29Z</time>
      </trkpt>
      <trkpt lat="44.50963" lon="3.51831">
        <ele>1056</ele>
        <time>2016-04-27T08:00:33Z</time>
      </trkpt>
      <trkpt lat="44.50965" lon="3.51837">
        <ele>1056</ele>
        <time>2016-04-27T08:00:37Z</time>
      </trkpt>
      <trkpt lat="44.50972" lon="3.51856">
        <ele>1057</ele>
        <time>2016-04-27T08:00:49Z</time>
      </trkpt>
      <trkpt lat="44.50973" lon="3.51862">
        <ele>1056</ele>
        <time>2016-04-27T08:00:53Z</time>
      </trkpt>
      <trkpt lat="44.50989" lon="3.51914">
        <ele>1060</ele>
        <time>2016-04-27T08:01:25Z</time>
      </trkpt>
      <trkpt lat="44.50991" lon="3.5192">
        <ele>1060</ele>
        <time>2016-04-27T08:01:29Z</time>
      </trkpt>
      <trkpt lat="44.50998" lon="3.51939">
        <ele>1056</ele>
        <time>2016-04-27T08:01:44Z</time>
      </trkpt>
      <trkpt lat="44.51002" lon="3.51942">
        <ele>1056</ele>
        <time>2016-04-27T08:01:48Z</time>
      </trkpt>
      <trkpt lat="44.5101" lon="3.51962">
        <ele>1057</ele>
        <time>2016-04-27T08:02:02Z</time>
      </trkpt>
      <trkpt lat="44.51013" lon="3.51967">
        <ele>1056</ele>
        <time>2016-04-27T08:02:06Z</time>
      </trkpt>
      <trkpt lat="44.51017" lon="3.51972">
        <ele>1056</ele>
        <time>2016-04-27T08:02:10Z</time>
      </trkpt>
      <trkpt lat="44.51024" lon="3.51991">
        <ele>1054</ele>
        <time>2016-04-27T08:02:22Z</time>
      </trkpt>
      <trkpt lat="44.51027" lon="3.51997">
        <ele>1053</ele>
        <time>2016-04-27T08:02:26Z</time>
      </trkpt>
      <trkpt lat="44.5103" lon="3.52003">
        <ele>1054</ele>
        <time>2016-04-27T08:02:31Z</time>
      </trkpt>
      <trkpt lat="44.51034" lon="3.52009">
        <ele>1053</ele>
        <time>2016-04-27T08:02:35Z</time>
      </trkpt>
      <trkpt lat="44.51037" lon="3.52013">
        <ele>1052</ele>
        <time>2016-04-27T08:02:39Z</time>
      </trkpt>
      <trkpt lat="44.51044" lon="3.52024">
        <ele>1052</ele>
        <time>2016-04-27T08:02:47Z</time>
      </trkpt>
      <trkpt lat="44.51054" lon="3.5204">
        <ele>1051</ele>
        <time>2016-04-27T08:02:59Z</time>
      </trkpt>
      <trkpt lat="44.51056" lon="3.52045">
        <ele>1050</ele>
        <time>2016-04-27T08:03:03Z</time>
      </trkpt>
      <trkpt lat="44.51066" lon="3.52062">
        <ele>1048</ele>
        <time>2016-04-27T08:03:18Z</time>
      </trkpt>
      <trkpt lat="44.5107" lon="3.52074">
        <ele>1048</ele>
        <time>2016-04-27T08:03:26Z</time>
      </trkpt>
      <trkpt lat="44.51075" lon="3.52077">
        <ele>1048</ele>
        <time>2016-04-27T08:03:30Z</time>
      </trkpt>
      <trkpt lat="44.51079" lon="3.52074">
        <ele>1048</ele>
        <time>2016-04-27T08:03:34Z</time>
      </trkpt>
      <trkpt lat="44.51083" lon="3.52069">
        <ele>1049</ele>
        <time>2016-04-27T08:03:38Z</time>
      </trkpt>
      <trkpt lat="44.51085" lon="3.52062">
        <ele>1049</ele>
        <time>2016-04-27T08:03:42Z</time>
      </trkpt>
      <trkpt lat="44.51085" lon="3.52051">
        <ele>1050</ele>
        <time>2016-04-27T08:04:14Z</time>
      </trkpt>
      <trkpt lat="44.51092" lon="3.52049">
        <ele>1049</ele>
        <time>2016-04-27T08:04:25Z</time>
      </trkpt>
      <trkpt lat="44.51094" lon="3.52052">
        <ele>1048</ele>
        <time>2016-04-27T08:04:37Z</time>
      </trkpt>
      <trkpt lat="44.51096" lon="3.52059">
        <ele>1045</ele>
        <time>2016-04-27T08:06:56Z</time>
      </trkpt>
      <trkpt lat="44.51095" lon="3.52066">
        <ele>1046</ele>
        <time>2016-04-27T08:07:03Z</time>
      </trkpt>
      <trkpt lat="44.51096" lon="3.52068">
        <ele>1046</ele>
        <time>2016-04-27T08:07:37Z</time>
      </trkpt>
      <trkpt lat="44.51097" lon="3.52075">
        <ele>1044</ele>
        <time>2016-04-27T08:07:42Z</time>
      </trkpt>
      <trkpt lat="44.51104" lon="3.52101">
        <ele>1043</ele>
        <time>2016-04-27T08:07:58Z</time>
      </trkpt>
      <trkpt lat="44.5111" lon="3.52121">
        <ele>1044</ele>
        <time>2016-04-27T08:08:10Z</time>
      </trkpt>
      <trkpt lat="44.51111" lon="3.52128">
        <ele>1046</ele>
        <time>2016-04-27T08:08:15Z</time>
      </trkpt>
      <trkpt lat="44.51111" lon="3.52141">
        <ele>1047</ele>
        <time>2016-04-27T08:08:23Z</time>
      </trkpt>
      <trkpt lat="44.51112" lon="3.52147">
        <ele>1047</ele>
        <time>2016-04-27T08:08:27Z</time>
      </trkpt>
      <trkpt lat="44.51115" lon="3.52161">
        <ele>1046</ele>
        <time>2016-04-27T08:08:37Z</time>
      </trkpt>
      <trkpt lat="44.51117" lon="3.52167">
        <ele>1046</ele>
        <time>2016-04-27T08:08:41Z</time>
      </trkpt>
      <trkpt lat="44.51122" lon="3.52192">
        <ele>1050</ele>
        <time>2016-04-27T08:08:58Z</time>
      </trkpt>
      <trkpt lat="44.51124" lon="3.52199">
        <ele>1050</ele>
        <time>2016-04-27T08:09:03Z</time>
      </trkpt>
      <trkpt lat="44.51129" lon="3.52226">
        <ele>1050</ele>
        <time>2016-04-27T08:09:20Z</time>
      </trkpt>
      <trkpt lat="44.5113" lon="3.52232">
        <ele>1050</ele>
        <time>2016-04-27T08:09:24Z</time>
      </trkpt>
      <trkpt lat="44.51131" lon="3.5224">
        <ele>1048</ele>
        <time>2016-04-27T08:09:29Z</time>
      </trkpt>
      <trkpt lat="44.51132" lon="3.52247">
        <ele>1048</ele>
        <time>2016-04-27T08:09:34Z</time>
      </trkpt>
      <trkpt lat="44.51145" lon="3.52293">
        <ele>1057</ele>
        <time>2016-04-27T08:10:06Z</time>
      </trkpt>
      <trkpt lat="44.51149" lon="3.52313">
        <ele>1060</ele>
        <time>2016-04-27T08:10:21Z</time>
      </trkpt>
      <trkpt lat="44.51151" lon="3.52319">
        <ele>1060</ele>
        <time>2016-04-27T08:10:25Z</time>
      </trkpt>
      <trkpt lat="44.51155" lon="3.52331">
        <ele>1058</ele>
        <time>2016-04-27T08:10:33Z</time>
      </trkpt>
      <trkpt lat="44.51156" lon="3.52337">
        <ele>1058</ele>
        <time>2016-04-27T08:10:37Z</time>
      </trkpt>
      <trkpt lat="44.51159" lon="3.52351">
        <ele>1059</ele>
        <time>2016-04-27T08:10:47Z</time>
      </trkpt>
      <trkpt lat="44.51161" lon="3.52357">
        <ele>1060</ele>
        <time>2016-04-27T08:10:51Z</time>
      </trkpt>
      <trkpt lat="44.51163" lon="3.52364">
        <ele>1060</ele>
        <time>2016-04-27T08:10:56Z</time>
      </trkpt>
      <trkpt lat="44.51168" lon="3.52375">
        <ele>1059</ele>
        <time>2016-04-27T08:11:05Z</time>
      </trkpt>
      <trkpt lat="44.5117" lon="3.52381">
        <ele>1059</ele>
        <time>2016-04-27T08:11:09Z</time>
      </trkpt>
      <trkpt lat="44.51175" lon="3.52394">
        <ele>1060</ele>
        <time>2016-04-27T08:11:18Z</time>
      </trkpt>
      <trkpt lat="44.51177" lon="3.52401">
        <ele>1060</ele>
        <time>2016-04-27T08:11:23Z</time>
      </trkpt>
      <trkpt lat="44.5118" lon="3.52407">
        <ele>1060</ele>
        <time>2016-04-27T08:11:28Z</time>
      </trkpt>
      <trkpt lat="44.51182" lon="3.52411">
        <ele>1061</ele>
        <time>2016-04-27T08:11:36Z</time>
      </trkpt>
      <trkpt lat="44.51185" lon="3.52413">
        <ele>1062</ele>
        <time>2016-04-27T08:11:48Z</time>
      </trkpt>
      <trkpt lat="44.51192" lon="3.52424">
        <ele>1063</ele>
        <time>2016-04-27T08:11:56Z</time>
      </trkpt>
      <trkpt lat="44.51196" lon="3.52438">
        <ele>1064</ele>
        <time>2016-04-27T08:12:04Z</time>
      </trkpt>
      <trkpt lat="44.51199" lon="3.52443">
        <ele>1064</ele>
        <time>2016-04-27T08:12:08Z</time>
      </trkpt>
      <trkpt lat="44.512" lon="3.5245">
        <ele>1064</ele>
        <time>2016-04-27T08:12:13Z</time>
      </trkpt>
      <trkpt lat="44.51204" lon="3.52456">
        <ele>1065</ele>
        <time>2016-04-27T08:12:18Z</time>
      </trkpt>
      <trkpt lat="44.51212" lon="3.52463">
        <ele>1069</ele>
        <time>2016-04-27T08:12:26Z</time>
      </trkpt>
      <trkpt lat="44.51221" lon="3.52471">
        <ele>1069</ele>
        <time>2016-04-27T08:12:36Z</time>
      </trkpt>
      <trkpt lat="44.51225" lon="3.52476">
        <ele>1069</ele>
        <time>2016-04-27T08:12:46Z</time>
      </trkpt>
      <trkpt lat="44.51231" lon="3.52483">
        <ele>1067</ele>
        <time>2016-04-27T08:13:12Z</time>
      </trkpt>
      <trkpt lat="44.51235" lon="3.52488">
        <ele>1066</ele>
        <time>2016-04-27T08:13:17Z</time>
      </trkpt>
      <trkpt lat="44.51239" lon="3.52492">
        <ele>1066</ele>
        <time>2016-04-27T08:13:21Z</time>
      </trkpt>
      <trkpt lat="44.5124" lon="3.52496">
        <ele>1068</ele>
        <time>2016-04-27T08:13:38Z</time>
      </trkpt>
      <trkpt lat="44.51247" lon="3.52507">
        <ele>1068</ele>
        <time>2016-04-27T08:13:48Z</time>
      </trkpt>
      <trkpt lat="44.51252" lon="3.52519">
        <ele>1067</ele>
        <time>2016-04-27T08:13:57Z</time>
      </trkpt>
      <trkpt lat="44.51258" lon="3.52532">
        <ele>1068</ele>
        <time>2016-04-27T08:14:05Z</time>
      </trkpt>
      <trkpt lat="44.51264" lon="3.52544">
        <ele>1068</ele>
        <time>2016-04-27T08:14:13Z</time>
      </trkpt>
      <trkpt lat="44.51266" lon="3.5255">
        <ele>1067</ele>
        <time>2016-04-27T08:14:17Z</time>
      </trkpt>
      <trkpt lat="44.51268" lon="3.52557">
        <ele>1067</ele>
        <time>2016-04-27T08:14:21Z</time>
      </trkpt>
      <trkpt lat="44.5127" lon="3.52564">
        <ele>1067</ele>
        <time>2016-04-27T08:14:25Z</time>
      </trkpt>
      <trkpt lat="44.51273" lon="3.52578">
        <ele>1068</ele>
        <time>2016-04-27T08:14:33Z</time>
      </trkpt>
      <trkpt lat="44.51276" lon="3.52591">
        <ele>1068</ele>
        <time>2016-04-27T08:14:41Z</time>
      </trkpt>
      <trkpt lat="44.51278" lon="3.52598">
        <ele>1068</ele>
        <time>2016-04-27T08:14:45Z</time>
      </trkpt>
      <trkpt lat="44.5128" lon="3.52604">
        <ele>1068</ele>
        <time>2016-04-27T08:14:49Z</time>
      </trkpt>
      <trkpt lat="44.51282" lon="3.52611">
        <ele>1068</ele>
        <time>2016-04-27T08:14:53Z</time>
      </trkpt>
      <trkpt lat="44.51284" lon="3.52617">
        <ele>1068</ele>
        <time>2016-04-27T08:14:57Z</time>
      </trkpt>
      <trkpt lat="44.51294" lon="3.52634">
        <ele>1068</ele>
        <time>2016-04-27T08:15:09Z</time>
      </trkpt>
      <trkpt lat="44.51308" lon="3.52669">
        <ele>1063</ele>
        <time>2016-04-27T08:15:35Z</time>
      </trkpt>
      <trkpt lat="44.51311" lon="3.52675">
        <ele>1063</ele>
        <time>2016-04-27T08:15:39Z</time>
      </trkpt>
      <trkpt lat="44.51316" lon="3.52694">
        <ele>1058</ele>
        <time>2016-04-27T08:15:55Z</time>
      </trkpt>
      <trkpt lat="44.51319" lon="3.527">
        <ele>1058</ele>
        <time>2016-04-27T08:15:59Z</time>
      </trkpt>
      <trkpt lat="44.51321" lon="3.52706">
        <ele>1059</ele>
        <time>2016-04-27T08:16:03Z</time>
      </trkpt>
      <trkpt lat="44.51323" lon="3.52712">
        <ele>1059</ele>
        <time>2016-04-27T08:16:07Z</time>
      </trkpt>
      <trkpt lat="44.51325" lon="3.52718">
        <ele>1058</ele>
        <time>2016-04-27T08:16:11Z</time>
      </trkpt>
      <trkpt lat="44.51327" lon="3.52732">
        <ele>1058</ele>
        <time>2016-04-27T08:16:19Z</time>
      </trkpt>
      <trkpt lat="44.5133" lon="3.52746">
        <ele>1059</ele>
        <time>2016-04-27T08:16:27Z</time>
      </trkpt>
      <trkpt lat="44.51331" lon="3.52752">
        <ele>1059</ele>
        <time>2016-04-27T08:16:31Z</time>
      </trkpt>
      <trkpt lat="44.51333" lon="3.52767">
        <ele>1062</ele>
        <time>2016-04-27T08:16:39Z</time>
      </trkpt>
      <trkpt lat="44.51333" lon="3.52781">
        <ele>1063</ele>
        <time>2016-04-27T08:16:47Z</time>
      </trkpt>
      <trkpt lat="44.5133" lon="3.52808">
        <ele>1062</ele>
        <time>2016-04-27T08:17:03Z</time>
      </trkpt>
      <trkpt lat="44.51331" lon="3.52816">
        <ele>1062</ele>
        <time>2016-04-27T08:17:08Z</time>
      </trkpt>
      <trkpt lat="44.51331" lon="3.52824">
        <ele>1063</ele>
        <time>2016-04-27T08:17:13Z</time>
      </trkpt>
      <trkpt lat="44.51329" lon="3.52838">
        <ele>1065</ele>
        <time>2016-04-27T08:17:21Z</time>
      </trkpt>
      <trkpt lat="44.51326" lon="3.52853">
        <ele>1065</ele>
        <time>2016-04-27T08:17:30Z</time>
      </trkpt>
      <trkpt lat="44.51328" lon="3.52859">
        <ele>1064</ele>
        <time>2016-04-27T08:17:35Z</time>
      </trkpt>
      <trkpt lat="44.5133" lon="3.52865">
        <ele>1065</ele>
        <time>2016-04-27T08:17:40Z</time>
      </trkpt>
      <trkpt lat="44.51333" lon="3.52904">
        <ele>1060</ele>
        <time>2016-04-27T08:18:12Z</time>
      </trkpt>
      <trkpt lat="44.51335" lon="3.52919">
        <ele>1060</ele>
        <time>2016-04-27T08:18:23Z</time>
      </trkpt>
      <trkpt lat="44.51336" lon="3.52925">
        <ele>1061</ele>
        <time>2016-04-27T08:18:28Z</time>
      </trkpt>
      <trkpt lat="44.51337" lon="3.52933">
        <ele>1062</ele>
        <time>2016-04-27T08:18:34Z</time>
      </trkpt>
      <trkpt lat="44.51336" lon="3.5294">
        <ele>1062</ele>
        <time>2016-04-27T08:18:40Z</time>
      </trkpt>
      <trkpt lat="44.51333" lon="3.52946">
        <ele>1061</ele>
        <time>2016-04-27T08:18:45Z</time>
      </trkpt>
      <trkpt lat="44.5133" lon="3.52952">
        <ele>1061</ele>
        <time>2016-04-27T08:18:50Z</time>
      </trkpt>
      <trkpt lat="44.51328" lon="3.52954">
        <ele>1061</ele>
        <time>2016-04-27T08:19:11Z</time>
      </trkpt>
      <trkpt lat="44.51328" lon="3.52958">
        <ele>1059</ele>
        <time>2016-04-27T08:19:23Z</time>
      </trkpt>
      <trkpt lat="44.51324" lon="3.52978">
        <ele>1056</ele>
        <time>2016-04-27T08:19:38Z</time>
      </trkpt>
      <trkpt lat="44.51326" lon="3.53007">
        <ele>1059</ele>
        <time>2016-04-27T08:19:55Z</time>
      </trkpt>
      <trkpt lat="44.51321" lon="3.53019">
        <ele>1059</ele>
        <time>2016-04-27T08:20:02Z</time>
      </trkpt>
      <trkpt lat="44.51318" lon="3.53032">
        <ele>1058</ele>
        <time>2016-04-27T08:20:10Z</time>
      </trkpt>
      <trkpt lat="44.51318" lon="3.53038">
        <ele>1058</ele>
        <time>2016-04-27T08:20:14Z</time>
      </trkpt>
      <trkpt lat="44.5132" lon="3.53045">
        <ele>1058</ele>
        <time>2016-04-27T08:20:18Z</time>
      </trkpt>
      <trkpt lat="44.51316" lon="3.5306">
        <ele>1057</ele>
        <time>2016-04-27T08:20:26Z</time>
      </trkpt>
      <trkpt lat="44.51317" lon="3.53067">
        <ele>1057</ele>
        <time>2016-04-27T08:20:30Z</time>
      </trkpt>
      <trkpt lat="44.51319" lon="3.53081">
        <ele>1056</ele>
        <time>2016-04-27T08:20:38Z</time>
      </trkpt>
      <trkpt lat="44.5132" lon="3.53089">
        <ele>1056</ele>
        <time>2016-04-27T08:20:42Z</time>
      </trkpt>
      <trkpt lat="44.51322" lon="3.53094">
        <ele>1057</ele>
        <time>2016-04-27T08:20:46Z</time>
      </trkpt>
      <trkpt lat="44.51324" lon="3.53101">
        <ele>1056</ele>
        <time>2016-04-27T08:20:51Z</time>
      </trkpt>
      <trkpt lat="44.51323" lon="3.53108">
        <ele>1055</ele>
        <time>2016-04-27T08:20:56Z</time>
      </trkpt>
      <trkpt lat="44.51331" lon="3.53135">
        <ele>1048</ele>
        <time>2016-04-27T08:21:17Z</time>
      </trkpt>
      <trkpt lat="44.51345" lon="3.53156">
        <ele>1050</ele>
        <time>2016-04-27T08:21:33Z</time>
      </trkpt>
      <trkpt lat="44.51349" lon="3.53161">
        <ele>1050</ele>
        <time>2016-04-27T08:21:37Z</time>
      </trkpt>
      <trkpt lat="44.51353" lon="3.53165">
        <ele>1050</ele>
        <time>2016-04-27T08:21:41Z</time>
      </trkpt>
      <trkpt lat="44.51367" lon="3.53176">
        <ele>1054</ele>
        <time>2016-04-27T08:21:53Z</time>
      </trkpt>
      <trkpt lat="44.51372" lon="3.53187">
        <ele>1054</ele>
        <time>2016-04-27T08:22:05Z</time>
      </trkpt>
      <trkpt lat="44.51377" lon="3.5319">
        <ele>1055</ele>
        <time>2016-04-27T08:22:08Z</time>
      </trkpt>
      <trkpt lat="44.51386" lon="3.53195">
        <ele>1055</ele>
        <time>2016-04-27T08:22:14Z</time>
      </trkpt>
      <trkpt lat="44.51395" lon="3.53204">
        <ele>1054</ele>
        <time>2016-04-27T08:22:22Z</time>
      </trkpt>
      <trkpt lat="44.51398" lon="3.53207">
        <ele>1054</ele>
        <time>2016-04-27T08:22:25Z</time>
      </trkpt>
      <trkpt lat="44.51403" lon="3.53211">
        <ele>1055</ele>
        <time>2016-04-27T08:22:29Z</time>
      </trkpt>
      <trkpt lat="44.51409" lon="3.53222">
        <ele>1055</ele>
        <time>2016-04-27T08:22:38Z</time>
      </trkpt>
      <trkpt lat="44.51413" lon="3.53226">
        <ele>1054</ele>
        <time>2016-04-27T08:22:43Z</time>
      </trkpt>
      <trkpt lat="44.5143" lon="3.5326">
        <ele>1052</ele>
        <time>2016-04-27T08:23:04Z</time>
      </trkpt>
      <trkpt lat="44.51431" lon="3.53267">
        <ele>1053</ele>
        <time>2016-04-27T08:23:08Z</time>
      </trkpt>
      <trkpt lat="44.51432" lon="3.53275">
        <ele>1052</ele>
        <time>2016-04-27T08:23:12Z</time>
      </trkpt>
      <trkpt lat="44.51435" lon="3.53288">
        <ele>1053</ele>
        <time>2016-04-27T08:23:20Z</time>
      </trkpt>
      <trkpt lat="44.51436" lon="3.53295">
        <ele>1054</ele>
        <time>2016-04-27T08:23:25Z</time>
      </trkpt>
      <trkpt lat="44.51432" lon="3.533">
        <ele>1054</ele>
        <time>2016-04-27T08:23:29Z</time>
      </trkpt>
      <trkpt lat="44.5143" lon="3.53307">
        <ele>1055</ele>
        <time>2016-04-27T08:23:34Z</time>
      </trkpt>
      <trkpt lat="44.51432" lon="3.5332">
        <ele>1059</ele>
        <time>2016-04-27T08:23:43Z</time>
      </trkpt>
      <trkpt lat="44.51428" lon="3.53325">
        <ele>1060</ele>
        <time>2016-04-27T08:23:47Z</time>
      </trkpt>
      <trkpt lat="44.51424" lon="3.53329">
        <ele>1060</ele>
        <time>2016-04-27T08:23:50Z</time>
      </trkpt>
      <trkpt lat="44.51414" lon="3.53337">
        <ele>1060</ele>
        <time>2016-04-27T08:23:56Z</time>
      </trkpt>
      <trkpt lat="44.51401" lon="3.5335">
        <ele>1060</ele>
        <time>2016-04-27T08:24:05Z</time>
      </trkpt>
      <trkpt lat="44.5139" lon="3.53365">
        <ele>1056</ele>
        <time>2016-04-27T08:24:17Z</time>
      </trkpt>
      <trkpt lat="44.51386" lon="3.53371">
        <ele>1056</ele>
        <time>2016-04-27T08:24:22Z</time>
      </trkpt>
      <trkpt lat="44.51384" lon="3.53386">
        <ele>1058</ele>
        <time>2016-04-27T08:24:31Z</time>
      </trkpt>
      <trkpt lat="44.5138" lon="3.53392">
        <ele>1058</ele>
        <time>2016-04-27T08:24:36Z</time>
      </trkpt>
      <trkpt lat="44.51377" lon="3.53396">
        <ele>1058</ele>
        <time>2016-04-27T08:24:39Z</time>
      </trkpt>
      <trkpt lat="44.51374" lon="3.53403">
        <ele>1058</ele>
        <time>2016-04-27T08:24:43Z</time>
      </trkpt>
      <trkpt lat="44.51372" lon="3.53408">
        <ele>1059</ele>
        <time>2016-04-27T08:24:47Z</time>
      </trkpt>
      <trkpt lat="44.51369" lon="3.53414">
        <ele>1059</ele>
        <time>2016-04-27T08:24:52Z</time>
      </trkpt>
      <trkpt lat="44.51362" lon="3.53425">
        <ele>1057</ele>
        <time>2016-04-27T08:25:00Z</time>
      </trkpt>
      <trkpt lat="44.51358" lon="3.53431">
        <ele>1057</ele>
        <time>2016-04-27T08:25:04Z</time>
      </trkpt>
      <trkpt lat="44.51347" lon="3.53454">
        <ele>1053</ele>
        <time>2016-04-27T08:25:20Z</time>
      </trkpt>
      <trkpt lat="44.51344" lon="3.5346">
        <ele>1053</ele>
        <time>2016-04-27T08:25:25Z</time>
      </trkpt>
      <trkpt lat="44.51342" lon="3.53466">
        <ele>1053</ele>
        <time>2016-04-27T08:25:29Z</time>
      </trkpt>
      <trkpt lat="44.51339" lon="3.53481">
        <ele>1057</ele>
        <time>2016-04-27T08:25:39Z</time>
      </trkpt>
      <trkpt lat="44.51332" lon="3.53491">
        <ele>1058</ele>
        <time>2016-04-27T08:25:47Z</time>
      </trkpt>
      <trkpt lat="44.51329" lon="3.53503">
        <ele>1061</ele>
        <time>2016-04-27T08:25:55Z</time>
      </trkpt>
      <trkpt lat="44.51325" lon="3.53517">
        <ele>1062</ele>
        <time>2016-04-27T08:26:03Z</time>
      </trkpt>
      <trkpt lat="44.51324" lon="3.53524">
        <ele>1062</ele>
        <time>2016-04-27T08:26:07Z</time>
      </trkpt>
      <trkpt lat="44.51321" lon="3.53539">
        <ele>1060</ele>
        <time>2016-04-27T08:26:15Z</time>
      </trkpt>
      <trkpt lat="44.51316" lon="3.5355">
        <ele>1057</ele>
        <time>2016-04-27T08:26:25Z</time>
      </trkpt>
      <trkpt lat="44.51314" lon="3.53557">
        <ele>1057</ele>
        <time>2016-04-27T08:26:30Z</time>
      </trkpt>
      <trkpt lat="44.51315" lon="3.53564">
        <ele>1058</ele>
        <time>2016-04-27T08:26:35Z</time>
      </trkpt>
      <trkpt lat="44.51313" lon="3.5357">
        <ele>1058</ele>
        <time>2016-04-27T08:26:40Z</time>
      </trkpt>
      <trkpt lat="44.51307" lon="3.53581">
        <ele>1058</ele>
        <time>2016-04-27T08:26:48Z</time>
      </trkpt>
      <trkpt lat="44.51308" lon="3.53588">
        <ele>1060</ele>
        <time>2016-04-27T08:26:53Z</time>
      </trkpt>
      <trkpt lat="44.5131" lon="3.53594">
        <ele>1061</ele>
        <time>2016-04-27T08:26:57Z</time>
      </trkpt>
      <trkpt lat="44.5131" lon="3.53601">
        <ele>1062</ele>
        <time>2016-04-27T08:27:01Z</time>
      </trkpt>
      <trkpt lat="44.51307" lon="3.53609">
        <ele>1062</ele>
        <time>2016-04-27T08:27:05Z</time>
      </trkpt>
      <trkpt lat="44.51308" lon="3.53615">
        <ele>1062</ele>
        <time>2016-04-27T08:27:09Z</time>
      </trkpt>
      <trkpt lat="44.51307" lon="3.53622">
        <ele>1061</ele>
        <time>2016-04-27T08:27:13Z</time>
      </trkpt>
      <trkpt lat="44.51308" lon="3.53629">
        <ele>1061</ele>
        <time>2016-04-27T08:27:18Z</time>
      </trkpt>
      <trkpt lat="44.51309" lon="3.53636">
        <ele>1061</ele>
        <time>2016-04-27T08:27:23Z</time>
      </trkpt>
      <trkpt lat="44.51309" lon="3.53644">
        <ele>1062</ele>
        <time>2016-04-27T08:27:29Z</time>
      </trkpt>
      <trkpt lat="44.51309" lon="3.53651">
        <ele>1062</ele>
        <time>2016-04-27T08:27:33Z</time>
      </trkpt>
      <trkpt lat="44.51311" lon="3.53657">
        <ele>1062</ele>
        <time>2016-04-27T08:27:38Z</time>
      </trkpt>
      <trkpt lat="44.51314" lon="3.53679">
        <ele>1060</ele>
        <time>2016-04-27T08:27:50Z</time>
      </trkpt>
      <trkpt lat="44.51315" lon="3.53686">
        <ele>1060</ele>
        <time>2016-04-27T08:27:54Z</time>
      </trkpt>
      <trkpt lat="44.51319" lon="3.53698">
        <ele>1063</ele>
        <time>2016-04-27T08:28:02Z</time>
      </trkpt>
      <trkpt lat="44.51319" lon="3.53706">
        <ele>1063</ele>
        <time>2016-04-27T08:28:06Z</time>
      </trkpt>
      <trkpt lat="44.51319" lon="3.53728">
        <ele>1063</ele>
        <time>2016-04-27T08:28:17Z</time>
      </trkpt>
      <trkpt lat="44.51315" lon="3.53747">
        <ele>1060</ele>
        <time>2016-04-27T08:28:27Z</time>
      </trkpt>
      <trkpt lat="44.51318" lon="3.53762">
        <ele>1059</ele>
        <time>2016-04-27T08:28:36Z</time>
      </trkpt>
      <trkpt lat="44.51318" lon="3.53769">
        <ele>1058</ele>
        <time>2016-04-27T08:28:40Z</time>
      </trkpt>
      <trkpt lat="44.51321" lon="3.53775">
        <ele>1059</ele>
        <time>2016-04-27T08:28:44Z</time>
      </trkpt>
      <trkpt lat="44.51325" lon="3.53788">
        <ele>1060</ele>
        <time>2016-04-27T08:28:53Z</time>
      </trkpt>
      <trkpt lat="44.51326" lon="3.53796">
        <ele>1061</ele>
        <time>2016-04-27T08:28:58Z</time>
      </trkpt>
      <trkpt lat="44.51327" lon="3.53803">
        <ele>1061</ele>
        <time>2016-04-27T08:29:02Z</time>
      </trkpt>
      <trkpt lat="44.51326" lon="3.53817">
        <ele>1060</ele>
        <time>2016-04-27T08:29:10Z</time>
      </trkpt>
      <trkpt lat="44.51327" lon="3.53831">
        <ele>1059</ele>
        <time>2016-04-27T08:29:20Z</time>
      </trkpt>
      <trkpt lat="44.51332" lon="3.53866">
        <ele>1057</ele>
        <time>2016-04-27T08:29:39Z</time>
      </trkpt>
      <trkpt lat="44.51332" lon="3.53873">
        <ele>1057</ele>
        <time>2016-04-27T08:29:43Z</time>
      </trkpt>
      <trkpt lat="44.51334" lon="3.5388">
        <ele>1057</ele>
        <time>2016-04-27T08:29:47Z</time>
      </trkpt>
      <trkpt lat="44.51332" lon="3.53893">
        <ele>1056</ele>
        <time>2016-04-27T08:29:56Z</time>
      </trkpt>
      <trkpt lat="44.51331" lon="3.53891">
        <ele>1054</ele>
        <time>2016-04-27T08:31:20Z</time>
      </trkpt>
      <trkpt lat="44.51335" lon="3.53907">
        <ele>1053</ele>
        <time>2016-04-27T08:31:48Z</time>
      </trkpt>
      <trkpt lat="44.51335" lon="3.539">
        <ele>1053</ele>
        <time>2016-04-27T08:32:24Z</time>
      </trkpt>
      <trkpt lat="44.51332" lon="3.53888">
        <ele>1052</ele>
        <time>2016-04-27T08:33:22Z</time>
      </trkpt>
      <trkpt lat="44.51333" lon="3.53894">
        <ele>1052</ele>
        <time>2016-04-27T08:33:36Z</time>
      </trkpt>
      <trkpt lat="44.51332" lon="3.53897">
        <ele>1057</ele>
        <time>2016-04-27T08:52:09Z</time>
      </trkpt>
      <trkpt lat="44.51336" lon="3.53909">
        <ele>1059</ele>
        <time>2016-04-27T08:52:22Z</time>
      </trkpt>
      <trkpt lat="44.5134" lon="3.53915">
        <ele>1058</ele>
        <time>2016-04-27T08:52:26Z</time>
      </trkpt>
      <trkpt lat="44.51343" lon="3.53929">
        <ele>1055</ele>
        <time>2016-04-27T08:52:34Z</time>
      </trkpt>
      <trkpt lat="44.51344" lon="3.53935">
        <ele>1055</ele>
        <time>2016-04-27T08:52:38Z</time>
      </trkpt>
      <trkpt lat="44.51345" lon="3.53955">
        <ele>1056</ele>
        <time>2016-04-27T08:52:50Z</time>
      </trkpt>
      <trkpt lat="44.51346" lon="3.53962">
        <ele>1056</ele>
        <time>2016-04-27T08:52:54Z</time>
      </trkpt>
      <trkpt lat="44.51346" lon="3.53969">
        <ele>1055</ele>
        <time>2016-04-27T08:52:58Z</time>
      </trkpt>
      <trkpt lat="44.51344" lon="3.53976">
        <ele>1056</ele>
        <time>2016-04-27T08:53:05Z</time>
      </trkpt>
      <trkpt lat="44.51346" lon="3.53982">
        <ele>1054</ele>
        <time>2016-04-27T08:53:10Z</time>
      </trkpt>
      <trkpt lat="44.51349" lon="3.53988">
        <ele>1053</ele>
        <time>2016-04-27T08:53:14Z</time>
      </trkpt>
      <trkpt lat="44.51353" lon="3.53995">
        <ele>1052</ele>
        <time>2016-04-27T08:53:18Z</time>
      </trkpt>
      <trkpt lat="44.51355" lon="3.54001">
        <ele>1053</ele>
        <time>2016-04-27T08:53:22Z</time>
      </trkpt>
      <trkpt lat="44.51354" lon="3.54009">
        <ele>1053</ele>
        <time>2016-04-27T08:53:26Z</time>
      </trkpt>
      <trkpt lat="44.51353" lon="3.54015">
        <ele>1053</ele>
        <time>2016-04-27T08:53:30Z</time>
      </trkpt>
      <trkpt lat="44.51353" lon="3.54022">
        <ele>1052</ele>
        <time>2016-04-27T08:53:34Z</time>
      </trkpt>
      <trkpt lat="44.51354" lon="3.54028">
        <ele>1053</ele>
        <time>2016-04-27T08:53:39Z</time>
      </trkpt>
      <trkpt lat="44.51353" lon="3.54036">
        <ele>1053</ele>
        <time>2016-04-27T08:53:45Z</time>
      </trkpt>
      <trkpt lat="44.51354" lon="3.54042">
        <ele>1053</ele>
        <time>2016-04-27T08:53:49Z</time>
      </trkpt>
      <trkpt lat="44.51354" lon="3.54049">
        <ele>1054</ele>
        <time>2016-04-27T08:53:54Z</time>
      </trkpt>
      <trkpt lat="44.51351" lon="3.54063">
        <ele>1053</ele>
        <time>2016-04-27T08:54:07Z</time>
      </trkpt>
      <trkpt lat="44.5135" lon="3.54071">
        <ele>1053</ele>
        <time>2016-04-27T08:54:12Z</time>
      </trkpt>
      <trkpt lat="44.51352" lon="3.54078">
        <ele>1052</ele>
        <time>2016-04-27T08:54:16Z</time>
      </trkpt>
      <trkpt lat="44.51366" lon="3.5411">
        <ele>1058</ele>
        <time>2016-04-27T08:54:35Z</time>
      </trkpt>
      <trkpt lat="44.51366" lon="3.54117">
        <ele>1058</ele>
        <time>2016-04-27T08:54:39Z</time>
      </trkpt>
      <trkpt lat="44.51363" lon="3.54124">
        <ele>1057</ele>
        <time>2016-04-27T08:54:43Z</time>
      </trkpt>
      <trkpt lat="44.51363" lon="3.54131">
        <ele>1057</ele>
        <time>2016-04-27T08:54:47Z</time>
      </trkpt>
      <trkpt lat="44.51366" lon="3.54137">
        <ele>1058</ele>
        <time>2016-04-27T08:54:51Z</time>
      </trkpt>
      <trkpt lat="44.5137" lon="3.54141">
        <ele>1059</ele>
        <time>2016-04-27T08:54:55Z</time>
      </trkpt>
      <trkpt lat="44.5137" lon="3.54148">
        <ele>1059</ele>
        <time>2016-04-27T08:55:00Z</time>
      </trkpt>
      <trkpt lat="44.51357" lon="3.54205">
        <ele>1058</ele>
        <time>2016-04-27T08:55:32Z</time>
      </trkpt>
      <trkpt lat="44.51356" lon="3.54212">
        <ele>1058</ele>
        <time>2016-04-27T08:55:36Z</time>
      </trkpt>
      <trkpt lat="44.51355" lon="3.54219">
        <ele>1057</ele>
        <time>2016-04-27T08:55:40Z</time>
      </trkpt>
      <trkpt lat="44.51353" lon="3.54225">
        <ele>1057</ele>
        <time>2016-04-27T08:55:44Z</time>
      </trkpt>
      <trkpt lat="44.5135" lon="3.5423">
        <ele>1057</ele>
        <time>2016-04-27T08:55:48Z</time>
      </trkpt>
      <trkpt lat="44.51347" lon="3.54237">
        <ele>1057</ele>
        <time>2016-04-27T08:55:52Z</time>
      </trkpt>
      <trkpt lat="44.51345" lon="3.54243">
        <ele>1058</ele>
        <time>2016-04-27T08:55:56Z</time>
      </trkpt>
      <trkpt lat="44.51341" lon="3.54247">
        <ele>1058</ele>
        <time>2016-04-27T08:56:01Z</time>
      </trkpt>
      <trkpt lat="44.51319" lon="3.54274">
        <ele>1052</ele>
        <time>2016-04-27T08:56:25Z</time>
      </trkpt>
      <trkpt lat="44.51311" lon="3.54286">
        <ele>1053</ele>
        <time>2016-04-27T08:56:35Z</time>
      </trkpt>
      <trkpt lat="44.51301" lon="3.54301">
        <ele>1054</ele>
        <time>2016-04-27T08:56:48Z</time>
      </trkpt>
      <trkpt lat="44.51297" lon="3.54305">
        <ele>1054</ele>
        <time>2016-04-27T08:56:52Z</time>
      </trkpt>
      <trkpt lat="44.51294" lon="3.54311">
        <ele>1053</ele>
        <time>2016-04-27T08:56:56Z</time>
      </trkpt>
      <trkpt lat="44.51285" lon="3.54329">
        <ele>1054</ele>
        <time>2016-04-27T08:57:09Z</time>
      </trkpt>
      <trkpt lat="44.5128" lon="3.54332">
        <ele>1054</ele>
        <time>2016-04-27T08:57:13Z</time>
      </trkpt>
      <trkpt lat="44.51262" lon="3.54349">
        <ele>1049</ele>
        <time>2016-04-27T08:57:31Z</time>
      </trkpt>
      <trkpt lat="44.51258" lon="3.54352">
        <ele>1049</ele>
        <time>2016-04-27T08:57:36Z</time>
      </trkpt>
      <trkpt lat="44.51241" lon="3.54369">
        <ele>1056</ele>
        <time>2016-04-27T08:57:54Z</time>
      </trkpt>
      <trkpt lat="44.51236" lon="3.54371">
        <ele>1056</ele>
        <time>2016-04-27T08:57:58Z</time>
      </trkpt>
      <trkpt lat="44.51226" lon="3.54377">
        <ele>1055</ele>
        <time>2016-04-27T08:58:06Z</time>
      </trkpt>
      <trkpt lat="44.51198" lon="3.54408">
        <ele>1046</ele>
        <time>2016-04-27T08:58:38Z</time>
      </trkpt>
      <trkpt lat="44.51191" lon="3.54419">
        <ele>1046</ele>
        <time>2016-04-27T08:58:47Z</time>
      </trkpt>
      <trkpt lat="44.51187" lon="3.54422">
        <ele>1047</ele>
        <time>2016-04-27T08:58:51Z</time>
      </trkpt>
      <trkpt lat="44.51146" lon="3.54451">
        <ele>1057</ele>
        <time>2016-04-27T08:59:23Z</time>
      </trkpt>
      <trkpt lat="44.51142" lon="3.54454">
        <ele>1057</ele>
        <time>2016-04-27T08:59:27Z</time>
      </trkpt>
      <trkpt lat="44.51134" lon="3.54462">
        <ele>1058</ele>
        <time>2016-04-27T08:59:36Z</time>
      </trkpt>
      <trkpt lat="44.5113" lon="3.54465">
        <ele>1058</ele>
        <time>2016-04-27T08:59:40Z</time>
      </trkpt>
      <trkpt lat="44.511" lon="3.54486">
        <ele>1050</ele>
        <time>2016-04-27T09:00:04Z</time>
      </trkpt>
      <trkpt lat="44.51097" lon="3.5449">
        <ele>1050</ele>
        <time>2016-04-27T09:00:08Z</time>
      </trkpt>
      <trkpt lat="44.51089" lon="3.54499">
        <ele>1048</ele>
        <time>2016-04-27T09:00:16Z</time>
      </trkpt>
      <trkpt lat="44.51084" lon="3.54503">
        <ele>1048</ele>
        <time>2016-04-27T09:00:20Z</time>
      </trkpt>
      <trkpt lat="44.5108" lon="3.54507">
        <ele>1048</ele>
        <time>2016-04-27T09:00:24Z</time>
      </trkpt>
      <trkpt lat="44.51075" lon="3.54511">
        <ele>1047</ele>
        <time>2016-04-27T09:00:28Z</time>
      </trkpt>
      <trkpt lat="44.51071" lon="3.54515">
        <ele>1047</ele>
        <time>2016-04-27T09:00:32Z</time>
      </trkpt>
      <trkpt lat="44.5106" lon="3.54527">
        <ele>1050</ele>
        <time>2016-04-27T09:00:44Z</time>
      </trkpt>
      <trkpt lat="44.51056" lon="3.54532">
        <ele>1050</ele>
        <time>2016-04-27T09:00:48Z</time>
      </trkpt>
      <trkpt lat="44.51054" lon="3.54538">
        <ele>1050</ele>
        <time>2016-04-27T09:00:52Z</time>
      </trkpt>
      <trkpt lat="44.51051" lon="3.54544">
        <ele>1049</ele>
        <time>2016-04-27T09:00:57Z</time>
      </trkpt>
      <trkpt lat="44.51045" lon="3.54556">
        <ele>1049</ele>
        <time>2016-04-27T09:01:05Z</time>
      </trkpt>
      <trkpt lat="44.51039" lon="3.54569">
        <ele>1049</ele>
        <time>2016-04-27T09:01:14Z</time>
      </trkpt>
      <trkpt lat="44.51033" lon="3.5458">
        <ele>1048</ele>
        <time>2016-04-27T09:01:22Z</time>
      </trkpt>
      <trkpt lat="44.5103" lon="3.54585">
        <ele>1048</ele>
        <time>2016-04-27T09:01:26Z</time>
      </trkpt>
      <trkpt lat="44.51024" lon="3.54603">
        <ele>1049</ele>
        <time>2016-04-27T09:01:38Z</time>
      </trkpt>
      <trkpt lat="44.51023" lon="3.54609">
        <ele>1048</ele>
        <time>2016-04-27T09:01:42Z</time>
      </trkpt>
      <trkpt lat="44.51021" lon="3.54615">
        <ele>1049</ele>
        <time>2016-04-27T09:01:46Z</time>
      </trkpt>
      <trkpt lat="44.51019" lon="3.54621">
        <ele>1049</ele>
        <time>2016-04-27T09:01:50Z</time>
      </trkpt>
      <trkpt lat="44.51013" lon="3.54632">
        <ele>1048</ele>
        <time>2016-04-27T09:01:58Z</time>
      </trkpt>
      <trkpt lat="44.5101" lon="3.54646">
        <ele>1048</ele>
        <time>2016-04-27T09:02:06Z</time>
      </trkpt>
      <trkpt lat="44.51007" lon="3.54651">
        <ele>1047</ele>
        <time>2016-04-27T09:02:10Z</time>
      </trkpt>
      <trkpt lat="44.51002" lon="3.54663">
        <ele>1046</ele>
        <time>2016-04-27T09:02:18Z</time>
      </trkpt>
      <trkpt lat="44.50997" lon="3.54675">
        <ele>1046</ele>
        <time>2016-04-27T09:02:26Z</time>
      </trkpt>
      <trkpt lat="44.50996" lon="3.54682">
        <ele>1046</ele>
        <time>2016-04-27T09:02:30Z</time>
      </trkpt>
      <trkpt lat="44.50994" lon="3.54688">
        <ele>1047</ele>
        <time>2016-04-27T09:02:34Z</time>
      </trkpt>
      <trkpt lat="44.50993" lon="3.54695">
        <ele>1047</ele>
        <time>2016-04-27T09:02:38Z</time>
      </trkpt>
      <trkpt lat="44.50991" lon="3.54702">
        <ele>1047</ele>
        <time>2016-04-27T09:02:43Z</time>
      </trkpt>
      <trkpt lat="44.50989" lon="3.54708">
        <ele>1047</ele>
        <time>2016-04-27T09:02:47Z</time>
      </trkpt>
      <trkpt lat="44.50982" lon="3.54728">
        <ele>1047</ele>
        <time>2016-04-27T09:02:59Z</time>
      </trkpt>
      <trkpt lat="44.5097" lon="3.54779">
        <ele>1040</ele>
        <time>2016-04-27T09:03:31Z</time>
      </trkpt>
      <trkpt lat="44.50956" lon="3.54809">
        <ele>1038</ele>
        <time>2016-04-27T09:03:52Z</time>
      </trkpt>
      <trkpt lat="44.50953" lon="3.54814">
        <ele>1039</ele>
        <time>2016-04-27T09:03:56Z</time>
      </trkpt>
      <trkpt lat="44.50947" lon="3.54823">
        <ele>1040</ele>
        <time>2016-04-27T09:04:04Z</time>
      </trkpt>
      <trkpt lat="44.50944" lon="3.54828">
        <ele>1039</ele>
        <time>2016-04-27T09:04:08Z</time>
      </trkpt>
      <trkpt lat="44.50936" lon="3.54838">
        <ele>1039</ele>
        <time>2016-04-27T09:04:18Z</time>
      </trkpt>
      <trkpt lat="44.50933" lon="3.54843">
        <ele>1039</ele>
        <time>2016-04-27T09:04:22Z</time>
      </trkpt>
      <trkpt lat="44.50931" lon="3.5485">
        <ele>1039</ele>
        <time>2016-04-27T09:04:26Z</time>
      </trkpt>
      <trkpt lat="44.50929" lon="3.54857">
        <ele>1040</ele>
        <time>2016-04-27T09:04:31Z</time>
      </trkpt>
      <trkpt lat="44.50925" lon="3.54876">
        <ele>1036</ele>
        <time>2016-04-27T09:04:43Z</time>
      </trkpt>
      <trkpt lat="44.5092" lon="3.54889">
        <ele>1035</ele>
        <time>2016-04-27T09:04:51Z</time>
      </trkpt>
      <trkpt lat="44.50919" lon="3.54896">
        <ele>1035</ele>
        <time>2016-04-27T09:04:55Z</time>
      </trkpt>
      <trkpt lat="44.50917" lon="3.54901">
        <ele>1035</ele>
        <time>2016-04-27T09:04:59Z</time>
      </trkpt>
      <trkpt lat="44.50915" lon="3.54907">
        <ele>1035</ele>
        <time>2016-04-27T09:05:03Z</time>
      </trkpt>
      <trkpt lat="44.50913" lon="3.54926">
        <ele>1032</ele>
        <time>2016-04-27T09:05:15Z</time>
      </trkpt>
      <trkpt lat="44.50906" lon="3.54944">
        <ele>1030</ele>
        <time>2016-04-27T09:05:27Z</time>
      </trkpt>
      <trkpt lat="44.50904" lon="3.5495">
        <ele>1031</ele>
        <time>2016-04-27T09:05:31Z</time>
      </trkpt>
      <trkpt lat="44.50894" lon="3.54967">
        <ele>1029</ele>
        <time>2016-04-27T09:05:43Z</time>
      </trkpt>
      <trkpt lat="44.50888" lon="3.54985">
        <ele>1031</ele>
        <time>2016-04-27T09:05:56Z</time>
      </trkpt>
      <trkpt lat="44.50885" lon="3.54997">
        <ele>1031</ele>
        <time>2016-04-27T09:06:04Z</time>
      </trkpt>
      <trkpt lat="44.50883" lon="3.55003">
        <ele>1031</ele>
        <time>2016-04-27T09:06:08Z</time>
      </trkpt>
      <trkpt lat="44.50882" lon="3.5501">
        <ele>1032</ele>
        <time>2016-04-27T09:06:12Z</time>
      </trkpt>
      <trkpt lat="44.5088" lon="3.55016">
        <ele>1032</ele>
        <time>2016-04-27T09:06:16Z</time>
      </trkpt>
      <trkpt lat="44.50878" lon="3.55023">
        <ele>1031</ele>
        <time>2016-04-27T09:06:21Z</time>
      </trkpt>
      <trkpt lat="44.5088" lon="3.55045">
        <ele>1031</ele>
        <time>2016-04-27T09:06:36Z</time>
      </trkpt>
      <trkpt lat="44.50879" lon="3.55051">
        <ele>1031</ele>
        <time>2016-04-27T09:06:41Z</time>
      </trkpt>
      <trkpt lat="44.50881" lon="3.55054">
        <ele>1031</ele>
        <time>2016-04-27T09:06:49Z</time>
      </trkpt>
      <trkpt lat="44.50878" lon="3.55058">
        <ele>1031</ele>
        <time>2016-04-27T09:06:53Z</time>
      </trkpt>
      <trkpt lat="44.50874" lon="3.55062">
        <ele>1029</ele>
        <time>2016-04-27T09:06:56Z</time>
      </trkpt>
      <trkpt lat="44.50872" lon="3.5507">
        <ele>1029</ele>
        <time>2016-04-27T09:07:00Z</time>
      </trkpt>
      <trkpt lat="44.50872" lon="3.55091">
        <ele>1027</ele>
        <time>2016-04-27T09:07:13Z</time>
      </trkpt>
      <trkpt lat="44.5087" lon="3.55097">
        <ele>1028</ele>
        <time>2016-04-27T09:07:18Z</time>
      </trkpt>
      <trkpt lat="44.50873" lon="3.55103">
        <ele>1028</ele>
        <time>2016-04-27T09:07:25Z</time>
      </trkpt>
      <trkpt lat="44.50873" lon="3.55099">
        <ele>1027</ele>
        <time>2016-04-27T09:08:00Z</time>
      </trkpt>
      <trkpt lat="44.50867" lon="3.55103">
        <ele>1027</ele>
        <time>2016-04-27T09:08:14Z</time>
      </trkpt>
      <trkpt lat="44.50868" lon="3.5511">
        <ele>1028</ele>
        <time>2016-04-27T09:08:21Z</time>
      </trkpt>
      <trkpt lat="44.50868" lon="3.55116">
        <ele>1028</ele>
        <time>2016-04-27T09:08:27Z</time>
      </trkpt>
      <trkpt lat="44.50866" lon="3.5513">
        <ele>1027</ele>
        <time>2016-04-27T09:08:40Z</time>
      </trkpt>
      <trkpt lat="44.50863" lon="3.55135">
        <ele>1027</ele>
        <time>2016-04-27T09:08:46Z</time>
      </trkpt>
      <trkpt lat="44.50864" lon="3.55142">
        <ele>1028</ele>
        <time>2016-04-27T09:08:55Z</time>
      </trkpt>
      <trkpt lat="44.5086" lon="3.55147">
        <ele>1029</ele>
        <time>2016-04-27T09:09:01Z</time>
      </trkpt>
      <trkpt lat="44.50855" lon="3.55151">
        <ele>1029</ele>
        <time>2016-04-27T09:09:05Z</time>
      </trkpt>
      <trkpt lat="44.50852" lon="3.55157">
        <ele>1028</ele>
        <time>2016-04-27T09:09:09Z</time>
      </trkpt>
      <trkpt lat="44.50848" lon="3.55161">
        <ele>1028</ele>
        <time>2016-04-27T09:09:14Z</time>
      </trkpt>
      <trkpt lat="44.50843" lon="3.55164">
        <ele>1029</ele>
        <time>2016-04-27T09:09:18Z</time>
      </trkpt>
      <trkpt lat="44.50835" lon="3.55174">
        <ele>1028</ele>
        <time>2016-04-27T09:09:26Z</time>
      </trkpt>
      <trkpt lat="44.50802" lon="3.55205">
        <ele>1016</ele>
        <time>2016-04-27T09:09:58Z</time>
      </trkpt>
      <trkpt lat="44.5079" lon="3.55218">
        <ele>1019</ele>
        <time>2016-04-27T09:10:10Z</time>
      </trkpt>
      <trkpt lat="44.50787" lon="3.55223">
        <ele>1019</ele>
        <time>2016-04-27T09:10:14Z</time>
      </trkpt>
      <trkpt lat="44.50783" lon="3.55228">
        <ele>1019</ele>
        <time>2016-04-27T09:10:19Z</time>
      </trkpt>
      <trkpt lat="44.50754" lon="3.55244">
        <ele>1014</ele>
        <time>2016-04-27T09:10:42Z</time>
      </trkpt>
      <trkpt lat="44.50744" lon="3.5525">
        <ele>1014</ele>
        <time>2016-04-27T09:10:50Z</time>
      </trkpt>
      <trkpt lat="44.5073" lon="3.55259">
        <ele>1012</ele>
        <time>2016-04-27T09:11:01Z</time>
      </trkpt>
      <trkpt lat="44.50726" lon="3.55263">
        <ele>1012</ele>
        <time>2016-04-27T09:11:05Z</time>
      </trkpt>
      <trkpt lat="44.50717" lon="3.5527">
        <ele>1013</ele>
        <time>2016-04-27T09:11:13Z</time>
      </trkpt>
      <trkpt lat="44.50707" lon="3.55277">
        <ele>1012</ele>
        <time>2016-04-27T09:11:21Z</time>
      </trkpt>
      <trkpt lat="44.50702" lon="3.55281">
        <ele>1013</ele>
        <time>2016-04-27T09:11:26Z</time>
      </trkpt>
      <trkpt lat="44.50699" lon="3.55286">
        <ele>1013</ele>
        <time>2016-04-27T09:11:31Z</time>
      </trkpt>
      <trkpt lat="44.50695" lon="3.5529">
        <ele>1013</ele>
        <time>2016-04-27T09:11:35Z</time>
      </trkpt>
      <trkpt lat="44.50677" lon="3.55305">
        <ele>1010</ele>
        <time>2016-04-27T09:11:51Z</time>
      </trkpt>
      <trkpt lat="44.50668" lon="3.55313">
        <ele>1012</ele>
        <time>2016-04-27T09:12:01Z</time>
      </trkpt>
      <trkpt lat="44.50664" lon="3.55317">
        <ele>1013</ele>
        <time>2016-04-27T09:12:05Z</time>
      </trkpt>
      <trkpt lat="44.50645" lon="3.55331">
        <ele>1012</ele>
        <time>2016-04-27T09:12:20Z</time>
      </trkpt>
      <trkpt lat="44.5064" lon="3.55333">
        <ele>1012</ele>
        <time>2016-04-27T09:12:24Z</time>
      </trkpt>
      <trkpt lat="44.50614" lon="3.55344">
        <ele>1012</ele>
        <time>2016-04-27T09:12:44Z</time>
      </trkpt>
      <trkpt lat="44.50599" lon="3.5535">
        <ele>1013</ele>
        <time>2016-04-27T09:12:57Z</time>
      </trkpt>
      <trkpt lat="44.50595" lon="3.5535">
        <ele>1013</ele>
        <time>2016-04-27T09:13:01Z</time>
      </trkpt>
      <trkpt lat="44.5059" lon="3.55351">
        <ele>1013</ele>
        <time>2016-04-27T09:13:06Z</time>
      </trkpt>
      <trkpt lat="44.50586" lon="3.55352">
        <ele>1013</ele>
        <time>2016-04-27T09:13:11Z</time>
      </trkpt>
      <trkpt lat="44.50581" lon="3.55354">
        <ele>1013</ele>
        <time>2016-04-27T09:13:16Z</time>
      </trkpt>
      <trkpt lat="44.5057" lon="3.55358">
        <ele>1011</ele>
        <time>2016-04-27T09:13:24Z</time>
      </trkpt>
      <trkpt lat="44.50544" lon="3.55363">
        <ele>1011</ele>
        <time>2016-04-27T09:13:45Z</time>
      </trkpt>
      <trkpt lat="44.50528" lon="3.55364">
        <ele>1012</ele>
        <time>2016-04-27T09:13:57Z</time>
      </trkpt>
      <trkpt lat="44.50498" lon="3.5537">
        <ele>1008</ele>
        <time>2016-04-27T09:14:17Z</time>
      </trkpt>
      <trkpt lat="44.50488" lon="3.55372">
        <ele>1008</ele>
        <time>2016-04-27T09:14:26Z</time>
      </trkpt>
      <trkpt lat="44.50483" lon="3.55372">
        <ele>1009</ele>
        <time>2016-04-27T09:14:32Z</time>
      </trkpt>
      <trkpt lat="44.50472" lon="3.55374">
        <ele>1012</ele>
        <time>2016-04-27T09:14:43Z</time>
      </trkpt>
      <trkpt lat="44.50466" lon="3.55375">
        <ele>1013</ele>
        <time>2016-04-27T09:14:48Z</time>
      </trkpt>
      <trkpt lat="44.50426" lon="3.55383">
        <ele>1005</ele>
        <time>2016-04-27T09:15:20Z</time>
      </trkpt>
      <trkpt lat="44.50421" lon="3.55385">
        <ele>1004</ele>
        <time>2016-04-27T09:15:24Z</time>
      </trkpt>
      <trkpt lat="44.50411" lon="3.55386">
        <ele>1003</ele>
        <time>2016-04-27T09:15:33Z</time>
      </trkpt>
      <trkpt lat="44.50377" lon="3.55392">
        <ele>995</ele>
        <time>2016-04-27T09:15:59Z</time>
      </trkpt>
      <trkpt lat="44.50367" lon="3.55392">
        <ele>997</ele>
        <time>2016-04-27T09:16:08Z</time>
      </trkpt>
      <trkpt lat="44.50362" lon="3.55393">
        <ele>996</ele>
        <time>2016-04-27T09:16:11Z</time>
      </trkpt>
      <trkpt lat="44.50358" lon="3.55391">
        <ele>995</ele>
        <time>2016-04-27T09:16:15Z</time>
      </trkpt>
      <trkpt lat="44.50353" lon="3.5539">
        <ele>996</ele>
        <time>2016-04-27T09:16:19Z</time>
      </trkpt>
      <trkpt lat="44.50338" lon="3.55394">
        <ele>995</ele>
        <time>2016-04-27T09:16:32Z</time>
      </trkpt>
      <trkpt lat="44.50329" lon="3.55395">
        <ele>993</ele>
        <time>2016-04-27T09:16:40Z</time>
      </trkpt>
      <trkpt lat="44.50319" lon="3.55395">
        <ele>993</ele>
        <time>2016-04-27T09:16:48Z</time>
      </trkpt>
      <trkpt lat="44.50309" lon="3.55394">
        <ele>994</ele>
        <time>2016-04-27T09:16:57Z</time>
      </trkpt>
      <trkpt lat="44.50304" lon="3.55393">
        <ele>995</ele>
        <time>2016-04-27T09:17:01Z</time>
      </trkpt>
      <trkpt lat="44.50298" lon="3.55392">
        <ele>994</ele>
        <time>2016-04-27T09:17:05Z</time>
      </trkpt>
      <trkpt lat="44.50293" lon="3.55391">
        <ele>993</ele>
        <time>2016-04-27T09:17:09Z</time>
      </trkpt>
      <trkpt lat="44.50282" lon="3.55388">
        <ele>992</ele>
        <time>2016-04-27T09:17:17Z</time>
      </trkpt>
      <trkpt lat="44.50277" lon="3.55386">
        <ele>992</ele>
        <time>2016-04-27T09:17:21Z</time>
      </trkpt>
      <trkpt lat="44.50266" lon="3.55382">
        <ele>992</ele>
        <time>2016-04-27T09:17:29Z</time>
      </trkpt>
      <trkpt lat="44.50261" lon="3.55381">
        <ele>991</ele>
        <time>2016-04-27T09:17:33Z</time>
      </trkpt>
      <trkpt lat="44.50241" lon="3.55373">
        <ele>990</ele>
        <time>2016-04-27T09:17:49Z</time>
      </trkpt>
      <trkpt lat="44.50235" lon="3.55372">
        <ele>990</ele>
        <time>2016-04-27T09:17:53Z</time>
      </trkpt>
      <trkpt lat="44.50201" lon="3.55367">
        <ele>984</ele>
        <time>2016-04-27T09:18:21Z</time>
      </trkpt>
      <trkpt lat="44.50196" lon="3.55368">
        <ele>984</ele>
        <time>2016-04-27T09:18:25Z</time>
      </trkpt>
      <trkpt lat="44.5019" lon="3.55368">
        <ele>985</ele>
        <time>2016-04-27T09:18:29Z</time>
      </trkpt>
      <trkpt lat="44.50185" lon="3.55369">
        <ele>985</ele>
        <time>2016-04-27T09:18:33Z</time>
      </trkpt>
      <trkpt lat="44.50181" lon="3.5537">
        <ele>986</ele>
        <time>2016-04-27T09:18:42Z</time>
      </trkpt>
      <trkpt lat="44.50176" lon="3.55366">
        <ele>986</ele>
        <time>2016-04-27T09:19:04Z</time>
      </trkpt>
      <trkpt lat="44.50171" lon="3.55365">
        <ele>988</ele>
        <time>2016-04-27T09:19:08Z</time>
      </trkpt>
      <trkpt lat="44.50153" lon="3.55354">
        <ele>989</ele>
        <time>2016-04-27T09:19:23Z</time>
      </trkpt>
      <trkpt lat="44.50149" lon="3.55351">
        <ele>988</ele>
        <time>2016-04-27T09:19:26Z</time>
      </trkpt>
      <trkpt lat="44.50145" lon="3.55348">
        <ele>987</ele>
        <time>2016-04-27T09:19:29Z</time>
      </trkpt>
      <trkpt lat="44.50136" lon="3.55341">
        <ele>987</ele>
        <time>2016-04-27T09:19:36Z</time>
      </trkpt>
      <trkpt lat="44.50128" lon="3.55333">
        <ele>988</ele>
        <time>2016-04-27T09:19:44Z</time>
      </trkpt>
      <trkpt lat="44.50123" lon="3.55329">
        <ele>987</ele>
        <time>2016-04-27T09:19:49Z</time>
      </trkpt>
      <trkpt lat="44.50111" lon="3.55318">
        <ele>987</ele>
        <time>2016-04-27T09:20:01Z</time>
      </trkpt>
      <trkpt lat="44.50102" lon="3.55314">
        <ele>988</ele>
        <time>2016-04-27T09:20:09Z</time>
      </trkpt>
      <trkpt lat="44.50091" lon="3.55309">
        <ele>987</ele>
        <time>2016-04-27T09:20:17Z</time>
      </trkpt>
      <trkpt lat="44.50076" lon="3.55304">
        <ele>986</ele>
        <time>2016-04-27T09:20:28Z</time>
      </trkpt>
      <trkpt lat="44.50066" lon="3.553">
        <ele>986</ele>
        <time>2016-04-27T09:20:36Z</time>
      </trkpt>
      <trkpt lat="44.50046" lon="3.55296">
        <ele>983</ele>
        <time>2016-04-27T09:20:52Z</time>
      </trkpt>
      <trkpt lat="44.50017" lon="3.55288">
        <ele>984</ele>
        <time>2016-04-27T09:21:18Z</time>
      </trkpt>
      <trkpt lat="44.50018" lon="3.55292">
        <ele>982</ele>
        <time>2016-04-27T09:21:51Z</time>
      </trkpt>
      <trkpt lat="44.50016" lon="3.55298">
        <ele>981</ele>
        <time>2016-04-27T09:21:57Z</time>
      </trkpt>
      <trkpt lat="44.50016" lon="3.55304">
        <ele>980</ele>
        <time>2016-04-27T09:22:04Z</time>
      </trkpt>
      <trkpt lat="44.5002" lon="3.55307">
        <ele>980</ele>
        <time>2016-04-27T09:22:10Z</time>
      </trkpt>
      <trkpt lat="44.50041" lon="3.55318">
        <ele>980</ele>
        <time>2016-04-27T09:22:27Z</time>
      </trkpt>
      <trkpt lat="44.50045" lon="3.55322">
        <ele>980</ele>
        <time>2016-04-27T09:22:31Z</time>
      </trkpt>
      <trkpt lat="44.50057" lon="3.55334">
        <ele>977</ele>
        <time>2016-04-27T09:22:41Z</time>
      </trkpt>
      <trkpt lat="44.5006" lon="3.55338">
        <ele>978</ele>
        <time>2016-04-27T09:22:45Z</time>
      </trkpt>
      <trkpt lat="44.50064" lon="3.55343">
        <ele>978</ele>
        <time>2016-04-27T09:22:49Z</time>
      </trkpt>
      <trkpt lat="44.50069" lon="3.55347">
        <ele>977</ele>
        <time>2016-04-27T09:22:53Z</time>
      </trkpt>
      <trkpt lat="44.50078" lon="3.55356">
        <ele>977</ele>
        <time>2016-04-27T09:23:01Z</time>
      </trkpt>
      <trkpt lat="44.50096" lon="3.5537">
        <ele>978</ele>
        <time>2016-04-27T09:23:15Z</time>
      </trkpt>
      <trkpt lat="44.5011" lon="3.55382">
        <ele>976</ele>
        <time>2016-04-27T09:23:27Z</time>
      </trkpt>
      <trkpt lat="44.50114" lon="3.55385">
        <ele>976</ele>
        <time>2016-04-27T09:23:31Z</time>
      </trkpt>
      <trkpt lat="44.50119" lon="3.55389">
        <ele>976</ele>
        <time>2016-04-27T09:23:35Z</time>
      </trkpt>
      <trkpt lat="44.50122" lon="3.55394">
        <ele>977</ele>
        <time>2016-04-27T09:23:39Z</time>
      </trkpt>
      <trkpt lat="44.50126" lon="3.55398">
        <ele>977</ele>
        <time>2016-04-27T09:23:43Z</time>
      </trkpt>
      <trkpt lat="44.50131" lon="3.55403">
        <ele>976</ele>
        <time>2016-04-27T09:23:47Z</time>
      </trkpt>
      <trkpt lat="44.50135" lon="3.55406">
        <ele>977</ele>
        <time>2016-04-27T09:23:51Z</time>
      </trkpt>
      <trkpt lat="44.5014" lon="3.55411">
        <ele>977</ele>
        <time>2016-04-27T09:23:55Z</time>
      </trkpt>
      <trkpt lat="44.50144" lon="3.55416">
        <ele>977</ele>
        <time>2016-04-27T09:23:59Z</time>
      </trkpt>
      <trkpt lat="44.50148" lon="3.55421">
        <ele>977</ele>
        <time>2016-04-27T09:24:03Z</time>
      </trkpt>
      <trkpt lat="44.50154" lon="3.55431">
        <ele>977</ele>
        <time>2016-04-27T09:24:11Z</time>
      </trkpt>
      <trkpt lat="44.50165" lon="3.55446">
        <ele>974</ele>
        <time>2016-04-27T09:24:25Z</time>
      </trkpt>
      <trkpt lat="44.50169" lon="3.55449">
        <ele>974</ele>
        <time>2016-04-27T09:24:29Z</time>
      </trkpt>
      <trkpt lat="44.50169" lon="3.55457">
        <ele>974</ele>
        <time>2016-04-27T09:24:34Z</time>
      </trkpt>
      <trkpt lat="44.50166" lon="3.55463">
        <ele>973</ele>
        <time>2016-04-27T09:24:38Z</time>
      </trkpt>
      <trkpt lat="44.50161" lon="3.55461">
        <ele>973</ele>
        <time>2016-04-27T09:24:42Z</time>
      </trkpt>
      <trkpt lat="44.50149" lon="3.55447">
        <ele>969</ele>
        <time>2016-04-27T09:24:55Z</time>
      </trkpt>
      <trkpt lat="44.50136" lon="3.55435">
        <ele>971</ele>
        <time>2016-04-27T09:25:08Z</time>
      </trkpt>
      <trkpt lat="44.50128" lon="3.55427">
        <ele>973</ele>
        <time>2016-04-27T09:25:16Z</time>
      </trkpt>
      <trkpt lat="44.50124" lon="3.55423">
        <ele>973</ele>
        <time>2016-04-27T09:25:20Z</time>
      </trkpt>
      <trkpt lat="44.50094" lon="3.55401">
        <ele>974</ele>
        <time>2016-04-27T09:25:50Z</time>
      </trkpt>
      <trkpt lat="44.50068" lon="3.55382">
        <ele>971</ele>
        <time>2016-04-27T09:26:15Z</time>
      </trkpt>
      <trkpt lat="44.50063" lon="3.55378">
        <ele>971</ele>
        <time>2016-04-27T09:26:19Z</time>
      </trkpt>
      <trkpt lat="44.50036" lon="3.5537">
        <ele>965</ele>
        <time>2016-04-27T09:26:42Z</time>
      </trkpt>
      <trkpt lat="44.50026" lon="3.5537">
        <ele>965</ele>
        <time>2016-04-27T09:26:48Z</time>
      </trkpt>
      <trkpt lat="44.50012" lon="3.55362">
        <ele>962</ele>
        <time>2016-04-27T09:26:59Z</time>
      </trkpt>
      <trkpt lat="44.49997" lon="3.55362">
        <ele>959</ele>
        <time>2016-04-27T09:27:10Z</time>
      </trkpt>
      <trkpt lat="44.49991" lon="3.55362">
        <ele>959</ele>
        <time>2016-04-27T09:27:14Z</time>
      </trkpt>
      <trkpt lat="44.49986" lon="3.55362">
        <ele>959</ele>
        <time>2016-04-27T09:27:18Z</time>
      </trkpt>
      <trkpt lat="44.4998" lon="3.55362">
        <ele>960</ele>
        <time>2016-04-27T09:27:23Z</time>
      </trkpt>
      <trkpt lat="44.49951" lon="3.55355">
        <ele>955</ele>
        <time>2016-04-27T09:27:50Z</time>
      </trkpt>
      <trkpt lat="44.49946" lon="3.55354">
        <ele>956</ele>
        <time>2016-04-27T09:27:54Z</time>
      </trkpt>
      <trkpt lat="44.49936" lon="3.55348">
        <ele>955</ele>
        <time>2016-04-27T09:28:05Z</time>
      </trkpt>
      <trkpt lat="44.49931" lon="3.55347">
        <ele>956</ele>
        <time>2016-04-27T09:28:09Z</time>
      </trkpt>
      <trkpt lat="44.49926" lon="3.55349">
        <ele>957</ele>
        <time>2016-04-27T09:28:13Z</time>
      </trkpt>
      <trkpt lat="44.49921" lon="3.55345">
        <ele>956</ele>
        <time>2016-04-27T09:28:17Z</time>
      </trkpt>
      <trkpt lat="44.49918" lon="3.55341">
        <ele>954</ele>
        <time>2016-04-27T09:28:21Z</time>
      </trkpt>
      <trkpt lat="44.49908" lon="3.55339">
        <ele>953</ele>
        <time>2016-04-27T09:28:28Z</time>
      </trkpt>
      <trkpt lat="44.49899" lon="3.55335">
        <ele>953</ele>
        <time>2016-04-27T09:28:34Z</time>
      </trkpt>
      <trkpt lat="44.49894" lon="3.55333">
        <ele>953</ele>
        <time>2016-04-27T09:28:38Z</time>
      </trkpt>
      <trkpt lat="44.49881" lon="3.55325">
        <ele>951</ele>
        <time>2016-04-27T09:28:50Z</time>
      </trkpt>
      <trkpt lat="44.49875" lon="3.55326">
        <ele>952</ele>
        <time>2016-04-27T09:28:54Z</time>
      </trkpt>
      <trkpt lat="44.4987" lon="3.55324">
        <ele>952</ele>
        <time>2016-04-27T09:28:57Z</time>
      </trkpt>
      <trkpt lat="44.49865" lon="3.55323">
        <ele>952</ele>
        <time>2016-04-27T09:29:02Z</time>
      </trkpt>
      <trkpt lat="44.49858" lon="3.55321">
        <ele>951</ele>
        <time>2016-04-27T09:29:12Z</time>
      </trkpt>
      <trkpt lat="44.49856" lon="3.55315">
        <ele>950</ele>
        <time>2016-04-27T09:29:16Z</time>
      </trkpt>
      <trkpt lat="44.49852" lon="3.55312">
        <ele>950</ele>
        <time>2016-04-27T09:29:19Z</time>
      </trkpt>
      <trkpt lat="44.49827" lon="3.55304">
        <ele>952</ele>
        <time>2016-04-27T09:29:35Z</time>
      </trkpt>
      <trkpt lat="44.49825" lon="3.55299">
        <ele>951</ele>
        <time>2016-04-27T09:29:38Z</time>
      </trkpt>
      <trkpt lat="44.49821" lon="3.55295">
        <ele>950</ele>
        <time>2016-04-27T09:29:41Z</time>
      </trkpt>
      <trkpt lat="44.49816" lon="3.55293">
        <ele>949</ele>
        <time>2016-04-27T09:29:45Z</time>
      </trkpt>
      <trkpt lat="44.49811" lon="3.55291">
        <ele>949</ele>
        <time>2016-04-27T09:29:49Z</time>
      </trkpt>
      <trkpt lat="44.49802" lon="3.55282">
        <ele>948</ele>
        <time>2016-04-27T09:29:59Z</time>
      </trkpt>
      <trkpt lat="44.49798" lon="3.5528">
        <ele>948</ele>
        <time>2016-04-27T09:30:04Z</time>
      </trkpt>
      <trkpt lat="44.49772" lon="3.5524">
        <ele>941</ele>
        <time>2016-04-27T09:30:34Z</time>
      </trkpt>
      <trkpt lat="44.49763" lon="3.55236">
        <ele>941</ele>
        <time>2016-04-27T09:30:44Z</time>
      </trkpt>
      <trkpt lat="44.49756" lon="3.55226">
        <ele>940</ele>
        <time>2016-04-27T09:30:50Z</time>
      </trkpt>
      <trkpt lat="44.49747" lon="3.55224">
        <ele>940</ele>
        <time>2016-04-27T09:30:56Z</time>
      </trkpt>
      <trkpt lat="44.49744" lon="3.5523">
        <ele>942</ele>
        <time>2016-04-27T09:31:01Z</time>
      </trkpt>
      <trkpt lat="44.49748" lon="3.55233">
        <ele>941</ele>
        <time>2016-04-27T09:31:06Z</time>
      </trkpt>
      <trkpt lat="44.49763" lon="3.55238">
        <ele>936</ele>
        <time>2016-04-27T09:31:22Z</time>
      </trkpt>
      <trkpt lat="44.49777" lon="3.55259">
        <ele>929</ele>
        <time>2016-04-27T09:31:42Z</time>
      </trkpt>
      <trkpt lat="44.49787" lon="3.55265">
        <ele>928</ele>
        <time>2016-04-27T09:31:50Z</time>
      </trkpt>
      <trkpt lat="44.49811" lon="3.55303">
        <ele>940</ele>
        <time>2016-04-27T09:32:20Z</time>
      </trkpt>
      <trkpt lat="44.49814" lon="3.55307">
        <ele>940</ele>
        <time>2016-04-27T09:32:23Z</time>
      </trkpt>
      <trkpt lat="44.49849" lon="3.55337">
        <ele>927</ele>
        <time>2016-04-27T09:32:56Z</time>
      </trkpt>
      <trkpt lat="44.49855" lon="3.5534">
        <ele>925</ele>
        <time>2016-04-27T09:33:02Z</time>
      </trkpt>
      <trkpt lat="44.49853" lon="3.55348">
        <ele>924</ele>
        <time>2016-04-27T09:33:24Z</time>
      </trkpt>
      <trkpt lat="44.49858" lon="3.55351">
        <ele>926</ele>
        <time>2016-04-27T09:33:35Z</time>
      </trkpt>
      <trkpt lat="44.49866" lon="3.55361">
        <ele>930</ele>
        <time>2016-04-27T09:33:48Z</time>
      </trkpt>
      <trkpt lat="44.49874" lon="3.55381">
        <ele>934</ele>
        <time>2016-04-27T09:34:01Z</time>
      </trkpt>
      <trkpt lat="44.4988" lon="3.55386">
        <ele>933</ele>
        <time>2016-04-27T09:34:06Z</time>
      </trkpt>
      <trkpt lat="44.4992" lon="3.55419">
        <ele>915</ele>
        <time>2016-04-27T09:34:37Z</time>
      </trkpt>
      <trkpt lat="44.49923" lon="3.55423">
        <ele>914</ele>
        <time>2016-04-27T09:34:40Z</time>
      </trkpt>
      <trkpt lat="44.49932" lon="3.55429">
        <ele>915</ele>
        <time>2016-04-27T09:34:47Z</time>
      </trkpt>
      <trkpt lat="44.49936" lon="3.55434">
        <ele>914</ele>
        <time>2016-04-27T09:34:52Z</time>
      </trkpt>
      <trkpt lat="44.49944" lon="3.55443">
        <ele>914</ele>
        <time>2016-04-27T09:35:01Z</time>
      </trkpt>
      <trkpt lat="44.49957" lon="3.55455">
        <ele>911</ele>
        <time>2016-04-27T09:35:12Z</time>
      </trkpt>
      <trkpt lat="44.49961" lon="3.55459">
        <ele>911</ele>
        <time>2016-04-27T09:35:15Z</time>
      </trkpt>
      <trkpt lat="44.49977" lon="3.55481">
        <ele>904</ele>
        <time>2016-04-27T09:35:56Z</time>
      </trkpt>
      <trkpt lat="44.49997" lon="3.55493">
        <ele>902</ele>
        <time>2016-04-27T09:36:12Z</time>
      </trkpt>
      <trkpt lat="44.50002" lon="3.55495">
        <ele>902</ele>
        <time>2016-04-27T09:36:16Z</time>
      </trkpt>
      <trkpt lat="44.50012" lon="3.55498">
        <ele>903</ele>
        <time>2016-04-27T09:36:24Z</time>
      </trkpt>
      <trkpt lat="44.50016" lon="3.555">
        <ele>902</ele>
        <time>2016-04-27T09:36:28Z</time>
      </trkpt>
      <trkpt lat="44.5002" lon="3.55504">
        <ele>900</ele>
        <time>2016-04-27T09:36:33Z</time>
      </trkpt>
      <trkpt lat="44.5002" lon="3.5551">
        <ele>899</ele>
        <time>2016-04-27T09:36:38Z</time>
      </trkpt>
      <trkpt lat="44.50015" lon="3.55512">
        <ele>899</ele>
        <time>2016-04-27T09:36:42Z</time>
      </trkpt>
      <trkpt lat="44.50009" lon="3.55512">
        <ele>899</ele>
        <time>2016-04-27T09:36:46Z</time>
      </trkpt>
      <trkpt lat="44.49999" lon="3.55509">
        <ele>899</ele>
        <time>2016-04-27T09:36:54Z</time>
      </trkpt>
      <trkpt lat="44.49994" lon="3.55508">
        <ele>899</ele>
        <time>2016-04-27T09:36:58Z</time>
      </trkpt>
      <trkpt lat="44.49993" lon="3.5551">
        <ele>901</ele>
        <time>2016-04-27T09:37:12Z</time>
      </trkpt>
      <trkpt lat="44.49989" lon="3.55505">
        <ele>901</ele>
        <time>2016-04-27T09:37:17Z</time>
      </trkpt>
      <trkpt lat="44.49984" lon="3.55504">
        <ele>901</ele>
        <time>2016-04-27T09:37:22Z</time>
      </trkpt>
      <trkpt lat="44.49978" lon="3.55506">
        <ele>902</ele>
        <time>2016-04-27T09:37:28Z</time>
      </trkpt>
      <trkpt lat="44.49981" lon="3.55512">
        <ele>901</ele>
        <time>2016-04-27T09:37:37Z</time>
      </trkpt>
      <trkpt lat="44.49984" lon="3.55519">
        <ele>900</ele>
        <time>2016-04-27T09:37:51Z</time>
      </trkpt>
      <trkpt lat="44.49984" lon="3.55525">
        <ele>900</ele>
        <time>2016-04-27T09:37:56Z</time>
      </trkpt>
      <trkpt lat="44.49987" lon="3.55531">
        <ele>897</ele>
        <time>2016-04-27T09:38:03Z</time>
      </trkpt>
      <trkpt lat="44.49991" lon="3.55543">
        <ele>890</ele>
        <time>2016-04-27T09:38:20Z</time>
      </trkpt>
      <trkpt lat="44.49995" lon="3.55547">
        <ele>888</ele>
        <time>2016-04-27T09:38:26Z</time>
      </trkpt>
      <trkpt lat="44.49997" lon="3.55553">
        <ele>885</ele>
        <time>2016-04-27T09:38:34Z</time>
      </trkpt>
      <trkpt lat="44.49995" lon="3.55559">
        <ele>885</ele>
        <time>2016-04-27T09:38:40Z</time>
      </trkpt>
      <trkpt lat="44.49994" lon="3.55566">
        <ele>884</ele>
        <time>2016-04-27T09:38:46Z</time>
      </trkpt>
      <trkpt lat="44.49997" lon="3.55586">
        <ele>883</ele>
        <time>2016-04-27T09:39:06Z</time>
      </trkpt>
      <trkpt lat="44.5" lon="3.55592">
        <ele>883</ele>
        <time>2016-04-27T09:39:13Z</time>
      </trkpt>
      <trkpt lat="44.49998" lon="3.55627">
        <ele>878</ele>
        <time>2016-04-27T09:39:43Z</time>
      </trkpt>
      <trkpt lat="44.49996" lon="3.55634">
        <ele>877</ele>
        <time>2016-04-27T09:39:48Z</time>
      </trkpt>
      <trkpt lat="44.49995" lon="3.55641">
        <ele>877</ele>
        <time>2016-04-27T09:39:54Z</time>
      </trkpt>
      <trkpt lat="44.49998" lon="3.55647">
        <ele>878</ele>
        <time>2016-04-27T09:40:00Z</time>
      </trkpt>
      <trkpt lat="44.5" lon="3.55653">
        <ele>876</ele>
        <time>2016-04-27T09:40:06Z</time>
      </trkpt>
      <trkpt lat="44.49997" lon="3.55672">
        <ele>870</ele>
        <time>2016-04-27T09:40:25Z</time>
      </trkpt>
      <trkpt lat="44.49997" lon="3.55685">
        <ele>870</ele>
        <time>2016-04-27T09:40:36Z</time>
      </trkpt>
      <trkpt lat="44.49998" lon="3.55693">
        <ele>869</ele>
        <time>2016-04-27T09:40:42Z</time>
      </trkpt>
      <trkpt lat="44.49996" lon="3.557">
        <ele>869</ele>
        <time>2016-04-27T09:40:47Z</time>
      </trkpt>
      <trkpt lat="44.49995" lon="3.55707">
        <ele>869</ele>
        <time>2016-04-27T09:40:53Z</time>
      </trkpt>
      <trkpt lat="44.49996" lon="3.55714">
        <ele>870</ele>
        <time>2016-04-27T09:40:58Z</time>
      </trkpt>
      <trkpt lat="44.49994" lon="3.5572">
        <ele>871</ele>
        <time>2016-04-27T09:41:03Z</time>
      </trkpt>
      <trkpt lat="44.49994" lon="3.55727">
        <ele>872</ele>
        <time>2016-04-27T09:41:07Z</time>
      </trkpt>
      <trkpt lat="44.49994" lon="3.55734">
        <ele>873</ele>
        <time>2016-04-27T09:41:12Z</time>
      </trkpt>
      <trkpt lat="44.49996" lon="3.55747">
        <ele>872</ele>
        <time>2016-04-27T09:41:20Z</time>
      </trkpt>
      <trkpt lat="44.49995" lon="3.55754">
        <ele>872</ele>
        <time>2016-04-27T09:41:25Z</time>
      </trkpt>
      <trkpt lat="44.49994" lon="3.55761">
        <ele>872</ele>
        <time>2016-04-27T09:41:30Z</time>
      </trkpt>
      <trkpt lat="44.49993" lon="3.55767">
        <ele>872</ele>
        <time>2016-04-27T09:41:35Z</time>
      </trkpt>
      <trkpt lat="44.49994" lon="3.55774">
        <ele>873</ele>
        <time>2016-04-27T09:41:41Z</time>
      </trkpt>
      <trkpt lat="44.49997" lon="3.55788">
        <ele>870</ele>
        <time>2016-04-27T09:41:52Z</time>
      </trkpt>
      <trkpt lat="44.50015" lon="3.5582">
        <ele>856</ele>
        <time>2016-04-27T09:42:22Z</time>
      </trkpt>
      <trkpt lat="44.50021" lon="3.55833">
        <ele>855</ele>
        <time>2016-04-27T09:42:32Z</time>
      </trkpt>
      <trkpt lat="44.50022" lon="3.55839">
        <ele>854</ele>
        <time>2016-04-27T09:42:37Z</time>
      </trkpt>
      <trkpt lat="44.50027" lon="3.55851">
        <ele>853</ele>
        <time>2016-04-27T09:42:45Z</time>
      </trkpt>
      <trkpt lat="44.5003" lon="3.55856">
        <ele>853</ele>
        <time>2016-04-27T09:42:49Z</time>
      </trkpt>
      <trkpt lat="44.50039" lon="3.55864">
        <ele>853</ele>
        <time>2016-04-27T09:42:59Z</time>
      </trkpt>
      <trkpt lat="44.50043" lon="3.55868">
        <ele>853</ele>
        <time>2016-04-27T09:43:03Z</time>
      </trkpt>
      <trkpt lat="44.5005" lon="3.55876">
        <ele>853</ele>
        <time>2016-04-27T09:43:12Z</time>
      </trkpt>
      <trkpt lat="44.50073" lon="3.55924">
        <ele>841</ele>
        <time>2016-04-27T09:43:46Z</time>
      </trkpt>
      <trkpt lat="44.50079" lon="3.55943">
        <ele>838</ele>
        <time>2016-04-27T09:43:58Z</time>
      </trkpt>
      <trkpt lat="44.5008" lon="3.55949">
        <ele>838</ele>
        <time>2016-04-27T09:44:02Z</time>
      </trkpt>
      <trkpt lat="44.50079" lon="3.55956">
        <ele>839</ele>
        <time>2016-04-27T09:44:07Z</time>
      </trkpt>
      <trkpt lat="44.50081" lon="3.55963">
        <ele>839</ele>
        <time>2016-04-27T09:44:12Z</time>
      </trkpt>
      <trkpt lat="44.50088" lon="3.55973">
        <ele>838</ele>
        <time>2016-04-27T09:44:21Z</time>
      </trkpt>
      <trkpt lat="44.50091" lon="3.5598">
        <ele>837</ele>
        <time>2016-04-27T09:44:26Z</time>
      </trkpt>
      <trkpt lat="44.50093" lon="3.55987">
        <ele>838</ele>
        <time>2016-04-27T09:44:31Z</time>
      </trkpt>
      <trkpt lat="44.50094" lon="3.55994">
        <ele>837</ele>
        <time>2016-04-27T09:44:36Z</time>
      </trkpt>
      <trkpt lat="44.50094" lon="3.56001">
        <ele>837</ele>
        <time>2016-04-27T09:44:41Z</time>
      </trkpt>
      <trkpt lat="44.50093" lon="3.56014">
        <ele>835</ele>
        <time>2016-04-27T09:44:51Z</time>
      </trkpt>
      <trkpt lat="44.50091" lon="3.56022">
        <ele>835</ele>
        <time>2016-04-27T09:44:56Z</time>
      </trkpt>
      <trkpt lat="44.50086" lon="3.56034">
        <ele>836</ele>
        <time>2016-04-27T09:45:04Z</time>
      </trkpt>
      <trkpt lat="44.50084" lon="3.56041">
        <ele>836</ele>
        <time>2016-04-27T09:45:08Z</time>
      </trkpt>
      <trkpt lat="44.50077" lon="3.56061">
        <ele>835</ele>
        <time>2016-04-27T09:45:20Z</time>
      </trkpt>
      <trkpt lat="44.50075" lon="3.56067">
        <ele>834</ele>
        <time>2016-04-27T09:45:24Z</time>
      </trkpt>
      <trkpt lat="44.50071" lon="3.5608">
        <ele>833</ele>
        <time>2016-04-27T09:45:35Z</time>
      </trkpt>
      <trkpt lat="44.50074" lon="3.56075">
        <ele>834</ele>
        <time>2016-04-27T09:45:45Z</time>
      </trkpt>
      <trkpt lat="44.50077" lon="3.56076">
        <ele>835</ele>
        <time>2016-04-27T09:46:15Z</time>
      </trkpt>
      <trkpt lat="44.50077" lon="3.56084">
        <ele>835</ele>
        <time>2016-04-27T09:46:21Z</time>
      </trkpt>
      <trkpt lat="44.50075" lon="3.56119">
        <ele>828</ele>
        <time>2016-04-27T09:46:44Z</time>
      </trkpt>
      <trkpt lat="44.50072" lon="3.56124">
        <ele>827</ele>
        <time>2016-04-27T09:46:48Z</time>
      </trkpt>
      <trkpt lat="44.50067" lon="3.56127">
        <ele>826</ele>
        <time>2016-04-27T09:46:52Z</time>
      </trkpt>
      <trkpt lat="44.50062" lon="3.56131">
        <ele>825</ele>
        <time>2016-04-27T09:46:56Z</time>
      </trkpt>
      <trkpt lat="44.50057" lon="3.56135">
        <ele>825</ele>
        <time>2016-04-27T09:47:00Z</time>
      </trkpt>
      <trkpt lat="44.50053" lon="3.56139">
        <ele>825</ele>
        <time>2016-04-27T09:47:04Z</time>
      </trkpt>
      <trkpt lat="44.5005" lon="3.56144">
        <ele>825</ele>
        <time>2016-04-27T09:47:10Z</time>
      </trkpt>
      <trkpt lat="44.50047" lon="3.56149">
        <ele>825</ele>
        <time>2016-04-27T09:47:14Z</time>
      </trkpt>
      <trkpt lat="44.50033" lon="3.56179">
        <ele>820</ele>
        <time>2016-04-27T09:47:35Z</time>
      </trkpt>
      <trkpt lat="44.50025" lon="3.56199">
        <ele>823</ele>
        <time>2016-04-27T09:47:49Z</time>
      </trkpt>
      <trkpt lat="44.50016" lon="3.56225">
        <ele>821</ele>
        <time>2016-04-27T09:48:05Z</time>
      </trkpt>
      <trkpt lat="44.50006" lon="3.56249">
        <ele>817</ele>
        <time>2016-04-27T09:48:21Z</time>
      </trkpt>
      <trkpt lat="44.50001" lon="3.56263">
        <ele>819</ele>
        <time>2016-04-27T09:48:29Z</time>
      </trkpt>
      <trkpt lat="44.49999" lon="3.56269">
        <ele>819</ele>
        <time>2016-04-27T09:48:33Z</time>
      </trkpt>
      <trkpt lat="44.49995" lon="3.56275">
        <ele>817</ele>
        <time>2016-04-27T09:48:37Z</time>
      </trkpt>
      <trkpt lat="44.4998" lon="3.56296">
        <ele>816</ele>
        <time>2016-04-27T09:48:54Z</time>
      </trkpt>
      <trkpt lat="44.49977" lon="3.56302">
        <ele>816</ele>
        <time>2016-04-27T09:48:58Z</time>
      </trkpt>
      <trkpt lat="44.49971" lon="3.56321">
        <ele>819</ele>
        <time>2016-04-27T09:49:10Z</time>
      </trkpt>
      <trkpt lat="44.49969" lon="3.56335">
        <ele>820</ele>
        <time>2016-04-27T09:49:19Z</time>
      </trkpt>
      <trkpt lat="44.49967" lon="3.56355">
        <ele>824</ele>
        <time>2016-04-27T09:49:36Z</time>
      </trkpt>
      <trkpt lat="44.49967" lon="3.56363">
        <ele>825</ele>
        <time>2016-04-27T09:49:41Z</time>
      </trkpt>
      <trkpt lat="44.49966" lon="3.56369">
        <ele>824</ele>
        <time>2016-04-27T09:49:45Z</time>
      </trkpt>
      <trkpt lat="44.49966" lon="3.56383">
        <ele>827</ele>
        <time>2016-04-27T09:49:56Z</time>
      </trkpt>
      <trkpt lat="44.49967" lon="3.5639">
        <ele>827</ele>
        <time>2016-04-27T09:50:01Z</time>
      </trkpt>
      <trkpt lat="44.49969" lon="3.56396">
        <ele>828</ele>
        <time>2016-04-27T09:50:07Z</time>
      </trkpt>
      <trkpt lat="44.49969" lon="3.56404">
        <ele>828</ele>
        <time>2016-04-27T09:50:16Z</time>
      </trkpt>
      <trkpt lat="44.49973" lon="3.56418">
        <ele>830</ele>
        <time>2016-04-27T09:50:35Z</time>
      </trkpt>
      <trkpt lat="44.49974" lon="3.56425">
        <ele>830</ele>
        <time>2016-04-27T09:50:42Z</time>
      </trkpt>
      <trkpt lat="44.49973" lon="3.56431">
        <ele>830</ele>
        <time>2016-04-27T09:50:48Z</time>
      </trkpt>
      <trkpt lat="44.49971" lon="3.56438">
        <ele>830</ele>
        <time>2016-04-27T09:50:54Z</time>
      </trkpt>
      <trkpt lat="44.49965" lon="3.56456">
        <ele>832</ele>
        <time>2016-04-27T09:51:13Z</time>
      </trkpt>
      <trkpt lat="44.49961" lon="3.56459">
        <ele>832</ele>
        <time>2016-04-27T09:51:19Z</time>
      </trkpt>
      <trkpt lat="44.49956" lon="3.56462">
        <ele>832</ele>
        <time>2016-04-27T09:51:24Z</time>
      </trkpt>
      <trkpt lat="44.49953" lon="3.56467">
        <ele>832</ele>
        <time>2016-04-27T09:51:31Z</time>
      </trkpt>
      <trkpt lat="44.49951" lon="3.56473">
        <ele>833</ele>
        <time>2016-04-27T09:51:37Z</time>
      </trkpt>
      <trkpt lat="44.49955" lon="3.56498">
        <ele>837</ele>
        <time>2016-04-27T09:51:57Z</time>
      </trkpt>
      <trkpt lat="44.49953" lon="3.56505">
        <ele>838</ele>
        <time>2016-04-27T09:52:03Z</time>
      </trkpt>
      <trkpt lat="44.49952" lon="3.56513">
        <ele>838</ele>
        <time>2016-04-27T09:52:09Z</time>
      </trkpt>
      <trkpt lat="44.49952" lon="3.5652">
        <ele>837</ele>
        <time>2016-04-27T09:52:14Z</time>
      </trkpt>
      <trkpt lat="44.49953" lon="3.56534">
        <ele>837</ele>
        <time>2016-04-27T09:52:25Z</time>
      </trkpt>
      <trkpt lat="44.49956" lon="3.56546">
        <ele>836</ele>
        <time>2016-04-27T09:52:43Z</time>
      </trkpt>
      <trkpt lat="44.49958" lon="3.56567">
        <ele>838</ele>
        <time>2016-04-27T09:52:59Z</time>
      </trkpt>
      <trkpt lat="44.49959" lon="3.56573">
        <ele>838</ele>
        <time>2016-04-27T09:53:04Z</time>
      </trkpt>
      <trkpt lat="44.4996" lon="3.56594">
        <ele>835</ele>
        <time>2016-04-27T09:53:20Z</time>
      </trkpt>
      <trkpt lat="44.4996" lon="3.56601">
        <ele>836</ele>
        <time>2016-04-27T09:53:26Z</time>
      </trkpt>
      <trkpt lat="44.49962" lon="3.56608">
        <ele>837</ele>
        <time>2016-04-27T09:53:31Z</time>
      </trkpt>
      <trkpt lat="44.49962" lon="3.56621">
        <ele>838</ele>
        <time>2016-04-27T09:53:39Z</time>
      </trkpt>
      <trkpt lat="44.49961" lon="3.56629">
        <ele>838</ele>
        <time>2016-04-27T09:53:43Z</time>
      </trkpt>
      <trkpt lat="44.49961" lon="3.5665">
        <ele>838</ele>
        <time>2016-04-27T09:53:55Z</time>
      </trkpt>
      <trkpt lat="44.49961" lon="3.56693">
        <ele>834</ele>
        <time>2016-04-27T09:54:23Z</time>
      </trkpt>
      <trkpt lat="44.49969" lon="3.56719">
        <ele>834</ele>
        <time>2016-04-27T09:54:39Z</time>
      </trkpt>
      <trkpt lat="44.49971" lon="3.56725">
        <ele>835</ele>
        <time>2016-04-27T09:54:43Z</time>
      </trkpt>
      <trkpt lat="44.49981" lon="3.56779">
        <ele>831</ele>
        <time>2016-04-27T09:55:15Z</time>
      </trkpt>
      <trkpt lat="44.49981" lon="3.56786">
        <ele>831</ele>
        <time>2016-04-27T09:55:19Z</time>
      </trkpt>
      <trkpt lat="44.49983" lon="3.5679">
        <ele>831</ele>
        <time>2016-04-27T09:55:28Z</time>
      </trkpt>
      <trkpt lat="44.49984" lon="3.56798">
        <ele>831</ele>
        <time>2016-04-27T09:55:37Z</time>
      </trkpt>
      <trkpt lat="44.49985" lon="3.56805">
        <ele>831</ele>
        <time>2016-04-27T09:55:41Z</time>
      </trkpt>
      <trkpt lat="44.49986" lon="3.56819">
        <ele>830</ele>
        <time>2016-04-27T09:55:49Z</time>
      </trkpt>
      <trkpt lat="44.49987" lon="3.56825">
        <ele>830</ele>
        <time>2016-04-27T09:55:53Z</time>
      </trkpt>
      <trkpt lat="44.49988" lon="3.56845">
        <ele>832</ele>
        <time>2016-04-27T09:56:05Z</time>
      </trkpt>
      <trkpt lat="44.49989" lon="3.56872">
        <ele>833</ele>
        <time>2016-04-27T09:56:21Z</time>
      </trkpt>
      <trkpt lat="44.4999" lon="3.56886">
        <ele>833</ele>
        <time>2016-04-27T09:56:29Z</time>
      </trkpt>
      <trkpt lat="44.49989" lon="3.569">
        <ele>832</ele>
        <time>2016-04-27T09:56:37Z</time>
      </trkpt>
      <trkpt lat="44.49988" lon="3.56914">
        <ele>831</ele>
        <time>2016-04-27T09:56:45Z</time>
      </trkpt>
      <trkpt lat="44.49984" lon="3.56965">
        <ele>836</ele>
        <time>2016-04-27T09:57:19Z</time>
      </trkpt>
      <trkpt lat="44.49983" lon="3.56972">
        <ele>837</ele>
        <time>2016-04-27T09:57:24Z</time>
      </trkpt>
      <trkpt lat="44.49983" lon="3.56979">
        <ele>837</ele>
        <time>2016-04-27T09:57:28Z</time>
      </trkpt>
      <trkpt lat="44.49983" lon="3.56992">
        <ele>835</ele>
        <time>2016-04-27T09:57:36Z</time>
      </trkpt>
      <trkpt lat="44.49983" lon="3.57006">
        <ele>835</ele>
        <time>2016-04-27T09:57:44Z</time>
      </trkpt>
      <trkpt lat="44.49986" lon="3.57049">
        <ele>833</ele>
        <time>2016-04-27T09:58:10Z</time>
      </trkpt>
      <trkpt lat="44.49989" lon="3.57063">
        <ele>833</ele>
        <time>2016-04-27T09:58:20Z</time>
      </trkpt>
      <trkpt lat="44.49991" lon="3.57069">
        <ele>835</ele>
        <time>2016-04-27T09:58:24Z</time>
      </trkpt>
      <trkpt lat="44.49992" lon="3.57076">
        <ele>835</ele>
        <time>2016-04-27T09:58:29Z</time>
      </trkpt>
      <trkpt lat="44.49993" lon="3.57082">
        <ele>835</ele>
        <time>2016-04-27T09:58:34Z</time>
      </trkpt>
      <trkpt lat="44.49995" lon="3.57086">
        <ele>834</ele>
        <time>2016-04-27T09:58:42Z</time>
      </trkpt>
      <trkpt lat="44.5" lon="3.57104">
        <ele>835</ele>
        <time>2016-04-27T09:59:01Z</time>
      </trkpt>
      <trkpt lat="44.50002" lon="3.57106">
        <ele>837</ele>
        <time>2016-04-27T09:59:25Z</time>
      </trkpt>
      <trkpt lat="44.50005" lon="3.57112">
        <ele>837</ele>
        <time>2016-04-27T09:59:38Z</time>
      </trkpt>
      <trkpt lat="44.50007" lon="3.57118">
        <ele>835</ele>
        <time>2016-04-27T09:59:44Z</time>
      </trkpt>
      <trkpt lat="44.50007" lon="3.57121">
        <ele>834</ele>
        <time>2016-04-27T09:59:51Z</time>
      </trkpt>
      <trkpt lat="44.50019" lon="3.57148">
        <ele>834</ele>
        <time>2016-04-27T10:00:22Z</time>
      </trkpt>
      <trkpt lat="44.50022" lon="3.57154">
        <ele>834</ele>
        <time>2016-04-27T10:00:28Z</time>
      </trkpt>
      <trkpt lat="44.50024" lon="3.5716">
        <ele>833</ele>
        <time>2016-04-27T10:00:33Z</time>
      </trkpt>
      <trkpt lat="44.50028" lon="3.57163">
        <ele>833</ele>
        <time>2016-04-27T10:00:39Z</time>
      </trkpt>
      <trkpt lat="44.50031" lon="3.57169">
        <ele>833</ele>
        <time>2016-04-27T10:00:44Z</time>
      </trkpt>
      <trkpt lat="44.50033" lon="3.57175">
        <ele>833</ele>
        <time>2016-04-27T10:00:49Z</time>
      </trkpt>
      <trkpt lat="44.50038" lon="3.57178">
        <ele>834</ele>
        <time>2016-04-27T10:00:54Z</time>
      </trkpt>
      <trkpt lat="44.50042" lon="3.5718">
        <ele>834</ele>
        <time>2016-04-27T10:00:58Z</time>
      </trkpt>
      <trkpt lat="44.50047" lon="3.57183">
        <ele>832</ele>
        <time>2016-04-27T10:01:04Z</time>
      </trkpt>
      <trkpt lat="44.50051" lon="3.57186">
        <ele>832</ele>
        <time>2016-04-27T10:01:09Z</time>
      </trkpt>
      <trkpt lat="44.50056" lon="3.57189">
        <ele>832</ele>
        <time>2016-04-27T10:01:14Z</time>
      </trkpt>
      <trkpt lat="44.50061" lon="3.572">
        <ele>834</ele>
        <time>2016-04-27T10:01:24Z</time>
      </trkpt>
      <trkpt lat="44.50061" lon="3.57207">
        <ele>834</ele>
        <time>2016-04-27T10:01:29Z</time>
      </trkpt>
      <trkpt lat="44.50062" lon="3.5722">
        <ele>834</ele>
        <time>2016-04-27T10:01:37Z</time>
      </trkpt>
      <trkpt lat="44.50063" lon="3.57241">
        <ele>838</ele>
        <time>2016-04-27T10:01:52Z</time>
      </trkpt>
      <trkpt lat="44.50062" lon="3.57247">
        <ele>839</ele>
        <time>2016-04-27T10:01:57Z</time>
      </trkpt>
      <trkpt lat="44.50061" lon="3.57254">
        <ele>839</ele>
        <time>2016-04-27T10:02:05Z</time>
      </trkpt>
      <trkpt lat="44.5006" lon="3.57257">
        <ele>842</ele>
        <time>2016-04-27T10:02:24Z</time>
      </trkpt>
      <trkpt lat="44.50058" lon="3.57264">
        <ele>842</ele>
        <time>2016-04-27T10:02:28Z</time>
      </trkpt>
      <trkpt lat="44.50057" lon="3.5727">
        <ele>842</ele>
        <time>2016-04-27T10:02:32Z</time>
      </trkpt>
      <trkpt lat="44.5006" lon="3.57276">
        <ele>843</ele>
        <time>2016-04-27T10:02:36Z</time>
      </trkpt>
      <trkpt lat="44.5006" lon="3.57283">
        <ele>843</ele>
        <time>2016-04-27T10:02:41Z</time>
      </trkpt>
      <trkpt lat="44.5006" lon="3.57301">
        <ele>840</ele>
        <time>2016-04-27T10:02:59Z</time>
      </trkpt>
      <trkpt lat="44.5006" lon="3.57315">
        <ele>844</ele>
        <time>2016-04-27T10:03:17Z</time>
      </trkpt>
      <trkpt lat="44.5006" lon="3.57321">
        <ele>844</ele>
        <time>2016-04-27T10:03:22Z</time>
      </trkpt>
      <trkpt lat="44.50061" lon="3.5734">
        <ele>849</ele>
        <time>2016-04-27T10:03:41Z</time>
      </trkpt>
      <trkpt lat="44.50063" lon="3.5734">
        <ele>848</ele>
        <time>2016-04-27T10:04:23Z</time>
      </trkpt>
      <trkpt lat="44.50063" lon="3.57334">
        <ele>848</ele>
        <time>2016-04-27T10:09:39Z</time>
      </trkpt>
      <trkpt lat="44.50059" lon="3.57332">
        <ele>849</ele>
        <time>2016-04-27T10:09:56Z</time>
      </trkpt>
      <trkpt lat="44.50057" lon="3.57335">
        <ele>849</ele>
        <time>2016-04-27T10:10:08Z</time>
      </trkpt>
      <trkpt lat="44.50055" lon="3.57337">
        <ele>850</ele>
        <time>2016-04-27T10:10:18Z</time>
      </trkpt>
      <trkpt lat="44.50053" lon="3.57343">
        <ele>850</ele>
        <time>2016-04-27T10:10:23Z</time>
      </trkpt>
      <trkpt lat="44.50053" lon="3.5735">
        <ele>851</ele>
        <time>2016-04-27T10:10:28Z</time>
      </trkpt>
      <trkpt lat="44.50052" lon="3.57362">
        <ele>846</ele>
        <time>2016-04-27T10:10:41Z</time>
      </trkpt>
      <trkpt lat="44.50049" lon="3.57367">
        <ele>846</ele>
        <time>2016-04-27T10:10:48Z</time>
      </trkpt>
      <trkpt lat="44.50048" lon="3.5737">
        <ele>845</ele>
        <time>2016-04-27T10:10:54Z</time>
      </trkpt>
      <trkpt lat="44.50048" lon="3.57372">
        <ele>845</ele>
        <time>2016-04-27T10:11:35Z</time>
      </trkpt>
      <trkpt lat="44.50058" lon="3.57378">
        <ele>848</ele>
        <time>2016-04-27T10:12:08Z</time>
      </trkpt>
      <trkpt lat="44.50058" lon="3.57378">
        <ele>851</ele>
        <time>2016-04-27T10:13:55Z</time>
      </trkpt>
      <trkpt lat="44.50052" lon="3.57375">
        <ele>851</ele>
        <time>2016-04-27T10:14:46Z</time>
      </trkpt>
      <trkpt lat="44.50048" lon="3.57372">
        <ele>851</ele>
        <time>2016-04-27T10:14:51Z</time>
      </trkpt>
      <trkpt lat="44.50047" lon="3.57364">
        <ele>850</ele>
        <time>2016-04-27T10:14:58Z</time>
      </trkpt>
      <trkpt lat="44.50053" lon="3.57353">
        <ele>848</ele>
        <time>2016-04-27T10:15:06Z</time>
      </trkpt>
      <trkpt lat="44.50058" lon="3.57339">
        <ele>848</ele>
        <time>2016-04-27T10:15:16Z</time>
      </trkpt>
      <trkpt lat="44.5006" lon="3.57333">
        <ele>848</ele>
        <time>2016-04-27T10:15:21Z</time>
      </trkpt>
      <trkpt lat="44.50063" lon="3.57331">
        <ele>848</ele>
        <time>2016-04-27T10:15:28Z</time>
      </trkpt>
      <trkpt lat="44.5006" lon="3.57325">
        <ele>847</ele>
        <time>2016-04-27T10:15:37Z</time>
      </trkpt>
      <trkpt lat="44.50058" lon="3.57321">
        <ele>847</ele>
        <time>2016-04-27T10:15:45Z</time>
      </trkpt>
      <trkpt lat="44.50054" lon="3.57325">
        <ele>847</ele>
        <time>2016-04-27T10:15:50Z</time>
      </trkpt>
      <trkpt lat="44.50052" lon="3.57339">
        <ele>848</ele>
        <time>2016-04-27T10:16:03Z</time>
      </trkpt>
      <trkpt lat="44.50049" lon="3.57344">
        <ele>848</ele>
        <time>2016-04-27T10:16:06Z</time>
      </trkpt>
      <trkpt lat="44.50042" lon="3.57355">
        <ele>845</ele>
        <time>2016-04-27T10:16:16Z</time>
      </trkpt>
      <trkpt lat="44.50039" lon="3.57355">
        <ele>843</ele>
        <time>2016-04-27T10:16:22Z</time>
      </trkpt>
      <trkpt lat="44.50036" lon="3.5736">
        <ele>843</ele>
        <time>2016-04-27T10:16:30Z</time>
      </trkpt>
      <trkpt lat="44.50031" lon="3.57361">
        <ele>843</ele>
        <time>2016-04-27T10:16:36Z</time>
      </trkpt>
      <trkpt lat="44.50027" lon="3.57356">
        <ele>843</ele>
        <time>2016-04-27T10:16:43Z</time>
      </trkpt>
      <trkpt lat="44.50023" lon="3.57352">
        <ele>843</ele>
        <time>2016-04-27T10:16:53Z</time>
      </trkpt>
      <trkpt lat="44.5002" lon="3.57349">
        <ele>843</ele>
        <time>2016-04-27T10:16:57Z</time>
      </trkpt>
      <trkpt lat="44.50015" lon="3.57346">
        <ele>843</ele>
        <time>2016-04-27T10:17:01Z</time>
      </trkpt>
      <trkpt lat="44.50011" lon="3.57343">
        <ele>843</ele>
        <time>2016-04-27T10:17:06Z</time>
      </trkpt>
      <trkpt lat="44.50006" lon="3.57343">
        <ele>843</ele>
        <time>2016-04-27T10:17:11Z</time>
      </trkpt>
      <trkpt lat="44.50001" lon="3.57343">
        <ele>843</ele>
        <time>2016-04-27T10:17:15Z</time>
      </trkpt>
      <trkpt lat="44.4999" lon="3.57342">
        <ele>844</ele>
        <time>2016-04-27T10:17:25Z</time>
      </trkpt>
      <trkpt lat="44.49986" lon="3.57338">
        <ele>844</ele>
        <time>2016-04-27T10:17:31Z</time>
      </trkpt>
      <trkpt lat="44.49961" lon="3.57334">
        <ele>838</ele>
        <time>2016-04-27T10:18:02Z</time>
      </trkpt>
      <trkpt lat="44.49952" lon="3.57336">
        <ele>836</ele>
        <time>2016-04-27T10:18:16Z</time>
      </trkpt>
      <trkpt lat="44.49948" lon="3.5734">
        <ele>836</ele>
        <time>2016-04-27T10:18:21Z</time>
      </trkpt>
      <trkpt lat="44.49944" lon="3.57344">
        <ele>836</ele>
        <time>2016-04-27T10:18:26Z</time>
      </trkpt>
      <trkpt lat="44.49935" lon="3.57346">
        <ele>834</ele>
        <time>2016-04-27T10:18:36Z</time>
      </trkpt>
      <trkpt lat="44.49931" lon="3.57347">
        <ele>834</ele>
        <time>2016-04-27T10:18:39Z</time>
      </trkpt>
      <trkpt lat="44.49896" lon="3.57354">
        <ele>829</ele>
        <time>2016-04-27T10:19:14Z</time>
      </trkpt>
      <trkpt lat="44.49878" lon="3.57363">
        <ele>826</ele>
        <time>2016-04-27T10:19:32Z</time>
      </trkpt>
      <trkpt lat="44.49873" lon="3.57365">
        <ele>826</ele>
        <time>2016-04-27T10:19:37Z</time>
      </trkpt>
      <trkpt lat="44.49859" lon="3.57368">
        <ele>828</ele>
        <time>2016-04-27T10:19:50Z</time>
      </trkpt>
      <trkpt lat="44.49853" lon="3.57369">
        <ele>828</ele>
        <time>2016-04-27T10:19:55Z</time>
      </trkpt>
      <trkpt lat="44.49843" lon="3.5737">
        <ele>825</ele>
        <time>2016-04-27T10:20:04Z</time>
      </trkpt>
      <trkpt lat="44.49832" lon="3.57375">
        <ele>825</ele>
        <time>2016-04-27T10:20:13Z</time>
      </trkpt>
      <trkpt lat="44.49817" lon="3.57383">
        <ele>825</ele>
        <time>2016-04-27T10:20:25Z</time>
      </trkpt>
      <trkpt lat="44.49809" lon="3.5739">
        <ele>826</ele>
        <time>2016-04-27T10:20:35Z</time>
      </trkpt>
      <trkpt lat="44.49807" lon="3.57388">
        <ele>826</ele>
        <time>2016-04-27T10:20:40Z</time>
      </trkpt>
      <trkpt lat="44.49802" lon="3.57388">
        <ele>826</ele>
        <time>2016-04-27T10:21:05Z</time>
      </trkpt>
      <trkpt lat="44.49797" lon="3.57387">
        <ele>825</ele>
        <time>2016-04-27T10:21:11Z</time>
      </trkpt>
      <trkpt lat="44.49792" lon="3.57388">
        <ele>825</ele>
        <time>2016-04-27T10:21:15Z</time>
      </trkpt>
      <trkpt lat="44.49787" lon="3.57386">
        <ele>826</ele>
        <time>2016-04-27T10:21:20Z</time>
      </trkpt>
      <trkpt lat="44.49783" lon="3.57383">
        <ele>826</ele>
        <time>2016-04-27T10:21:24Z</time>
      </trkpt>
      <trkpt lat="44.49778" lon="3.5738">
        <ele>825</ele>
        <time>2016-04-27T10:21:29Z</time>
      </trkpt>
      <trkpt lat="44.49773" lon="3.57377">
        <ele>825</ele>
        <time>2016-04-27T10:21:33Z</time>
      </trkpt>
      <trkpt lat="44.49768" lon="3.57374">
        <ele>825</ele>
        <time>2016-04-27T10:21:37Z</time>
      </trkpt>
      <trkpt lat="44.49759" lon="3.57368">
        <ele>824</ele>
        <time>2016-04-27T10:21:45Z</time>
      </trkpt>
      <trkpt lat="44.49734" lon="3.57324">
        <ele>817</ele>
        <time>2016-04-27T10:22:17Z</time>
      </trkpt>
      <trkpt lat="44.49731" lon="3.57319">
        <ele>816</ele>
        <time>2016-04-27T10:22:21Z</time>
      </trkpt>
      <trkpt lat="44.4972" lon="3.57302">
        <ele>818</ele>
        <time>2016-04-27T10:22:34Z</time>
      </trkpt>
      <trkpt lat="44.49717" lon="3.57297">
        <ele>819</ele>
        <time>2016-04-27T10:22:39Z</time>
      </trkpt>
      <trkpt lat="44.49707" lon="3.57257">
        <ele>809</ele>
        <time>2016-04-27T10:23:05Z</time>
      </trkpt>
      <trkpt lat="44.49703" lon="3.57252">
        <ele>807</ele>
        <time>2016-04-27T10:23:10Z</time>
      </trkpt>
      <trkpt lat="44.49697" lon="3.57251">
        <ele>807</ele>
        <time>2016-04-27T10:23:14Z</time>
      </trkpt>
      <trkpt lat="44.49692" lon="3.57252">
        <ele>807</ele>
        <time>2016-04-27T10:23:18Z</time>
      </trkpt>
      <trkpt lat="44.49667" lon="3.57253">
        <ele>815</ele>
        <time>2016-04-27T10:23:39Z</time>
      </trkpt>
      <trkpt lat="44.49654" lon="3.57239">
        <ele>813</ele>
        <time>2016-04-27T10:23:51Z</time>
      </trkpt>
      <trkpt lat="44.4965" lon="3.57233">
        <ele>813</ele>
        <time>2016-04-27T10:23:55Z</time>
      </trkpt>
      <trkpt lat="44.49646" lon="3.57228">
        <ele>813</ele>
        <time>2016-04-27T10:23:59Z</time>
      </trkpt>
      <trkpt lat="44.49635" lon="3.57213">
        <ele>808</ele>
        <time>2016-04-27T10:24:10Z</time>
      </trkpt>
      <trkpt lat="44.49631" lon="3.57208">
        <ele>808</ele>
        <time>2016-04-27T10:24:14Z</time>
      </trkpt>
      <trkpt lat="44.49628" lon="3.57204">
        <ele>807</ele>
        <time>2016-04-27T10:24:18Z</time>
      </trkpt>
      <trkpt lat="44.49624" lon="3.572">
        <ele>807</ele>
        <time>2016-04-27T10:24:22Z</time>
      </trkpt>
      <trkpt lat="44.49619" lon="3.57195">
        <ele>807</ele>
        <time>2016-04-27T10:24:26Z</time>
      </trkpt>
      <trkpt lat="44.49612" lon="3.57185">
        <ele>808</ele>
        <time>2016-04-27T10:24:34Z</time>
      </trkpt>
      <trkpt lat="44.49609" lon="3.5718">
        <ele>809</ele>
        <time>2016-04-27T10:24:38Z</time>
      </trkpt>
      <trkpt lat="44.49602" lon="3.5717">
        <ele>809</ele>
        <time>2016-04-27T10:24:46Z</time>
      </trkpt>
      <trkpt lat="44.49589" lon="3.57156">
        <ele>813</ele>
        <time>2016-04-27T10:25:00Z</time>
      </trkpt>
      <trkpt lat="44.49584" lon="3.57152">
        <ele>813</ele>
        <time>2016-04-27T10:25:05Z</time>
      </trkpt>
      <trkpt lat="44.4958" lon="3.57148">
        <ele>813</ele>
        <time>2016-04-27T10:25:09Z</time>
      </trkpt>
      <trkpt lat="44.49569" lon="3.57132">
        <ele>810</ele>
        <time>2016-04-27T10:25:21Z</time>
      </trkpt>
      <trkpt lat="44.49565" lon="3.57127">
        <ele>810</ele>
        <time>2016-04-27T10:25:25Z</time>
      </trkpt>
      <trkpt lat="44.49561" lon="3.57122">
        <ele>810</ele>
        <time>2016-04-27T10:25:29Z</time>
      </trkpt>
      <trkpt lat="44.49557" lon="3.57117">
        <ele>808</ele>
        <time>2016-04-27T10:25:34Z</time>
      </trkpt>
      <trkpt lat="44.49553" lon="3.57111">
        <ele>808</ele>
        <time>2016-04-27T10:25:39Z</time>
      </trkpt>
      <trkpt lat="44.49549" lon="3.57106">
        <ele>808</ele>
        <time>2016-04-27T10:25:43Z</time>
      </trkpt>
      <trkpt lat="44.49546" lon="3.57102">
        <ele>808</ele>
        <time>2016-04-27T10:25:47Z</time>
      </trkpt>
      <trkpt lat="44.49541" lon="3.57098">
        <ele>808</ele>
        <time>2016-04-27T10:25:51Z</time>
      </trkpt>
      <trkpt lat="44.49537" lon="3.57094">
        <ele>808</ele>
        <time>2016-04-27T10:25:55Z</time>
      </trkpt>
      <trkpt lat="44.49533" lon="3.57091">
        <ele>808</ele>
        <time>2016-04-27T10:26:01Z</time>
      </trkpt>
      <trkpt lat="44.49528" lon="3.57087">
        <ele>807</ele>
        <time>2016-04-27T10:26:05Z</time>
      </trkpt>
      <trkpt lat="44.49523" lon="3.57083">
        <ele>807</ele>
        <time>2016-04-27T10:26:11Z</time>
      </trkpt>
      <trkpt lat="44.49518" lon="3.57081">
        <ele>807</ele>
        <time>2016-04-27T10:26:16Z</time>
      </trkpt>
      <trkpt lat="44.49513" lon="3.5708">
        <ele>808</ele>
        <time>2016-04-27T10:26:21Z</time>
      </trkpt>
      <trkpt lat="44.4951" lon="3.57077">
        <ele>814</ele>
        <time>2016-04-27T10:27:24Z</time>
      </trkpt>
      <trkpt lat="44.49513" lon="3.57079">
        <ele>817</ele>
        <time>2016-04-27T10:46:44Z</time>
      </trkpt>
      <trkpt lat="44.49509" lon="3.57084">
        <ele>816</ele>
        <time>2016-04-27T10:46:51Z</time>
      </trkpt>
      <trkpt lat="44.49504" lon="3.57088">
        <ele>814</ele>
        <time>2016-04-27T10:46:58Z</time>
      </trkpt>
      <trkpt lat="44.49488" lon="3.57121">
        <ele>805</ele>
        <time>2016-04-27T10:47:26Z</time>
      </trkpt>
      <trkpt lat="44.49483" lon="3.57125">
        <ele>805</ele>
        <time>2016-04-27T10:47:31Z</time>
      </trkpt>
      <trkpt lat="44.49473" lon="3.57128">
        <ele>803</ele>
        <time>2016-04-27T10:47:41Z</time>
      </trkpt>
      <trkpt lat="44.49468" lon="3.57128">
        <ele>804</ele>
        <time>2016-04-27T10:47:46Z</time>
      </trkpt>
      <trkpt lat="44.49463" lon="3.57127">
        <ele>804</ele>
        <time>2016-04-27T10:47:51Z</time>
      </trkpt>
      <trkpt lat="44.49458" lon="3.57128">
        <ele>805</ele>
        <time>2016-04-27T10:47:56Z</time>
      </trkpt>
      <trkpt lat="44.49453" lon="3.5713">
        <ele>806</ele>
        <time>2016-04-27T10:48:00Z</time>
      </trkpt>
      <trkpt lat="44.49429" lon="3.57131">
        <ele>811</ele>
        <time>2016-04-27T10:48:23Z</time>
      </trkpt>
      <trkpt lat="44.49423" lon="3.57119">
        <ele>813</ele>
        <time>2016-04-27T10:48:33Z</time>
      </trkpt>
      <trkpt lat="44.49418" lon="3.57108">
        <ele>815</ele>
        <time>2016-04-27T10:48:44Z</time>
      </trkpt>
      <trkpt lat="44.49416" lon="3.57101">
        <ele>815</ele>
        <time>2016-04-27T10:48:49Z</time>
      </trkpt>
      <trkpt lat="44.49413" lon="3.57088">
        <ele>817</ele>
        <time>2016-04-27T10:48:58Z</time>
      </trkpt>
      <trkpt lat="44.49411" lon="3.57081">
        <ele>817</ele>
        <time>2016-04-27T10:49:03Z</time>
      </trkpt>
      <trkpt lat="44.49413" lon="3.57076">
        <ele>815</ele>
        <time>2016-04-27T10:49:12Z</time>
      </trkpt>
      <trkpt lat="44.49411" lon="3.57054">
        <ele>815</ele>
        <time>2016-04-27T10:49:31Z</time>
      </trkpt>
      <trkpt lat="44.49412" lon="3.57043">
        <ele>814</ele>
        <time>2016-04-27T10:49:43Z</time>
      </trkpt>
      <trkpt lat="44.4941" lon="3.57023">
        <ele>815</ele>
        <time>2016-04-27T10:49:57Z</time>
      </trkpt>
      <trkpt lat="44.49408" lon="3.57015">
        <ele>814</ele>
        <time>2016-04-27T10:50:01Z</time>
      </trkpt>
      <trkpt lat="44.49406" lon="3.57002">
        <ele>814</ele>
        <time>2016-04-27T10:50:09Z</time>
      </trkpt>
      <trkpt lat="44.49405" lon="3.56981">
        <ele>816</ele>
        <time>2016-04-27T10:50:22Z</time>
      </trkpt>
      <trkpt lat="44.49404" lon="3.56975">
        <ele>816</ele>
        <time>2016-04-27T10:50:26Z</time>
      </trkpt>
      <trkpt lat="44.49398" lon="3.5692">
        <ele>808</ele>
        <time>2016-04-27T10:50:58Z</time>
      </trkpt>
      <trkpt lat="44.49396" lon="3.56913">
        <ele>807</ele>
        <time>2016-04-27T10:51:02Z</time>
      </trkpt>
      <trkpt lat="44.49394" lon="3.56907">
        <ele>808</ele>
        <time>2016-04-27T10:51:06Z</time>
      </trkpt>
      <trkpt lat="44.49364" lon="3.5688">
        <ele>816</ele>
        <time>2016-04-27T10:51:39Z</time>
      </trkpt>
      <trkpt lat="44.49354" lon="3.56875">
        <ele>814</ele>
        <time>2016-04-27T10:51:47Z</time>
      </trkpt>
      <trkpt lat="44.49348" lon="3.56874">
        <ele>815</ele>
        <time>2016-04-27T10:51:52Z</time>
      </trkpt>
      <trkpt lat="44.49328" lon="3.56872">
        <ele>810</ele>
        <time>2016-04-27T10:52:06Z</time>
      </trkpt>
      <trkpt lat="44.49309" lon="3.56867">
        <ele>812</ele>
        <time>2016-04-27T10:52:23Z</time>
      </trkpt>
      <trkpt lat="44.49298" lon="3.56866">
        <ele>812</ele>
        <time>2016-04-27T10:52:34Z</time>
      </trkpt>
      <trkpt lat="44.49293" lon="3.56864">
        <ele>812</ele>
        <time>2016-04-27T10:52:39Z</time>
      </trkpt>
      <trkpt lat="44.49273" lon="3.56861">
        <ele>813</ele>
        <time>2016-04-27T10:52:55Z</time>
      </trkpt>
      <trkpt lat="44.49268" lon="3.56859">
        <ele>814</ele>
        <time>2016-04-27T10:53:00Z</time>
      </trkpt>
      <trkpt lat="44.49258" lon="3.56857">
        <ele>814</ele>
        <time>2016-04-27T10:53:08Z</time>
      </trkpt>
      <trkpt lat="44.49254" lon="3.56856">
        <ele>815</ele>
        <time>2016-04-27T10:53:12Z</time>
      </trkpt>
      <trkpt lat="44.49249" lon="3.56858">
        <ele>815</ele>
        <time>2016-04-27T10:53:16Z</time>
      </trkpt>
      <trkpt lat="44.49246" lon="3.56864">
        <ele>815</ele>
        <time>2016-04-27T10:53:20Z</time>
      </trkpt>
      <trkpt lat="44.4924" lon="3.56876">
        <ele>813</ele>
        <time>2016-04-27T10:53:29Z</time>
      </trkpt>
      <trkpt lat="44.49238" lon="3.56883">
        <ele>814</ele>
        <time>2016-04-27T10:53:35Z</time>
      </trkpt>
      <trkpt lat="44.49229" lon="3.56891">
        <ele>817</ele>
        <time>2016-04-27T10:53:46Z</time>
      </trkpt>
      <trkpt lat="44.49225" lon="3.56893">
        <ele>817</ele>
        <time>2016-04-27T10:53:51Z</time>
      </trkpt>
      <trkpt lat="44.4922" lon="3.56893">
        <ele>817</ele>
        <time>2016-04-27T10:53:56Z</time>
      </trkpt>
      <trkpt lat="44.49215" lon="3.56891">
        <ele>816</ele>
        <time>2016-04-27T10:54:01Z</time>
      </trkpt>
      <trkpt lat="44.49211" lon="3.56892">
        <ele>816</ele>
        <time>2016-04-27T10:54:06Z</time>
      </trkpt>
      <trkpt lat="44.49206" lon="3.56895">
        <ele>815</ele>
        <time>2016-04-27T10:54:11Z</time>
      </trkpt>
      <trkpt lat="44.49201" lon="3.56898">
        <ele>814</ele>
        <time>2016-04-27T10:54:16Z</time>
      </trkpt>
      <trkpt lat="44.49192" lon="3.56903">
        <ele>815</ele>
        <time>2016-04-27T10:54:27Z</time>
      </trkpt>
      <trkpt lat="44.49187" lon="3.56905">
        <ele>814</ele>
        <time>2016-04-27T10:54:32Z</time>
      </trkpt>
      <trkpt lat="44.49183" lon="3.56907">
        <ele>814</ele>
        <time>2016-04-27T10:54:37Z</time>
      </trkpt>
      <trkpt lat="44.49179" lon="3.56912">
        <ele>815</ele>
        <time>2016-04-27T10:55:00Z</time>
      </trkpt>
      <trkpt lat="44.49169" lon="3.56927">
        <ele>817</ele>
        <time>2016-04-27T10:55:13Z</time>
      </trkpt>
      <trkpt lat="44.49166" lon="3.56932">
        <ele>817</ele>
        <time>2016-04-27T10:55:17Z</time>
      </trkpt>
      <trkpt lat="44.49158" lon="3.56941">
        <ele>815</ele>
        <time>2016-04-27T10:55:26Z</time>
      </trkpt>
      <trkpt lat="44.4915" lon="3.56949">
        <ele>817</ele>
        <time>2016-04-27T10:55:35Z</time>
      </trkpt>
      <trkpt lat="44.49147" lon="3.56954">
        <ele>817</ele>
        <time>2016-04-27T10:55:39Z</time>
      </trkpt>
      <trkpt lat="44.49135" lon="3.56968">
        <ele>816</ele>
        <time>2016-04-27T10:55:55Z</time>
      </trkpt>
      <trkpt lat="44.49131" lon="3.56971">
        <ele>816</ele>
        <time>2016-04-27T10:55:59Z</time>
      </trkpt>
      <trkpt lat="44.49126" lon="3.56975">
        <ele>817</ele>
        <time>2016-04-27T10:56:04Z</time>
      </trkpt>
      <trkpt lat="44.49117" lon="3.5698">
        <ele>815</ele>
        <time>2016-04-27T10:56:13Z</time>
      </trkpt>
      <trkpt lat="44.49112" lon="3.56983">
        <ele>815</ele>
        <time>2016-04-27T10:56:18Z</time>
      </trkpt>
      <trkpt lat="44.491" lon="3.56993">
        <ele>814</ele>
        <time>2016-04-27T10:56:31Z</time>
      </trkpt>
      <trkpt lat="44.4909" lon="3.56999">
        <ele>816</ele>
        <time>2016-04-27T10:56:40Z</time>
      </trkpt>
      <trkpt lat="44.49081" lon="3.57005">
        <ele>816</ele>
        <time>2016-04-27T10:56:48Z</time>
      </trkpt>
      <trkpt lat="44.49071" lon="3.57009">
        <ele>817</ele>
        <time>2016-04-27T10:56:57Z</time>
      </trkpt>
      <trkpt lat="44.49058" lon="3.57017">
        <ele>822</ele>
        <time>2016-04-27T10:57:10Z</time>
      </trkpt>
      <trkpt lat="44.49054" lon="3.57017">
        <ele>822</ele>
        <time>2016-04-27T10:57:14Z</time>
      </trkpt>
      <trkpt lat="44.49049" lon="3.57018">
        <ele>822</ele>
        <time>2016-04-27T10:57:18Z</time>
      </trkpt>
      <trkpt lat="44.49041" lon="3.57027">
        <ele>824</ele>
        <time>2016-04-27T10:57:26Z</time>
      </trkpt>
      <trkpt lat="44.49038" lon="3.57033">
        <ele>824</ele>
        <time>2016-04-27T10:57:31Z</time>
      </trkpt>
      <trkpt lat="44.49036" lon="3.57039">
        <ele>824</ele>
        <time>2016-04-27T10:57:36Z</time>
      </trkpt>
      <trkpt lat="44.4903" lon="3.57051">
        <ele>823</ele>
        <time>2016-04-27T10:57:45Z</time>
      </trkpt>
      <trkpt lat="44.49026" lon="3.57054">
        <ele>823</ele>
        <time>2016-04-27T10:57:49Z</time>
      </trkpt>
      <trkpt lat="44.49015" lon="3.57067">
        <ele>826</ele>
        <time>2016-04-27T10:58:04Z</time>
      </trkpt>
      <trkpt lat="44.49005" lon="3.57073">
        <ele>826</ele>
        <time>2016-04-27T10:58:14Z</time>
      </trkpt>
      <trkpt lat="44.49001" lon="3.57077">
        <ele>826</ele>
        <time>2016-04-27T10:58:19Z</time>
      </trkpt>
      <trkpt lat="44.48977" lon="3.57086">
        <ele>833</ele>
        <time>2016-04-27T10:58:52Z</time>
      </trkpt>
      <trkpt lat="44.48973" lon="3.57087">
        <ele>834</ele>
        <time>2016-04-27T10:58:58Z</time>
      </trkpt>
      <trkpt lat="44.48964" lon="3.5709">
        <ele>835</ele>
        <time>2016-04-27T10:59:09Z</time>
      </trkpt>
      <trkpt lat="44.48959" lon="3.5709">
        <ele>834</ele>
        <time>2016-04-27T10:59:14Z</time>
      </trkpt>
      <trkpt lat="44.48944" lon="3.57094">
        <ele>836</ele>
        <time>2016-04-27T10:59:30Z</time>
      </trkpt>
      <trkpt lat="44.48936" lon="3.57101">
        <ele>835</ele>
        <time>2016-04-27T10:59:42Z</time>
      </trkpt>
      <trkpt lat="44.48931" lon="3.57102">
        <ele>836</ele>
        <time>2016-04-27T10:59:48Z</time>
      </trkpt>
      <trkpt lat="44.48912" lon="3.57093">
        <ele>841</ele>
        <time>2016-04-27T11:00:09Z</time>
      </trkpt>
      <trkpt lat="44.48907" lon="3.57091">
        <ele>840</ele>
        <time>2016-04-27T11:00:13Z</time>
      </trkpt>
      <trkpt lat="44.489" lon="3.57083">
        <ele>839</ele>
        <time>2016-04-27T11:00:21Z</time>
      </trkpt>
      <trkpt lat="44.48895" lon="3.57081">
        <ele>839</ele>
        <time>2016-04-27T11:00:25Z</time>
      </trkpt>
      <trkpt lat="44.4889" lon="3.5708">
        <ele>839</ele>
        <time>2016-04-27T11:00:30Z</time>
      </trkpt>
      <trkpt lat="44.48885" lon="3.5708">
        <ele>840</ele>
        <time>2016-04-27T11:00:35Z</time>
      </trkpt>
      <trkpt lat="44.48873" lon="3.57091">
        <ele>841</ele>
        <time>2016-04-27T11:00:50Z</time>
      </trkpt>
      <trkpt lat="44.48859" lon="3.57094">
        <ele>841</ele>
        <time>2016-04-27T11:01:02Z</time>
      </trkpt>
      <trkpt lat="44.48834" lon="3.57095">
        <ele>840</ele>
        <time>2016-04-27T11:01:22Z</time>
      </trkpt>
      <trkpt lat="44.48829" lon="3.57097">
        <ele>840</ele>
        <time>2016-04-27T11:01:26Z</time>
      </trkpt>
      <trkpt lat="44.48819" lon="3.571">
        <ele>841</ele>
        <time>2016-04-27T11:01:34Z</time>
      </trkpt>
      <trkpt lat="44.48808" lon="3.57102">
        <ele>844</ele>
        <time>2016-04-27T11:01:42Z</time>
      </trkpt>
      <trkpt lat="44.48803" lon="3.57103">
        <ele>844</ele>
        <time>2016-04-27T11:01:46Z</time>
      </trkpt>
      <trkpt lat="44.48793" lon="3.57107">
        <ele>846</ele>
        <time>2016-04-27T11:01:54Z</time>
      </trkpt>
      <trkpt lat="44.48785" lon="3.57112">
        <ele>846</ele>
        <time>2016-04-27T11:02:02Z</time>
      </trkpt>
      <trkpt lat="44.48781" lon="3.57116">
        <ele>846</ele>
        <time>2016-04-27T11:02:06Z</time>
      </trkpt>
      <trkpt lat="44.48777" lon="3.57121">
        <ele>846</ele>
        <time>2016-04-27T11:02:11Z</time>
      </trkpt>
      <trkpt lat="44.48773" lon="3.57127">
        <ele>846</ele>
        <time>2016-04-27T11:02:16Z</time>
      </trkpt>
      <trkpt lat="44.4877" lon="3.57133">
        <ele>846</ele>
        <time>2016-04-27T11:02:21Z</time>
      </trkpt>
      <trkpt lat="44.48762" lon="3.57142">
        <ele>845</ele>
        <time>2016-04-27T11:02:29Z</time>
      </trkpt>
      <trkpt lat="44.48758" lon="3.57146">
        <ele>845</ele>
        <time>2016-04-27T11:02:34Z</time>
      </trkpt>
      <trkpt lat="44.48749" lon="3.57153">
        <ele>846</ele>
        <time>2016-04-27T11:02:44Z</time>
      </trkpt>
      <trkpt lat="44.48745" lon="3.57158">
        <ele>846</ele>
        <time>2016-04-27T11:02:49Z</time>
      </trkpt>
      <trkpt lat="44.48734" lon="3.5717">
        <ele>848</ele>
        <time>2016-04-27T11:03:02Z</time>
      </trkpt>
      <trkpt lat="44.48719" lon="3.57175">
        <ele>847</ele>
        <time>2016-04-27T11:03:14Z</time>
      </trkpt>
      <trkpt lat="44.48715" lon="3.57178">
        <ele>848</ele>
        <time>2016-04-27T11:03:18Z</time>
      </trkpt>
      <trkpt lat="44.48705" lon="3.57183">
        <ele>848</ele>
        <time>2016-04-27T11:03:26Z</time>
      </trkpt>
      <trkpt lat="44.48695" lon="3.57189">
        <ele>849</ele>
        <time>2016-04-27T11:03:34Z</time>
      </trkpt>
      <trkpt lat="44.48686" lon="3.57196">
        <ele>849</ele>
        <time>2016-04-27T11:03:42Z</time>
      </trkpt>
      <trkpt lat="44.48668" lon="3.57209">
        <ele>851</ele>
        <time>2016-04-27T11:03:58Z</time>
      </trkpt>
      <trkpt lat="44.48663" lon="3.57212">
        <ele>851</ele>
        <time>2016-04-27T11:04:02Z</time>
      </trkpt>
      <trkpt lat="44.48659" lon="3.57215">
        <ele>852</ele>
        <time>2016-04-27T11:04:06Z</time>
      </trkpt>
      <trkpt lat="44.48655" lon="3.57218">
        <ele>852</ele>
        <time>2016-04-27T11:04:10Z</time>
      </trkpt>
      <trkpt lat="44.48647" lon="3.57225">
        <ele>852</ele>
        <time>2016-04-27T11:04:18Z</time>
      </trkpt>
      <trkpt lat="44.48643" lon="3.57229">
        <ele>852</ele>
        <time>2016-04-27T11:04:22Z</time>
      </trkpt>
      <trkpt lat="44.48639" lon="3.57234">
        <ele>851</ele>
        <time>2016-04-27T11:04:27Z</time>
      </trkpt>
      <trkpt lat="44.48635" lon="3.57237">
        <ele>851</ele>
        <time>2016-04-27T11:04:31Z</time>
      </trkpt>
      <trkpt lat="44.48631" lon="3.57239">
        <ele>851</ele>
        <time>2016-04-27T11:04:35Z</time>
      </trkpt>
      <trkpt lat="44.48626" lon="3.57242">
        <ele>852</ele>
        <time>2016-04-27T11:04:40Z</time>
      </trkpt>
      <trkpt lat="44.48615" lon="3.57243">
        <ele>851</ele>
        <time>2016-04-27T11:04:51Z</time>
      </trkpt>
      <trkpt lat="44.4861" lon="3.57245">
        <ele>851</ele>
        <time>2016-04-27T11:04:56Z</time>
      </trkpt>
      <trkpt lat="44.486" lon="3.57245">
        <ele>852</ele>
        <time>2016-04-27T11:05:04Z</time>
      </trkpt>
      <trkpt lat="44.48595" lon="3.57244">
        <ele>852</ele>
        <time>2016-04-27T11:05:08Z</time>
      </trkpt>
      <trkpt lat="44.4858" lon="3.57241">
        <ele>853</ele>
        <time>2016-04-27T11:05:21Z</time>
      </trkpt>
      <trkpt lat="44.4856" lon="3.57234">
        <ele>851</ele>
        <time>2016-04-27T11:05:37Z</time>
      </trkpt>
      <trkpt lat="44.4855" lon="3.57233">
        <ele>854</ele>
        <time>2016-04-27T11:05:47Z</time>
      </trkpt>
      <trkpt lat="44.48545" lon="3.57232">
        <ele>854</ele>
        <time>2016-04-27T11:05:51Z</time>
      </trkpt>
      <trkpt lat="44.4854" lon="3.57232">
        <ele>854</ele>
        <time>2016-04-27T11:05:56Z</time>
      </trkpt>
      <trkpt lat="44.48535" lon="3.57231">
        <ele>854</ele>
        <time>2016-04-27T11:06:00Z</time>
      </trkpt>
      <trkpt lat="44.48521" lon="3.57226">
        <ele>860</ele>
        <time>2016-04-27T11:06:14Z</time>
      </trkpt>
      <trkpt lat="44.48511" lon="3.57221">
        <ele>860</ele>
        <time>2016-04-27T11:06:22Z</time>
      </trkpt>
      <trkpt lat="44.48507" lon="3.5722">
        <ele>860</ele>
        <time>2016-04-27T11:06:27Z</time>
      </trkpt>
      <trkpt lat="44.48502" lon="3.57216">
        <ele>861</ele>
        <time>2016-04-27T11:06:32Z</time>
      </trkpt>
      <trkpt lat="44.48497" lon="3.57213">
        <ele>861</ele>
        <time>2016-04-27T11:06:36Z</time>
      </trkpt>
      <trkpt lat="44.48487" lon="3.57209">
        <ele>861</ele>
        <time>2016-04-27T11:06:44Z</time>
      </trkpt>
      <trkpt lat="44.48476" lon="3.57207">
        <ele>860</ele>
        <time>2016-04-27T11:06:53Z</time>
      </trkpt>
      <trkpt lat="44.48467" lon="3.57203">
        <ele>860</ele>
        <time>2016-04-27T11:07:01Z</time>
      </trkpt>
      <trkpt lat="44.48457" lon="3.57205">
        <ele>860</ele>
        <time>2016-04-27T11:07:09Z</time>
      </trkpt>
      <trkpt lat="44.48442" lon="3.57207">
        <ele>858</ele>
        <time>2016-04-27T11:07:23Z</time>
      </trkpt>
      <trkpt lat="44.48438" lon="3.57207">
        <ele>858</ele>
        <time>2016-04-27T11:07:28Z</time>
      </trkpt>
      <trkpt lat="44.48432" lon="3.57206">
        <ele>858</ele>
        <time>2016-04-27T11:07:33Z</time>
      </trkpt>
      <trkpt lat="44.48423" lon="3.57203">
        <ele>861</ele>
        <time>2016-04-27T11:07:41Z</time>
      </trkpt>
      <trkpt lat="44.48417" lon="3.57202">
        <ele>861</ele>
        <time>2016-04-27T11:07:45Z</time>
      </trkpt>
      <trkpt lat="44.48412" lon="3.57202">
        <ele>861</ele>
        <time>2016-04-27T11:07:49Z</time>
      </trkpt>
      <trkpt lat="44.48402" lon="3.57204">
        <ele>863</ele>
        <time>2016-04-27T11:07:59Z</time>
      </trkpt>
      <trkpt lat="44.48396" lon="3.57203">
        <ele>863</ele>
        <time>2016-04-27T11:08:04Z</time>
      </trkpt>
      <trkpt lat="44.48391" lon="3.57204">
        <ele>863</ele>
        <time>2016-04-27T11:08:07Z</time>
      </trkpt>
      <trkpt lat="44.48357" lon="3.57214">
        <ele>856</ele>
        <time>2016-04-27T11:08:38Z</time>
      </trkpt>
      <trkpt lat="44.4834" lon="3.57228">
        <ele>858</ele>
        <time>2016-04-27T11:08:59Z</time>
      </trkpt>
      <trkpt lat="44.48323" lon="3.57243">
        <ele>863</ele>
        <time>2016-04-27T11:09:21Z</time>
      </trkpt>
      <trkpt lat="44.48318" lon="3.57243">
        <ele>865</ele>
        <time>2016-04-27T11:09:26Z</time>
      </trkpt>
      <trkpt lat="44.48314" lon="3.57247">
        <ele>865</ele>
        <time>2016-04-27T11:09:32Z</time>
      </trkpt>
      <trkpt lat="44.48312" lon="3.57248">
        <ele>865</ele>
        <time>2016-04-27T11:09:38Z</time>
      </trkpt>
      <trkpt lat="44.48307" lon="3.57249">
        <ele>860</ele>
        <time>2016-04-27T11:10:54Z</time>
      </trkpt>
      <trkpt lat="44.48301" lon="3.57252">
        <ele>858</ele>
        <time>2016-04-27T11:12:00Z</time>
      </trkpt>
      <trkpt lat="44.48298" lon="3.57257">
        <ele>858</ele>
        <time>2016-04-27T11:12:05Z</time>
      </trkpt>
      <trkpt lat="44.4829" lon="3.57265">
        <ele>857</ele>
        <time>2016-04-27T11:12:14Z</time>
      </trkpt>
      <trkpt lat="44.48286" lon="3.5727">
        <ele>857</ele>
        <time>2016-04-27T11:12:20Z</time>
      </trkpt>
      <trkpt lat="44.48277" lon="3.57276">
        <ele>858</ele>
        <time>2016-04-27T11:12:29Z</time>
      </trkpt>
      <trkpt lat="44.48272" lon="3.5728">
        <ele>858</ele>
        <time>2016-04-27T11:12:33Z</time>
      </trkpt>
      <trkpt lat="44.48264" lon="3.57287">
        <ele>860</ele>
        <time>2016-04-27T11:12:41Z</time>
      </trkpt>
      <trkpt lat="44.4826" lon="3.57291">
        <ele>860</ele>
        <time>2016-04-27T11:12:45Z</time>
      </trkpt>
      <trkpt lat="44.48246" lon="3.57301">
        <ele>863</ele>
        <time>2016-04-27T11:12:58Z</time>
      </trkpt>
      <trkpt lat="44.48233" lon="3.57311">
        <ele>863</ele>
        <time>2016-04-27T11:13:08Z</time>
      </trkpt>
      <trkpt lat="44.48229" lon="3.57315">
        <ele>862</ele>
        <time>2016-04-27T11:13:12Z</time>
      </trkpt>
      <trkpt lat="44.48225" lon="3.5732">
        <ele>863</ele>
        <time>2016-04-27T11:13:17Z</time>
      </trkpt>
      <trkpt lat="44.48222" lon="3.57325">
        <ele>864</ele>
        <time>2016-04-27T11:13:21Z</time>
      </trkpt>
      <trkpt lat="44.48218" lon="3.5733">
        <ele>863</ele>
        <time>2016-04-27T11:13:25Z</time>
      </trkpt>
      <trkpt lat="44.48214" lon="3.57334">
        <ele>862</ele>
        <time>2016-04-27T11:13:30Z</time>
      </trkpt>
      <trkpt lat="44.4821" lon="3.57338">
        <ele>862</ele>
        <time>2016-04-27T11:13:34Z</time>
      </trkpt>
      <trkpt lat="44.48202" lon="3.57344">
        <ele>862</ele>
        <time>2016-04-27T11:13:42Z</time>
      </trkpt>
      <trkpt lat="44.48188" lon="3.57354">
        <ele>864</ele>
        <time>2016-04-27T11:13:54Z</time>
      </trkpt>
      <trkpt lat="44.48184" lon="3.5736">
        <ele>864</ele>
        <time>2016-04-27T11:13:58Z</time>
      </trkpt>
      <trkpt lat="44.48182" lon="3.57367">
        <ele>863</ele>
        <time>2016-04-27T11:14:02Z</time>
      </trkpt>
      <trkpt lat="44.4818" lon="3.57373">
        <ele>863</ele>
        <time>2016-04-27T11:14:06Z</time>
      </trkpt>
      <trkpt lat="44.48176" lon="3.57377">
        <ele>863</ele>
        <time>2016-04-27T11:14:11Z</time>
      </trkpt>
      <trkpt lat="44.4817" lon="3.57379">
        <ele>864</ele>
        <time>2016-04-27T11:14:15Z</time>
      </trkpt>
      <trkpt lat="44.48144" lon="3.57401">
        <ele>859</ele>
        <time>2016-04-27T11:14:40Z</time>
      </trkpt>
      <trkpt lat="44.48139" lon="3.57402">
        <ele>859</ele>
        <time>2016-04-27T11:14:44Z</time>
      </trkpt>
      <trkpt lat="44.48134" lon="3.57405">
        <ele>860</ele>
        <time>2016-04-27T11:14:48Z</time>
      </trkpt>
      <trkpt lat="44.48129" lon="3.57408">
        <ele>861</ele>
        <time>2016-04-27T11:14:52Z</time>
      </trkpt>
      <trkpt lat="44.48125" lon="3.57412">
        <ele>862</ele>
        <time>2016-04-27T11:14:57Z</time>
      </trkpt>
      <trkpt lat="44.48123" lon="3.57419">
        <ele>863</ele>
        <time>2016-04-27T11:15:02Z</time>
      </trkpt>
      <trkpt lat="44.48118" lon="3.57432">
        <ele>867</ele>
        <time>2016-04-27T11:15:12Z</time>
      </trkpt>
      <trkpt lat="44.48115" lon="3.57435">
        <ele>869</ele>
        <time>2016-04-27T11:15:16Z</time>
      </trkpt>
      <trkpt lat="44.48111" lon="3.5744">
        <ele>869</ele>
        <time>2016-04-27T11:15:20Z</time>
      </trkpt>
      <trkpt lat="44.48104" lon="3.57448">
        <ele>869</ele>
        <time>2016-04-27T11:15:28Z</time>
      </trkpt>
      <trkpt lat="44.48094" lon="3.57456">
        <ele>868</ele>
        <time>2016-04-27T11:15:37Z</time>
      </trkpt>
      <trkpt lat="44.48089" lon="3.57459">
        <ele>868</ele>
        <time>2016-04-27T11:15:41Z</time>
      </trkpt>
      <trkpt lat="44.4808" lon="3.57466">
        <ele>871</ele>
        <time>2016-04-27T11:15:50Z</time>
      </trkpt>
      <trkpt lat="44.48077" lon="3.57472">
        <ele>871</ele>
        <time>2016-04-27T11:15:54Z</time>
      </trkpt>
      <trkpt lat="44.48072" lon="3.57475">
        <ele>869</ele>
        <time>2016-04-27T11:15:58Z</time>
      </trkpt>
      <trkpt lat="44.48049" lon="3.57502">
        <ele>864</ele>
        <time>2016-04-27T11:16:23Z</time>
      </trkpt>
      <trkpt lat="44.48043" lon="3.57502">
        <ele>863</ele>
        <time>2016-04-27T11:16:26Z</time>
      </trkpt>
      <trkpt lat="44.48037" lon="3.57502">
        <ele>863</ele>
        <time>2016-04-27T11:16:31Z</time>
      </trkpt>
      <trkpt lat="44.4802" lon="3.57511">
        <ele>861</ele>
        <time>2016-04-27T11:16:46Z</time>
      </trkpt>
      <trkpt lat="44.48016" lon="3.5751">
        <ele>861</ele>
        <time>2016-04-27T11:16:49Z</time>
      </trkpt>
      <trkpt lat="44.48011" lon="3.57511">
        <ele>862</ele>
        <time>2016-04-27T11:16:53Z</time>
      </trkpt>
      <trkpt lat="44.48009" lon="3.57518">
        <ele>862</ele>
        <time>2016-04-27T11:16:58Z</time>
      </trkpt>
      <trkpt lat="44.48007" lon="3.57524">
        <ele>862</ele>
        <time>2016-04-27T11:17:03Z</time>
      </trkpt>
      <trkpt lat="44.48002" lon="3.57526">
        <ele>862</ele>
        <time>2016-04-27T11:17:07Z</time>
      </trkpt>
      <trkpt lat="44.47966" lon="3.57522">
        <ele>861</ele>
        <time>2016-04-27T11:17:29Z</time>
      </trkpt>
      <trkpt lat="44.47961" lon="3.57526">
        <ele>861</ele>
        <time>2016-04-27T11:17:35Z</time>
      </trkpt>
      <trkpt lat="44.47951" lon="3.57524">
        <ele>860</ele>
        <time>2016-04-27T11:17:41Z</time>
      </trkpt>
      <trkpt lat="44.47945" lon="3.57527">
        <ele>861</ele>
        <time>2016-04-27T11:17:45Z</time>
      </trkpt>
      <trkpt lat="44.47935" lon="3.5753">
        <ele>861</ele>
        <time>2016-04-27T11:17:52Z</time>
      </trkpt>
      <trkpt lat="44.47932" lon="3.57534">
        <ele>860</ele>
        <time>2016-04-27T11:17:56Z</time>
      </trkpt>
      <trkpt lat="44.47929" lon="3.57541">
        <ele>860</ele>
        <time>2016-04-27T11:18:01Z</time>
      </trkpt>
      <trkpt lat="44.47917" lon="3.57551">
        <ele>864</ele>
        <time>2016-04-27T11:18:16Z</time>
      </trkpt>
      <trkpt lat="44.47901" lon="3.57549">
        <ele>867</ele>
        <time>2016-04-27T11:18:25Z</time>
      </trkpt>
      <trkpt lat="44.47898" lon="3.57554">
        <ele>867</ele>
        <time>2016-04-27T11:18:29Z</time>
      </trkpt>
      <trkpt lat="44.47883" lon="3.5757">
        <ele>864</ele>
        <time>2016-04-27T11:18:48Z</time>
      </trkpt>
      <trkpt lat="44.47869" lon="3.57577">
        <ele>866</ele>
        <time>2016-04-27T11:18:58Z</time>
      </trkpt>
      <trkpt lat="44.47865" lon="3.57581">
        <ele>866</ele>
        <time>2016-04-27T11:19:02Z</time>
      </trkpt>
      <trkpt lat="44.47855" lon="3.57586">
        <ele>867</ele>
        <time>2016-04-27T11:19:11Z</time>
      </trkpt>
      <trkpt lat="44.47845" lon="3.5759">
        <ele>867</ele>
        <time>2016-04-27T11:19:20Z</time>
      </trkpt>
      <trkpt lat="44.47836" lon="3.57599">
        <ele>866</ele>
        <time>2016-04-27T11:19:28Z</time>
      </trkpt>
      <trkpt lat="44.47831" lon="3.57602">
        <ele>866</ele>
        <time>2016-04-27T11:19:32Z</time>
      </trkpt>
      <trkpt lat="44.47821" lon="3.57604">
        <ele>867</ele>
        <time>2016-04-27T11:19:40Z</time>
      </trkpt>
      <trkpt lat="44.47816" lon="3.57606">
        <ele>866</ele>
        <time>2016-04-27T11:19:44Z</time>
      </trkpt>
      <trkpt lat="44.47803" lon="3.57609">
        <ele>863</ele>
        <time>2016-04-27T11:19:58Z</time>
      </trkpt>
      <trkpt lat="44.47799" lon="3.57613">
        <ele>864</ele>
        <time>2016-04-27T11:20:02Z</time>
      </trkpt>
      <trkpt lat="44.47784" lon="3.57616">
        <ele>865</ele>
        <time>2016-04-27T11:20:16Z</time>
      </trkpt>
      <trkpt lat="44.47771" lon="3.57626">
        <ele>867</ele>
        <time>2016-04-27T11:20:29Z</time>
      </trkpt>
      <trkpt lat="44.4773" lon="3.5763">
        <ele>877</ele>
        <time>2016-04-27T11:20:59Z</time>
      </trkpt>
      <trkpt lat="44.47726" lon="3.57633">
        <ele>878</ele>
        <time>2016-04-27T11:21:04Z</time>
      </trkpt>
      <trkpt lat="44.47719" lon="3.57636">
        <ele>879</ele>
        <time>2016-04-27T11:21:11Z</time>
      </trkpt>
      <trkpt lat="44.47713" lon="3.57635">
        <ele>879</ele>
        <time>2016-04-27T11:21:15Z</time>
      </trkpt>
      <trkpt lat="44.47708" lon="3.57634">
        <ele>878</ele>
        <time>2016-04-27T11:21:19Z</time>
      </trkpt>
      <trkpt lat="44.47703" lon="3.57634">
        <ele>878</ele>
        <time>2016-04-27T11:21:25Z</time>
      </trkpt>
      <trkpt lat="44.47698" lon="3.57635">
        <ele>876</ele>
        <time>2016-04-27T11:21:33Z</time>
      </trkpt>
      <trkpt lat="44.47688" lon="3.57639">
        <ele>876</ele>
        <time>2016-04-27T11:21:42Z</time>
      </trkpt>
      <trkpt lat="44.47656" lon="3.57652">
        <ele>870</ele>
        <time>2016-04-27T11:22:12Z</time>
      </trkpt>
      <trkpt lat="44.47648" lon="3.57659">
        <ele>871</ele>
        <time>2016-04-27T11:22:22Z</time>
      </trkpt>
      <trkpt lat="44.47641" lon="3.57667">
        <ele>870</ele>
        <time>2016-04-27T11:22:37Z</time>
      </trkpt>
      <trkpt lat="44.47634" lon="3.57666">
        <ele>869</ele>
        <time>2016-04-27T11:22:44Z</time>
      </trkpt>
      <trkpt lat="44.47625" lon="3.57671">
        <ele>870</ele>
        <time>2016-04-27T11:22:53Z</time>
      </trkpt>
      <trkpt lat="44.47615" lon="3.57674">
        <ele>872</ele>
        <time>2016-04-27T11:23:03Z</time>
      </trkpt>
      <trkpt lat="44.47606" lon="3.57679">
        <ele>872</ele>
        <time>2016-04-27T11:23:10Z</time>
      </trkpt>
      <trkpt lat="44.47595" lon="3.57679">
        <ele>872</ele>
        <time>2016-04-27T11:23:16Z</time>
      </trkpt>
      <trkpt lat="44.47554" lon="3.57685">
        <ele>882</ele>
        <time>2016-04-27T11:23:49Z</time>
      </trkpt>
      <trkpt lat="44.47546" lon="3.57685">
        <ele>884</ele>
        <time>2016-04-27T11:23:57Z</time>
      </trkpt>
      <trkpt lat="44.47542" lon="3.57682">
        <ele>885</ele>
        <time>2016-04-27T11:24:01Z</time>
      </trkpt>
      <trkpt lat="44.47533" lon="3.57676">
        <ele>885</ele>
        <time>2016-04-27T11:24:11Z</time>
      </trkpt>
      <trkpt lat="44.47527" lon="3.57675">
        <ele>885</ele>
        <time>2016-04-27T11:24:17Z</time>
      </trkpt>
      <trkpt lat="44.47522" lon="3.57674">
        <ele>889</ele>
        <time>2016-04-27T11:24:21Z</time>
      </trkpt>
      <trkpt lat="44.47512" lon="3.57679">
        <ele>898</ele>
        <time>2016-04-27T11:24:33Z</time>
      </trkpt>
      <trkpt lat="44.47507" lon="3.57677">
        <ele>899</ele>
        <time>2016-04-27T11:24:39Z</time>
      </trkpt>
      <trkpt lat="44.47502" lon="3.57679">
        <ele>900</ele>
        <time>2016-04-27T11:24:43Z</time>
      </trkpt>
      <trkpt lat="44.47497" lon="3.57678">
        <ele>901</ele>
        <time>2016-04-27T11:24:47Z</time>
      </trkpt>
      <trkpt lat="44.4749" lon="3.57675">
        <ele>901</ele>
        <time>2016-04-27T11:24:53Z</time>
      </trkpt>
      <trkpt lat="44.47466" lon="3.57661">
        <ele>888</ele>
        <time>2016-04-27T11:25:15Z</time>
      </trkpt>
      <trkpt lat="44.47461" lon="3.57661">
        <ele>891</ele>
        <time>2016-04-27T11:25:22Z</time>
      </trkpt>
      <trkpt lat="44.47453" lon="3.57655">
        <ele>894</ele>
        <time>2016-04-27T11:25:34Z</time>
      </trkpt>
      <trkpt lat="44.47448" lon="3.57652">
        <ele>894</ele>
        <time>2016-04-27T11:25:38Z</time>
      </trkpt>
      <trkpt lat="44.47446" lon="3.57652">
        <ele>893</ele>
        <time>2016-04-27T11:25:45Z</time>
      </trkpt>
      <trkpt lat="44.4744" lon="3.57658">
        <ele>899</ele>
        <time>2016-04-27T11:25:59Z</time>
      </trkpt>
      <trkpt lat="44.47435" lon="3.57657">
        <ele>901</ele>
        <time>2016-04-27T11:26:04Z</time>
      </trkpt>
      <trkpt lat="44.47405" lon="3.57659">
        <ele>908</ele>
        <time>2016-04-27T11:26:33Z</time>
      </trkpt>
      <trkpt lat="44.474" lon="3.5766">
        <ele>908</ele>
        <time>2016-04-27T11:26:38Z</time>
      </trkpt>
      <trkpt lat="44.47386" lon="3.57663">
        <ele>905</ele>
        <time>2016-04-27T11:26:53Z</time>
      </trkpt>
      <trkpt lat="44.47374" lon="3.57656">
        <ele>902</ele>
        <time>2016-04-27T11:27:05Z</time>
      </trkpt>
      <trkpt lat="44.47368" lon="3.57653">
        <ele>903</ele>
        <time>2016-04-27T11:27:10Z</time>
      </trkpt>
      <trkpt lat="44.4735" lon="3.57647">
        <ele>914</ele>
        <time>2016-04-27T11:27:34Z</time>
      </trkpt>
      <trkpt lat="44.47338" lon="3.57634">
        <ele>917</ele>
        <time>2016-04-27T11:27:49Z</time>
      </trkpt>
      <trkpt lat="44.47334" lon="3.57629">
        <ele>917</ele>
        <time>2016-04-27T11:27:56Z</time>
      </trkpt>
      <trkpt lat="44.47326" lon="3.57625">
        <ele>917</ele>
        <time>2016-04-27T11:28:10Z</time>
      </trkpt>
      <trkpt lat="44.47316" lon="3.57625">
        <ele>919</ele>
        <time>2016-04-27T11:28:20Z</time>
      </trkpt>
      <trkpt lat="44.47313" lon="3.57621">
        <ele>919</ele>
        <time>2016-04-27T11:28:25Z</time>
      </trkpt>
      <trkpt lat="44.47302" lon="3.57615">
        <ele>917</ele>
        <time>2016-04-27T11:28:37Z</time>
      </trkpt>
      <trkpt lat="44.47299" lon="3.5761">
        <ele>918</ele>
        <time>2016-04-27T11:28:44Z</time>
      </trkpt>
      <trkpt lat="44.47288" lon="3.57605">
        <ele>919</ele>
        <time>2016-04-27T11:29:06Z</time>
      </trkpt>
      <trkpt lat="44.47274" lon="3.57586">
        <ele>910</ele>
        <time>2016-04-27T11:29:25Z</time>
      </trkpt>
      <trkpt lat="44.47269" lon="3.57584">
        <ele>909</ele>
        <time>2016-04-27T11:29:32Z</time>
      </trkpt>
      <trkpt lat="44.47265" lon="3.57582">
        <ele>910</ele>
        <time>2016-04-27T11:29:37Z</time>
      </trkpt>
      <trkpt lat="44.47261" lon="3.57577">
        <ele>909</ele>
        <time>2016-04-27T11:29:42Z</time>
      </trkpt>
      <trkpt lat="44.47253" lon="3.57565">
        <ele>905</ele>
        <time>2016-04-27T11:29:57Z</time>
      </trkpt>
      <trkpt lat="44.47248" lon="3.57563">
        <ele>906</ele>
        <time>2016-04-27T11:30:07Z</time>
      </trkpt>
      <trkpt lat="44.47246" lon="3.57558">
        <ele>907</ele>
        <time>2016-04-27T11:30:18Z</time>
      </trkpt>
      <trkpt lat="44.47239" lon="3.57551">
        <ele>914</ele>
        <time>2016-04-27T11:30:42Z</time>
      </trkpt>
      <trkpt lat="44.47223" lon="3.57542">
        <ele>922</ele>
        <time>2016-04-27T11:31:10Z</time>
      </trkpt>
      <trkpt lat="44.47223" lon="3.57538">
        <ele>923</ele>
        <time>2016-04-27T11:31:16Z</time>
      </trkpt>
      <trkpt lat="44.4722" lon="3.57533">
        <ele>925</ele>
        <time>2016-04-27T11:31:23Z</time>
      </trkpt>
      <trkpt lat="44.47215" lon="3.57531">
        <ele>928</ele>
        <time>2016-04-27T11:31:31Z</time>
      </trkpt>
      <trkpt lat="44.47213" lon="3.57528">
        <ele>928</ele>
        <time>2016-04-27T11:31:38Z</time>
      </trkpt>
      <trkpt lat="44.4721" lon="3.57519">
        <ele>930</ele>
        <time>2016-04-27T11:31:56Z</time>
      </trkpt>
      <trkpt lat="44.47206" lon="3.57521">
        <ele>933</ele>
        <time>2016-04-27T11:32:03Z</time>
      </trkpt>
      <trkpt lat="44.47202" lon="3.5752">
        <ele>940</ele>
        <time>2016-04-27T11:32:13Z</time>
      </trkpt>
      <trkpt lat="44.47198" lon="3.57515">
        <ele>940</ele>
        <time>2016-04-27T11:32:19Z</time>
      </trkpt>
      <trkpt lat="44.47194" lon="3.57513">
        <ele>941</ele>
        <time>2016-04-27T11:32:28Z</time>
      </trkpt>
      <trkpt lat="44.47192" lon="3.57518">
        <ele>945</ele>
        <time>2016-04-27T11:32:38Z</time>
      </trkpt>
      <trkpt lat="44.47188" lon="3.57516">
        <ele>951</ele>
        <time>2016-04-27T11:32:52Z</time>
      </trkpt>
      <trkpt lat="44.47182" lon="3.57507">
        <ele>954</ele>
        <time>2016-04-27T11:33:04Z</time>
      </trkpt>
      <trkpt lat="44.47177" lon="3.57507">
        <ele>953</ele>
        <time>2016-04-27T11:33:14Z</time>
      </trkpt>
      <trkpt lat="44.47172" lon="3.57513">
        <ele>956</ele>
        <time>2016-04-27T11:33:25Z</time>
      </trkpt>
      <trkpt lat="44.47168" lon="3.57512">
        <ele>957</ele>
        <time>2016-04-27T11:33:33Z</time>
      </trkpt>
      <trkpt lat="44.47163" lon="3.57507">
        <ele>958</ele>
        <time>2016-04-27T11:33:47Z</time>
      </trkpt>
      <trkpt lat="44.47161" lon="3.57507">
        <ele>958</ele>
        <time>2016-04-27T11:33:53Z</time>
      </trkpt>
      <trkpt lat="44.47157" lon="3.57504">
        <ele>958</ele>
        <time>2016-04-27T11:33:59Z</time>
      </trkpt>
      <trkpt lat="44.47148" lon="3.575">
        <ele>956</ele>
        <time>2016-04-27T11:34:18Z</time>
      </trkpt>
      <trkpt lat="44.47146" lon="3.57494">
        <ele>955</ele>
        <time>2016-04-27T11:34:28Z</time>
      </trkpt>
      <trkpt lat="44.47142" lon="3.57491">
        <ele>955</ele>
        <time>2016-04-27T11:35:11Z</time>
      </trkpt>
      <trkpt lat="44.47141" lon="3.57483">
        <ele>955</ele>
        <time>2016-04-27T11:35:13Z</time>
      </trkpt>
      <trkpt lat="44.47139" lon="3.57488">
        <ele>950</ele>
        <time>2016-04-27T11:36:00Z</time>
      </trkpt>
      <trkpt lat="44.47134" lon="3.57488">
        <ele>951</ele>
        <time>2016-04-27T11:36:09Z</time>
      </trkpt>
      <trkpt lat="44.4713" lon="3.57485">
        <ele>954</ele>
        <time>2016-04-27T11:36:18Z</time>
      </trkpt>
      <trkpt lat="44.47126" lon="3.57485">
        <ele>956</ele>
        <time>2016-04-27T11:36:26Z</time>
      </trkpt>
      <trkpt lat="44.4712" lon="3.57487">
        <ele>962</ele>
        <time>2016-04-27T11:36:37Z</time>
      </trkpt>
      <trkpt lat="44.47116" lon="3.57483">
        <ele>963</ele>
        <time>2016-04-27T11:36:45Z</time>
      </trkpt>
      <trkpt lat="44.47111" lon="3.5748">
        <ele>964</ele>
        <time>2016-04-27T11:36:53Z</time>
      </trkpt>
      <trkpt lat="44.47109" lon="3.57475">
        <ele>967</ele>
        <time>2016-04-27T11:37:05Z</time>
      </trkpt>
      <trkpt lat="44.47104" lon="3.57469">
        <ele>970</ele>
        <time>2016-04-27T11:37:20Z</time>
      </trkpt>
      <trkpt lat="44.47096" lon="3.57461">
        <ele>968</ele>
        <time>2016-04-27T11:37:41Z</time>
      </trkpt>
      <trkpt lat="44.47093" lon="3.57457">
        <ele>969</ele>
        <time>2016-04-27T11:38:00Z</time>
      </trkpt>
      <trkpt lat="44.47084" lon="3.57456">
        <ele>975</ele>
        <time>2016-04-27T11:38:20Z</time>
      </trkpt>
      <trkpt lat="44.47077" lon="3.57452">
        <ele>977</ele>
        <time>2016-04-27T11:38:34Z</time>
      </trkpt>
      <trkpt lat="44.47071" lon="3.57446">
        <ele>974</ele>
        <time>2016-04-27T11:38:48Z</time>
      </trkpt>
      <trkpt lat="44.47067" lon="3.57446">
        <ele>975</ele>
        <time>2016-04-27T11:39:00Z</time>
      </trkpt>
      <trkpt lat="44.47064" lon="3.57441">
        <ele>973</ele>
        <time>2016-04-27T11:39:08Z</time>
      </trkpt>
      <trkpt lat="44.47053" lon="3.57424">
        <ele>987</ele>
        <time>2016-04-27T11:39:55Z</time>
      </trkpt>
      <trkpt lat="44.47051" lon="3.57417">
        <ele>989</ele>
        <time>2016-04-27T11:40:08Z</time>
      </trkpt>
      <trkpt lat="44.47047" lon="3.57414">
        <ele>990</ele>
        <time>2016-04-27T11:40:16Z</time>
      </trkpt>
      <trkpt lat="44.47043" lon="3.57411">
        <ele>990</ele>
        <time>2016-04-27T11:40:24Z</time>
      </trkpt>
      <trkpt lat="44.47037" lon="3.574">
        <ele>992</ele>
        <time>2016-04-27T11:40:43Z</time>
      </trkpt>
      <trkpt lat="44.47033" lon="3.57392">
        <ele>990</ele>
        <time>2016-04-27T11:41:05Z</time>
      </trkpt>
      <trkpt lat="44.47031" lon="3.57389">
        <ele>990</ele>
        <time>2016-04-27T11:41:12Z</time>
      </trkpt>
      <trkpt lat="44.47026" lon="3.57387">
        <ele>993</ele>
        <time>2016-04-27T11:41:26Z</time>
      </trkpt>
      <trkpt lat="44.47021" lon="3.57385">
        <ele>993</ele>
        <time>2016-04-27T11:41:34Z</time>
      </trkpt>
      <trkpt lat="44.47008" lon="3.57385">
        <ele>1006</ele>
        <time>2016-04-27T11:42:08Z</time>
      </trkpt>
      <trkpt lat="44.47002" lon="3.57381">
        <ele>1008</ele>
        <time>2016-04-27T11:42:21Z</time>
      </trkpt>
      <trkpt lat="44.46998" lon="3.57377">
        <ele>1009</ele>
        <time>2016-04-27T11:42:30Z</time>
      </trkpt>
      <trkpt lat="44.46995" lon="3.57373">
        <ele>1009</ele>
        <time>2016-04-27T11:42:40Z</time>
      </trkpt>
      <trkpt lat="44.46992" lon="3.57371">
        <ele>1010</ele>
        <time>2016-04-27T11:42:48Z</time>
      </trkpt>
      <trkpt lat="44.46983" lon="3.5737">
        <ele>1017</ele>
        <time>2016-04-27T11:43:09Z</time>
      </trkpt>
      <trkpt lat="44.46975" lon="3.57363">
        <ele>1017</ele>
        <time>2016-04-27T11:43:22Z</time>
      </trkpt>
      <trkpt lat="44.4697" lon="3.57365">
        <ele>1017</ele>
        <time>2016-04-27T11:43:29Z</time>
      </trkpt>
      <trkpt lat="44.46961" lon="3.5737">
        <ele>1019</ele>
        <time>2016-04-27T11:43:44Z</time>
      </trkpt>
      <trkpt lat="44.4696" lon="3.57361">
        <ele>1018</ele>
        <time>2016-04-27T11:45:54Z</time>
      </trkpt>
      <trkpt lat="44.46958" lon="3.57361">
        <ele>1021</ele>
        <time>2016-04-27T12:00:13Z</time>
      </trkpt>
      <trkpt lat="44.46955" lon="3.57367">
        <ele>1021</ele>
        <time>2016-04-27T12:00:20Z</time>
      </trkpt>
      <trkpt lat="44.46951" lon="3.57373">
        <ele>1020</ele>
        <time>2016-04-27T12:00:33Z</time>
      </trkpt>
      <trkpt lat="44.46948" lon="3.57379">
        <ele>1021</ele>
        <time>2016-04-27T12:00:39Z</time>
      </trkpt>
      <trkpt lat="44.46944" lon="3.57384">
        <ele>1020</ele>
        <time>2016-04-27T12:00:44Z</time>
      </trkpt>
      <trkpt lat="44.46939" lon="3.57386">
        <ele>1018</ele>
        <time>2016-04-27T12:00:49Z</time>
      </trkpt>
      <trkpt lat="44.46927" lon="3.57396">
        <ele>1018</ele>
        <time>2016-04-27T12:01:07Z</time>
      </trkpt>
      <trkpt lat="44.46919" lon="3.57404">
        <ele>1015</ele>
        <time>2016-04-27T12:01:21Z</time>
      </trkpt>
      <trkpt lat="44.46916" lon="3.5741">
        <ele>1017</ele>
        <time>2016-04-27T12:01:28Z</time>
      </trkpt>
      <trkpt lat="44.46908" lon="3.57419">
        <ele>1021</ele>
        <time>2016-04-27T12:01:37Z</time>
      </trkpt>
      <trkpt lat="44.46904" lon="3.57423">
        <ele>1021</ele>
        <time>2016-04-27T12:01:42Z</time>
      </trkpt>
      <trkpt lat="44.46899" lon="3.57426">
        <ele>1021</ele>
        <time>2016-04-27T12:01:47Z</time>
      </trkpt>
      <trkpt lat="44.46895" lon="3.57431">
        <ele>1022</ele>
        <time>2016-04-27T12:01:52Z</time>
      </trkpt>
      <trkpt lat="44.46886" lon="3.57446">
        <ele>1027</ele>
        <time>2016-04-27T12:02:09Z</time>
      </trkpt>
      <trkpt lat="44.46882" lon="3.57449">
        <ele>1027</ele>
        <time>2016-04-27T12:02:13Z</time>
      </trkpt>
      <trkpt lat="44.46878" lon="3.57454">
        <ele>1026</ele>
        <time>2016-04-27T12:02:17Z</time>
      </trkpt>
      <trkpt lat="44.46874" lon="3.57458">
        <ele>1026</ele>
        <time>2016-04-27T12:02:21Z</time>
      </trkpt>
      <trkpt lat="44.46869" lon="3.57461">
        <ele>1027</ele>
        <time>2016-04-27T12:02:26Z</time>
      </trkpt>
      <trkpt lat="44.46845" lon="3.57473">
        <ele>1030</ele>
        <time>2016-04-27T12:02:52Z</time>
      </trkpt>
      <trkpt lat="44.46842" lon="3.57478">
        <ele>1031</ele>
        <time>2016-04-27T12:03:01Z</time>
      </trkpt>
      <trkpt lat="44.46838" lon="3.57483">
        <ele>1031</ele>
        <time>2016-04-27T12:03:06Z</time>
      </trkpt>
      <trkpt lat="44.46832" lon="3.57494">
        <ele>1031</ele>
        <time>2016-04-27T12:03:17Z</time>
      </trkpt>
      <trkpt lat="44.46826" lon="3.57504">
        <ele>1034</ele>
        <time>2016-04-27T12:03:29Z</time>
      </trkpt>
      <trkpt lat="44.46824" lon="3.5751">
        <ele>1034</ele>
        <time>2016-04-27T12:03:35Z</time>
      </trkpt>
      <trkpt lat="44.46816" lon="3.57516">
        <ele>1037</ele>
        <time>2016-04-27T12:03:48Z</time>
      </trkpt>
      <trkpt lat="44.46811" lon="3.57518">
        <ele>1037</ele>
        <time>2016-04-27T12:03:55Z</time>
      </trkpt>
      <trkpt lat="44.46807" lon="3.5752">
        <ele>1037</ele>
        <time>2016-04-27T12:04:04Z</time>
      </trkpt>
      <trkpt lat="44.46806" lon="3.57523">
        <ele>1038</ele>
        <time>2016-04-27T12:04:16Z</time>
      </trkpt>
      <trkpt lat="44.46799" lon="3.57519">
        <ele>1039</ele>
        <time>2016-04-27T12:04:27Z</time>
      </trkpt>
      <trkpt lat="44.46788" lon="3.57519">
        <ele>1038</ele>
        <time>2016-04-27T12:04:37Z</time>
      </trkpt>
      <trkpt lat="44.46784" lon="3.57517">
        <ele>1038</ele>
        <time>2016-04-27T12:04:44Z</time>
      </trkpt>
      <trkpt lat="44.46778" lon="3.57518">
        <ele>1038</ele>
        <time>2016-04-27T12:04:50Z</time>
      </trkpt>
      <trkpt lat="44.46769" lon="3.57519">
        <ele>1038</ele>
        <time>2016-04-27T12:04:58Z</time>
      </trkpt>
      <trkpt lat="44.46764" lon="3.57521">
        <ele>1038</ele>
        <time>2016-04-27T12:05:03Z</time>
      </trkpt>
      <trkpt lat="44.46754" lon="3.57524">
        <ele>1041</ele>
        <time>2016-04-27T12:05:13Z</time>
      </trkpt>
      <trkpt lat="44.46749" lon="3.57528">
        <ele>1041</ele>
        <time>2016-04-27T12:05:19Z</time>
      </trkpt>
      <trkpt lat="44.46744" lon="3.5753">
        <ele>1041</ele>
        <time>2016-04-27T12:05:25Z</time>
      </trkpt>
      <trkpt lat="44.46739" lon="3.57533">
        <ele>1042</ele>
        <time>2016-04-27T12:05:30Z</time>
      </trkpt>
      <trkpt lat="44.46734" lon="3.57536">
        <ele>1041</ele>
        <time>2016-04-27T12:05:34Z</time>
      </trkpt>
      <trkpt lat="44.46718" lon="3.57564">
        <ele>1038</ele>
        <time>2016-04-27T12:05:58Z</time>
      </trkpt>
      <trkpt lat="44.46711" lon="3.57575">
        <ele>1035</ele>
        <time>2016-04-27T12:06:12Z</time>
      </trkpt>
      <trkpt lat="44.46707" lon="3.57577">
        <ele>1036</ele>
        <time>2016-04-27T12:06:16Z</time>
      </trkpt>
      <trkpt lat="44.46703" lon="3.57582">
        <ele>1036</ele>
        <time>2016-04-27T12:06:20Z</time>
      </trkpt>
      <trkpt lat="44.46691" lon="3.57594">
        <ele>1041</ele>
        <time>2016-04-27T12:06:33Z</time>
      </trkpt>
      <trkpt lat="44.46688" lon="3.57599">
        <ele>1041</ele>
        <time>2016-04-27T12:06:38Z</time>
      </trkpt>
      <trkpt lat="44.46684" lon="3.57602">
        <ele>1041</ele>
        <time>2016-04-27T12:06:42Z</time>
      </trkpt>
      <trkpt lat="44.4668" lon="3.57606">
        <ele>1041</ele>
        <time>2016-04-27T12:06:46Z</time>
      </trkpt>
      <trkpt lat="44.46676" lon="3.57607">
        <ele>1043</ele>
        <time>2016-04-27T12:06:53Z</time>
      </trkpt>
      <trkpt lat="44.46675" lon="3.576">
        <ele>1043</ele>
        <time>2016-04-27T12:06:58Z</time>
      </trkpt>
      <trkpt lat="44.46671" lon="3.57588">
        <ele>1044</ele>
        <time>2016-04-27T12:07:06Z</time>
      </trkpt>
      <trkpt lat="44.46658" lon="3.57549">
        <ele>1035</ele>
        <time>2016-04-27T12:07:31Z</time>
      </trkpt>
      <trkpt lat="44.46652" lon="3.57538">
        <ele>1035</ele>
        <time>2016-04-27T12:07:41Z</time>
      </trkpt>
      <trkpt lat="44.46649" lon="3.57533">
        <ele>1036</ele>
        <time>2016-04-27T12:07:46Z</time>
      </trkpt>
      <trkpt lat="44.46648" lon="3.57526">
        <ele>1037</ele>
        <time>2016-04-27T12:07:51Z</time>
      </trkpt>
      <trkpt lat="44.46646" lon="3.57519">
        <ele>1040</ele>
        <time>2016-04-27T12:07:57Z</time>
      </trkpt>
      <trkpt lat="44.46645" lon="3.57513">
        <ele>1040</ele>
        <time>2016-04-27T12:08:01Z</time>
      </trkpt>
      <trkpt lat="44.46643" lon="3.57506">
        <ele>1040</ele>
        <time>2016-04-27T12:08:05Z</time>
      </trkpt>
      <trkpt lat="44.46646" lon="3.57476">
        <ele>1037</ele>
        <time>2016-04-27T12:08:21Z</time>
      </trkpt>
      <trkpt lat="44.46652" lon="3.57448">
        <ele>1035</ele>
        <time>2016-04-27T12:08:43Z</time>
      </trkpt>
      <trkpt lat="44.46652" lon="3.57441">
        <ele>1035</ele>
        <time>2016-04-27T12:08:49Z</time>
      </trkpt>
      <trkpt lat="44.46651" lon="3.57434">
        <ele>1035</ele>
        <time>2016-04-27T12:08:54Z</time>
      </trkpt>
      <trkpt lat="44.46649" lon="3.57427">
        <ele>1035</ele>
        <time>2016-04-27T12:09:00Z</time>
      </trkpt>
      <trkpt lat="44.46647" lon="3.57421">
        <ele>1035</ele>
        <time>2016-04-27T12:09:05Z</time>
      </trkpt>
      <trkpt lat="44.46642" lon="3.5741">
        <ele>1035</ele>
        <time>2016-04-27T12:09:14Z</time>
      </trkpt>
      <trkpt lat="44.46634" lon="3.57403">
        <ele>1038</ele>
        <time>2016-04-27T12:09:23Z</time>
      </trkpt>
      <trkpt lat="44.46632" lon="3.57397">
        <ele>1040</ele>
        <time>2016-04-27T12:09:28Z</time>
      </trkpt>
      <trkpt lat="44.46629" lon="3.57392">
        <ele>1040</ele>
        <time>2016-04-27T12:09:33Z</time>
      </trkpt>
      <trkpt lat="44.46626" lon="3.57388">
        <ele>1041</ele>
        <time>2016-04-27T12:09:38Z</time>
      </trkpt>
      <trkpt lat="44.46611" lon="3.57359">
        <ele>1028</ele>
        <time>2016-04-27T12:10:03Z</time>
      </trkpt>
      <trkpt lat="44.46608" lon="3.57353">
        <ele>1028</ele>
        <time>2016-04-27T12:10:09Z</time>
      </trkpt>
      <trkpt lat="44.46604" lon="3.57349">
        <ele>1027</ele>
        <time>2016-04-27T12:10:14Z</time>
      </trkpt>
      <trkpt lat="44.466" lon="3.57346">
        <ele>1027</ele>
        <time>2016-04-27T12:10:18Z</time>
      </trkpt>
      <trkpt lat="44.46577" lon="3.57331">
        <ele>1023</ele>
        <time>2016-04-27T12:10:42Z</time>
      </trkpt>
      <trkpt lat="44.46572" lon="3.57331">
        <ele>1024</ele>
        <time>2016-04-27T12:10:47Z</time>
      </trkpt>
      <trkpt lat="44.46562" lon="3.57331">
        <ele>1026</ele>
        <time>2016-04-27T12:10:58Z</time>
      </trkpt>
      <trkpt lat="44.4655" lon="3.57319">
        <ele>1031</ele>
        <time>2016-04-27T12:11:10Z</time>
      </trkpt>
      <trkpt lat="44.46546" lon="3.57307">
        <ele>1029</ele>
        <time>2016-04-27T12:11:17Z</time>
      </trkpt>
      <trkpt lat="44.4654" lon="3.57289">
        <ele>1031</ele>
        <time>2016-04-27T12:11:31Z</time>
      </trkpt>
      <trkpt lat="44.46538" lon="3.57282">
        <ele>1029</ele>
        <time>2016-04-27T12:11:37Z</time>
      </trkpt>
      <trkpt lat="44.4653" lon="3.57275">
        <ele>1026</ele>
        <time>2016-04-27T12:11:46Z</time>
      </trkpt>
      <trkpt lat="44.46526" lon="3.5727">
        <ele>1026</ele>
        <time>2016-04-27T12:11:50Z</time>
      </trkpt>
      <trkpt lat="44.46514" lon="3.5725">
        <ele>1025</ele>
        <time>2016-04-27T12:12:06Z</time>
      </trkpt>
      <trkpt lat="44.46491" lon="3.57223">
        <ele>1016</ele>
        <time>2016-04-27T12:12:33Z</time>
      </trkpt>
      <trkpt lat="44.46483" lon="3.57206">
        <ele>1019</ele>
        <time>2016-04-27T12:12:46Z</time>
      </trkpt>
      <trkpt lat="44.46479" lon="3.57202">
        <ele>1019</ele>
        <time>2016-04-27T12:12:50Z</time>
      </trkpt>
      <trkpt lat="44.46473" lon="3.57191">
        <ele>1017</ele>
        <time>2016-04-27T12:12:58Z</time>
      </trkpt>
      <trkpt lat="44.4647" lon="3.57186">
        <ele>1017</ele>
        <time>2016-04-27T12:13:02Z</time>
      </trkpt>
      <trkpt lat="44.46466" lon="3.57181">
        <ele>1016</ele>
        <time>2016-04-27T12:13:06Z</time>
      </trkpt>
      <trkpt lat="44.46459" lon="3.5717">
        <ele>1018</ele>
        <time>2016-04-27T12:13:16Z</time>
      </trkpt>
      <trkpt lat="44.46455" lon="3.57166">
        <ele>1019</ele>
        <time>2016-04-27T12:13:21Z</time>
      </trkpt>
      <trkpt lat="44.46445" lon="3.57158">
        <ele>1020</ele>
        <time>2016-04-27T12:13:31Z</time>
      </trkpt>
      <trkpt lat="44.46436" lon="3.57151">
        <ele>1020</ele>
        <time>2016-04-27T12:13:41Z</time>
      </trkpt>
      <trkpt lat="44.46432" lon="3.57148">
        <ele>1019</ele>
        <time>2016-04-27T12:13:46Z</time>
      </trkpt>
      <trkpt lat="44.46427" lon="3.57145">
        <ele>1020</ele>
        <time>2016-04-27T12:13:51Z</time>
      </trkpt>
      <trkpt lat="44.46422" lon="3.57144">
        <ele>1020</ele>
        <time>2016-04-27T12:13:56Z</time>
      </trkpt>
      <trkpt lat="44.46419" lon="3.57143">
        <ele>1018</ele>
        <time>2016-04-27T12:14:19Z</time>
      </trkpt>
      <trkpt lat="44.46416" lon="3.57141">
        <ele>1017</ele>
        <time>2016-04-27T12:14:36Z</time>
      </trkpt>
      <trkpt lat="44.46411" lon="3.57138">
        <ele>1018</ele>
        <time>2016-04-27T12:14:40Z</time>
      </trkpt>
      <trkpt lat="44.46407" lon="3.57135">
        <ele>1020</ele>
        <time>2016-04-27T12:14:45Z</time>
      </trkpt>
      <trkpt lat="44.46402" lon="3.57133">
        <ele>1020</ele>
        <time>2016-04-27T12:14:48Z</time>
      </trkpt>
      <trkpt lat="44.46397" lon="3.5713">
        <ele>1019</ele>
        <time>2016-04-27T12:14:53Z</time>
      </trkpt>
      <trkpt lat="44.46388" lon="3.57125">
        <ele>1019</ele>
        <time>2016-04-27T12:15:01Z</time>
      </trkpt>
      <trkpt lat="44.46379" lon="3.57122">
        <ele>1018</ele>
        <time>2016-04-27T12:15:09Z</time>
      </trkpt>
      <trkpt lat="44.46365" lon="3.57118">
        <ele>1019</ele>
        <time>2016-04-27T12:15:21Z</time>
      </trkpt>
      <trkpt lat="44.4636" lon="3.57117">
        <ele>1019</ele>
        <time>2016-04-27T12:15:25Z</time>
      </trkpt>
      <trkpt lat="44.46345" lon="3.57114">
        <ele>1015</ele>
        <time>2016-04-27T12:15:37Z</time>
      </trkpt>
      <trkpt lat="44.4634" lon="3.57114">
        <ele>1015</ele>
        <time>2016-04-27T12:15:41Z</time>
      </trkpt>
      <trkpt lat="44.46335" lon="3.57114">
        <ele>1015</ele>
        <time>2016-04-27T12:15:48Z</time>
      </trkpt>
      <trkpt lat="44.46316" lon="3.57106">
        <ele>1016</ele>
        <time>2016-04-27T12:16:08Z</time>
      </trkpt>
      <trkpt lat="44.46312" lon="3.57105">
        <ele>1015</ele>
        <time>2016-04-27T12:16:13Z</time>
      </trkpt>
      <trkpt lat="44.46307" lon="3.57103">
        <ele>1016</ele>
        <time>2016-04-27T12:16:17Z</time>
      </trkpt>
      <trkpt lat="44.46299" lon="3.57095">
        <ele>1015</ele>
        <time>2016-04-27T12:16:25Z</time>
      </trkpt>
      <trkpt lat="44.46295" lon="3.57092">
        <ele>1015</ele>
        <time>2016-04-27T12:16:30Z</time>
      </trkpt>
      <trkpt lat="44.46289" lon="3.5709">
        <ele>1015</ele>
        <time>2016-04-27T12:16:35Z</time>
      </trkpt>
      <trkpt lat="44.46284" lon="3.57087">
        <ele>1014</ele>
        <time>2016-04-27T12:16:40Z</time>
      </trkpt>
      <trkpt lat="44.46279" lon="3.57087">
        <ele>1014</ele>
        <time>2016-04-27T12:16:44Z</time>
      </trkpt>
      <trkpt lat="44.4627" lon="3.57085">
        <ele>1011</ele>
        <time>2016-04-27T12:16:52Z</time>
      </trkpt>
      <trkpt lat="44.46265" lon="3.57084">
        <ele>1011</ele>
        <time>2016-04-27T12:16:56Z</time>
      </trkpt>
      <trkpt lat="44.46249" lon="3.57083">
        <ele>1009</ele>
        <time>2016-04-27T12:17:08Z</time>
      </trkpt>
      <trkpt lat="44.46245" lon="3.57083">
        <ele>1009</ele>
        <time>2016-04-27T12:17:12Z</time>
      </trkpt>
      <trkpt lat="44.4624" lon="3.57084">
        <ele>1008</ele>
        <time>2016-04-27T12:17:16Z</time>
      </trkpt>
      <trkpt lat="44.46234" lon="3.57085">
        <ele>1007</ele>
        <time>2016-04-27T12:17:21Z</time>
      </trkpt>
      <trkpt lat="44.46224" lon="3.5709">
        <ele>1005</ele>
        <time>2016-04-27T12:17:29Z</time>
      </trkpt>
      <trkpt lat="44.4622" lon="3.57091">
        <ele>1005</ele>
        <time>2016-04-27T12:17:33Z</time>
      </trkpt>
      <trkpt lat="44.4621" lon="3.57092">
        <ele>1005</ele>
        <time>2016-04-27T12:17:41Z</time>
      </trkpt>
      <trkpt lat="44.462" lon="3.57093">
        <ele>1008</ele>
        <time>2016-04-27T12:17:50Z</time>
      </trkpt>
      <trkpt lat="44.4619" lon="3.57094">
        <ele>1008</ele>
        <time>2016-04-27T12:17:59Z</time>
      </trkpt>
      <trkpt lat="44.46185" lon="3.57093">
        <ele>1010</ele>
        <time>2016-04-27T12:18:03Z</time>
      </trkpt>
      <trkpt lat="44.4618" lon="3.57093">
        <ele>1010</ele>
        <time>2016-04-27T12:18:08Z</time>
      </trkpt>
      <trkpt lat="44.4617" lon="3.57086">
        <ele>1011</ele>
        <time>2016-04-27T12:18:18Z</time>
      </trkpt>
      <trkpt lat="44.46157" lon="3.57079">
        <ele>1009</ele>
        <time>2016-04-27T12:18:30Z</time>
      </trkpt>
      <trkpt lat="44.46153" lon="3.57079">
        <ele>1009</ele>
        <time>2016-04-27T12:18:35Z</time>
      </trkpt>
      <trkpt lat="44.46148" lon="3.57079">
        <ele>1009</ele>
        <time>2016-04-27T12:18:39Z</time>
      </trkpt>
      <trkpt lat="44.46142" lon="3.5708">
        <ele>1009</ele>
        <time>2016-04-27T12:18:44Z</time>
      </trkpt>
      <trkpt lat="44.46122" lon="3.57084">
        <ele>1005</ele>
        <time>2016-04-27T12:19:04Z</time>
      </trkpt>
      <trkpt lat="44.46108" lon="3.57084">
        <ele>1006</ele>
        <time>2016-04-27T12:19:19Z</time>
      </trkpt>
      <trkpt lat="44.46097" lon="3.57098">
        <ele>1003</ele>
        <time>2016-04-27T12:19:34Z</time>
      </trkpt>
      <trkpt lat="44.46095" lon="3.57104">
        <ele>1003</ele>
        <time>2016-04-27T12:19:38Z</time>
      </trkpt>
      <trkpt lat="44.46093" lon="3.57111">
        <ele>1003</ele>
        <time>2016-04-27T12:19:42Z</time>
      </trkpt>
      <trkpt lat="44.46089" lon="3.57131">
        <ele>1004</ele>
        <time>2016-04-27T12:19:55Z</time>
      </trkpt>
      <trkpt lat="44.46088" lon="3.57138">
        <ele>1003</ele>
        <time>2016-04-27T12:20:00Z</time>
      </trkpt>
      <trkpt lat="44.46089" lon="3.57146">
        <ele>1003</ele>
        <time>2016-04-27T12:20:05Z</time>
      </trkpt>
      <trkpt lat="44.46091" lon="3.57152">
        <ele>1003</ele>
        <time>2016-04-27T12:20:09Z</time>
      </trkpt>
      <trkpt lat="44.46094" lon="3.57158">
        <ele>1003</ele>
        <time>2016-04-27T12:20:13Z</time>
      </trkpt>
      <trkpt lat="44.46103" lon="3.57175">
        <ele>1001</ele>
        <time>2016-04-27T12:20:26Z</time>
      </trkpt>
      <trkpt lat="44.46104" lon="3.57181">
        <ele>1001</ele>
        <time>2016-04-27T12:20:30Z</time>
      </trkpt>
      <trkpt lat="44.46105" lon="3.57187">
        <ele>1001</ele>
        <time>2016-04-27T12:20:34Z</time>
      </trkpt>
      <trkpt lat="44.46106" lon="3.57194">
        <ele>1001</ele>
        <time>2016-04-27T12:20:39Z</time>
      </trkpt>
      <trkpt lat="44.46105" lon="3.57229">
        <ele>997</ele>
        <time>2016-04-27T12:21:03Z</time>
      </trkpt>
      <trkpt lat="44.46105" lon="3.57236">
        <ele>997</ele>
        <time>2016-04-27T12:21:08Z</time>
      </trkpt>
      <trkpt lat="44.46105" lon="3.57243">
        <ele>996</ele>
        <time>2016-04-27T12:21:14Z</time>
      </trkpt>
      <trkpt lat="44.46106" lon="3.57245">
        <ele>996</ele>
        <time>2016-04-27T12:21:30Z</time>
      </trkpt>
      <trkpt lat="44.46107" lon="3.57251">
        <ele>996</ele>
        <time>2016-04-27T12:21:39Z</time>
      </trkpt>
      <trkpt lat="44.46104" lon="3.57257">
        <ele>996</ele>
        <time>2016-04-27T12:21:47Z</time>
      </trkpt>
      <trkpt lat="44.46074" lon="3.57286">
        <ele>1008</ele>
        <time>2016-04-27T12:22:21Z</time>
      </trkpt>
      <trkpt lat="44.46071" lon="3.57292">
        <ele>1008</ele>
        <time>2016-04-27T12:22:27Z</time>
      </trkpt>
      <trkpt lat="44.46065" lon="3.57311">
        <ele>1005</ele>
        <time>2016-04-27T12:22:40Z</time>
      </trkpt>
      <trkpt lat="44.46063" lon="3.57318">
        <ele>1005</ele>
        <time>2016-04-27T12:22:46Z</time>
      </trkpt>
      <trkpt lat="44.46062" lon="3.57324">
        <ele>1005</ele>
        <time>2016-04-27T12:22:51Z</time>
      </trkpt>
      <trkpt lat="44.46057" lon="3.57343">
        <ele>1008</ele>
        <time>2016-04-27T12:23:06Z</time>
      </trkpt>
      <trkpt lat="44.46056" lon="3.5735">
        <ele>1008</ele>
        <time>2016-04-27T12:23:11Z</time>
      </trkpt>
      <trkpt lat="44.46055" lon="3.57356">
        <ele>1008</ele>
        <time>2016-04-27T12:23:16Z</time>
      </trkpt>
      <trkpt lat="44.46047" lon="3.57365">
        <ele>1004</ele>
        <time>2016-04-27T12:23:30Z</time>
      </trkpt>
      <trkpt lat="44.46043" lon="3.57364">
        <ele>1004</ele>
        <time>2016-04-27T12:23:36Z</time>
      </trkpt>
      <trkpt lat="44.46038" lon="3.57371">
        <ele>1004</ele>
        <time>2016-04-27T12:23:51Z</time>
      </trkpt>
      <trkpt lat="44.46032" lon="3.57382">
        <ele>1002</ele>
        <time>2016-04-27T12:24:05Z</time>
      </trkpt>
      <trkpt lat="44.46032" lon="3.57389">
        <ele>1001</ele>
        <time>2016-04-27T12:24:13Z</time>
      </trkpt>
      <trkpt lat="44.46028" lon="3.57395">
        <ele>1000</ele>
        <time>2016-04-27T12:24:20Z</time>
      </trkpt>
      <trkpt lat="44.46003" lon="3.57413">
        <ele>993</ele>
        <time>2016-04-27T12:24:53Z</time>
      </trkpt>
      <trkpt lat="44.45999" lon="3.57417">
        <ele>993</ele>
        <time>2016-04-27T12:25:02Z</time>
      </trkpt>
      <trkpt lat="44.45989" lon="3.57422">
        <ele>994</ele>
        <time>2016-04-27T12:25:10Z</time>
      </trkpt>
      <trkpt lat="44.45985" lon="3.57424">
        <ele>993</ele>
        <time>2016-04-27T12:25:16Z</time>
      </trkpt>
      <trkpt lat="44.4598" lon="3.57423">
        <ele>991</ele>
        <time>2016-04-27T12:25:26Z</time>
      </trkpt>
      <trkpt lat="44.45961" lon="3.57417">
        <ele>993</ele>
        <time>2016-04-27T12:25:49Z</time>
      </trkpt>
      <trkpt lat="44.45958" lon="3.57412">
        <ele>994</ele>
        <time>2016-04-27T12:25:54Z</time>
      </trkpt>
      <trkpt lat="44.45956" lon="3.57405">
        <ele>993</ele>
        <time>2016-04-27T12:25:59Z</time>
      </trkpt>
      <trkpt lat="44.45946" lon="3.57381">
        <ele>989</ele>
        <time>2016-04-27T12:26:18Z</time>
      </trkpt>
      <trkpt lat="44.45944" lon="3.57366">
        <ele>990</ele>
        <time>2016-04-27T12:26:27Z</time>
      </trkpt>
      <trkpt lat="44.45941" lon="3.5736">
        <ele>991</ele>
        <time>2016-04-27T12:26:32Z</time>
      </trkpt>
      <trkpt lat="44.45937" lon="3.57355">
        <ele>990</ele>
        <time>2016-04-27T12:26:36Z</time>
      </trkpt>
      <trkpt lat="44.45935" lon="3.57342">
        <ele>989</ele>
        <time>2016-04-27T12:26:45Z</time>
      </trkpt>
      <trkpt lat="44.45929" lon="3.57331">
        <ele>990</ele>
        <time>2016-04-27T12:26:55Z</time>
      </trkpt>
      <trkpt lat="44.45923" lon="3.57319">
        <ele>989</ele>
        <time>2016-04-27T12:27:04Z</time>
      </trkpt>
      <trkpt lat="44.45918" lon="3.57316">
        <ele>987</ele>
        <time>2016-04-27T12:27:09Z</time>
      </trkpt>
      <trkpt lat="44.45897" lon="3.57278">
        <ele>974</ele>
        <time>2016-04-27T12:27:43Z</time>
      </trkpt>
      <trkpt lat="44.4589" lon="3.57269">
        <ele>974</ele>
        <time>2016-04-27T12:27:51Z</time>
      </trkpt>
      <trkpt lat="44.45887" lon="3.57264">
        <ele>975</ele>
        <time>2016-04-27T12:27:55Z</time>
      </trkpt>
      <trkpt lat="44.45883" lon="3.57246">
        <ele>978</ele>
        <time>2016-04-27T12:28:05Z</time>
      </trkpt>
      <trkpt lat="44.45878" lon="3.57238">
        <ele>978</ele>
        <time>2016-04-27T12:28:10Z</time>
      </trkpt>
      <trkpt lat="44.45859" lon="3.57198">
        <ele>969</ele>
        <time>2016-04-27T12:28:43Z</time>
      </trkpt>
      <trkpt lat="44.45856" lon="3.57192">
        <ele>969</ele>
        <time>2016-04-27T12:28:48Z</time>
      </trkpt>
      <trkpt lat="44.45852" lon="3.57187">
        <ele>968</ele>
        <time>2016-04-27T12:28:55Z</time>
      </trkpt>
      <trkpt lat="44.45845" lon="3.57168">
        <ele>970</ele>
        <time>2016-04-27T12:29:09Z</time>
      </trkpt>
      <trkpt lat="44.45842" lon="3.57155">
        <ele>969</ele>
        <time>2016-04-27T12:29:18Z</time>
      </trkpt>
      <trkpt lat="44.4584" lon="3.57148">
        <ele>969</ele>
        <time>2016-04-27T12:29:23Z</time>
      </trkpt>
      <trkpt lat="44.45839" lon="3.57141">
        <ele>969</ele>
        <time>2016-04-27T12:29:27Z</time>
      </trkpt>
      <trkpt lat="44.45838" lon="3.57134">
        <ele>970</ele>
        <time>2016-04-27T12:29:31Z</time>
      </trkpt>
      <trkpt lat="44.45832" lon="3.57124">
        <ele>970</ele>
        <time>2016-04-27T12:29:40Z</time>
      </trkpt>
      <trkpt lat="44.4583" lon="3.57118">
        <ele>970</ele>
        <time>2016-04-27T12:29:43Z</time>
      </trkpt>
      <trkpt lat="44.45824" lon="3.57105">
        <ele>972</ele>
        <time>2016-04-27T12:29:50Z</time>
      </trkpt>
      <trkpt lat="44.4582" lon="3.57102">
        <ele>972</ele>
        <time>2016-04-27T12:29:55Z</time>
      </trkpt>
      <trkpt lat="44.45793" lon="3.57083">
        <ele>965</ele>
        <time>2016-04-27T12:30:31Z</time>
      </trkpt>
      <trkpt lat="44.45779" lon="3.57081">
        <ele>959</ele>
        <time>2016-04-27T12:30:48Z</time>
      </trkpt>
      <trkpt lat="44.45774" lon="3.57081">
        <ele>960</ele>
        <time>2016-04-27T12:30:56Z</time>
      </trkpt>
      <trkpt lat="44.45771" lon="3.5708">
        <ele>959</ele>
        <time>2016-04-27T12:31:05Z</time>
      </trkpt>
      <trkpt lat="44.45769" lon="3.57084">
        <ele>958</ele>
        <time>2016-04-27T12:31:18Z</time>
      </trkpt>
      <trkpt lat="44.45765" lon="3.57083">
        <ele>958</ele>
        <time>2016-04-27T12:31:35Z</time>
      </trkpt>
      <trkpt lat="44.45746" lon="3.57079">
        <ele>951</ele>
        <time>2016-04-27T12:31:58Z</time>
      </trkpt>
      <trkpt lat="44.45741" lon="3.57079">
        <ele>952</ele>
        <time>2016-04-27T12:32:04Z</time>
      </trkpt>
      <trkpt lat="44.45738" lon="3.57077">
        <ele>951</ele>
        <time>2016-04-27T12:32:12Z</time>
      </trkpt>
      <trkpt lat="44.45731" lon="3.57075">
        <ele>949</ele>
        <time>2016-04-27T12:32:24Z</time>
      </trkpt>
      <trkpt lat="44.45726" lon="3.57074">
        <ele>949</ele>
        <time>2016-04-27T12:32:28Z</time>
      </trkpt>
      <trkpt lat="44.45714" lon="3.57061">
        <ele>953</ele>
        <time>2016-04-27T12:32:41Z</time>
      </trkpt>
      <trkpt lat="44.45712" lon="3.57054">
        <ele>953</ele>
        <time>2016-04-27T12:32:45Z</time>
      </trkpt>
      <trkpt lat="44.45709" lon="3.57042">
        <ele>954</ele>
        <time>2016-04-27T12:32:53Z</time>
      </trkpt>
      <trkpt lat="44.45703" lon="3.57031">
        <ele>952</ele>
        <time>2016-04-27T12:33:03Z</time>
      </trkpt>
      <trkpt lat="44.45695" lon="3.57024">
        <ele>950</ele>
        <time>2016-04-27T12:33:13Z</time>
      </trkpt>
      <trkpt lat="44.45693" lon="3.57017">
        <ele>949</ele>
        <time>2016-04-27T12:33:18Z</time>
      </trkpt>
      <trkpt lat="44.45689" lon="3.56997">
        <ele>951</ele>
        <time>2016-04-27T12:33:34Z</time>
      </trkpt>
      <trkpt lat="44.45687" lon="3.5699">
        <ele>950</ele>
        <time>2016-04-27T12:33:42Z</time>
      </trkpt>
      <trkpt lat="44.45676" lon="3.5695">
        <ele>940</ele>
        <time>2016-04-27T12:34:14Z</time>
      </trkpt>
      <trkpt lat="44.45667" lon="3.56911">
        <ele>933</ele>
        <time>2016-04-27T12:34:47Z</time>
      </trkpt>
      <trkpt lat="44.45664" lon="3.5689">
        <ele>930</ele>
        <time>2016-04-27T12:35:05Z</time>
      </trkpt>
      <trkpt lat="44.45664" lon="3.56883">
        <ele>930</ele>
        <time>2016-04-27T12:35:11Z</time>
      </trkpt>
      <trkpt lat="44.45663" lon="3.56876">
        <ele>930</ele>
        <time>2016-04-27T12:35:16Z</time>
      </trkpt>
      <trkpt lat="44.45663" lon="3.5687">
        <ele>929</ele>
        <time>2016-04-27T12:35:21Z</time>
      </trkpt>
      <trkpt lat="44.45662" lon="3.56855">
        <ele>929</ele>
        <time>2016-04-27T12:35:33Z</time>
      </trkpt>
      <trkpt lat="44.45654" lon="3.56816">
        <ele>922</ele>
        <time>2016-04-27T12:36:05Z</time>
      </trkpt>
      <trkpt lat="44.45653" lon="3.56809">
        <ele>922</ele>
        <time>2016-04-27T12:36:10Z</time>
      </trkpt>
      <trkpt lat="44.45648" lon="3.56799">
        <ele>921</ele>
        <time>2016-04-27T12:36:35Z</time>
      </trkpt>
      <trkpt lat="44.45648" lon="3.56786">
        <ele>920</ele>
        <time>2016-04-27T12:36:44Z</time>
      </trkpt>
      <trkpt lat="44.45647" lon="3.56779">
        <ele>921</ele>
        <time>2016-04-27T12:36:49Z</time>
      </trkpt>
      <trkpt lat="44.45644" lon="3.56763">
        <ele>918</ele>
        <time>2016-04-27T12:37:11Z</time>
      </trkpt>
      <trkpt lat="44.4564" lon="3.56757">
        <ele>917</ele>
        <time>2016-04-27T12:37:16Z</time>
      </trkpt>
      <trkpt lat="44.45637" lon="3.56752">
        <ele>917</ele>
        <time>2016-04-27T12:37:21Z</time>
      </trkpt>
      <trkpt lat="44.45634" lon="3.56746">
        <ele>918</ele>
        <time>2016-04-27T12:37:26Z</time>
      </trkpt>
      <trkpt lat="44.45633" lon="3.56739">
        <ele>918</ele>
        <time>2016-04-27T12:37:31Z</time>
      </trkpt>
      <trkpt lat="44.45629" lon="3.56726">
        <ele>920</ele>
        <time>2016-04-27T12:37:40Z</time>
      </trkpt>
      <trkpt lat="44.45627" lon="3.56719">
        <ele>919</ele>
        <time>2016-04-27T12:37:45Z</time>
      </trkpt>
      <trkpt lat="44.45618" lon="3.56703">
        <ele>916</ele>
        <time>2016-04-27T12:38:39Z</time>
      </trkpt>
      <trkpt lat="44.45616" lon="3.56696">
        <ele>915</ele>
        <time>2016-04-27T12:38:45Z</time>
      </trkpt>
      <trkpt lat="44.45615" lon="3.56689">
        <ele>915</ele>
        <time>2016-04-27T12:38:51Z</time>
      </trkpt>
      <trkpt lat="44.45614" lon="3.56672">
        <ele>912</ele>
        <time>2016-04-27T12:40:00Z</time>
      </trkpt>
      <trkpt lat="44.45616" lon="3.56659">
        <ele>911</ele>
        <time>2016-04-27T12:40:10Z</time>
      </trkpt>
      <trkpt lat="44.45618" lon="3.56653">
        <ele>911</ele>
        <time>2016-04-27T12:40:16Z</time>
      </trkpt>
      <trkpt lat="44.45626" lon="3.56626">
        <ele>905</ele>
        <time>2016-04-27T12:40:38Z</time>
      </trkpt>
      <trkpt lat="44.45625" lon="3.56619">
        <ele>905</ele>
        <time>2016-04-27T12:40:44Z</time>
      </trkpt>
      <trkpt lat="44.45624" lon="3.566">
        <ele>905</ele>
        <time>2016-04-27T12:40:59Z</time>
      </trkpt>
      <trkpt lat="44.45622" lon="3.56593">
        <ele>904</ele>
        <time>2016-04-27T12:41:03Z</time>
      </trkpt>
      <trkpt lat="44.45621" lon="3.56586">
        <ele>904</ele>
        <time>2016-04-27T12:41:07Z</time>
      </trkpt>
      <trkpt lat="44.45621" lon="3.56579">
        <ele>906</ele>
        <time>2016-04-27T12:41:13Z</time>
      </trkpt>
      <trkpt lat="44.45622" lon="3.56572">
        <ele>906</ele>
        <time>2016-04-27T12:41:19Z</time>
      </trkpt>
      <trkpt lat="44.45623" lon="3.56552">
        <ele>902</ele>
        <time>2016-04-27T12:41:33Z</time>
      </trkpt>
      <trkpt lat="44.45621" lon="3.56546">
        <ele>899</ele>
        <time>2016-04-27T12:41:40Z</time>
      </trkpt>
      <trkpt lat="44.4562" lon="3.56538">
        <ele>895</ele>
        <time>2016-04-27T12:41:47Z</time>
      </trkpt>
      <trkpt lat="44.45621" lon="3.56532">
        <ele>895</ele>
        <time>2016-04-27T12:41:51Z</time>
      </trkpt>
      <trkpt lat="44.45621" lon="3.56519">
        <ele>895</ele>
        <time>2016-04-27T12:42:00Z</time>
      </trkpt>
      <trkpt lat="44.45621" lon="3.56511">
        <ele>896</ele>
        <time>2016-04-27T12:42:12Z</time>
      </trkpt>
      <trkpt lat="44.45621" lon="3.56505">
        <ele>897</ele>
        <time>2016-04-27T12:42:17Z</time>
      </trkpt>
      <trkpt lat="44.45623" lon="3.56498">
        <ele>897</ele>
        <time>2016-04-27T12:42:21Z</time>
      </trkpt>
      <trkpt lat="44.45623" lon="3.56492">
        <ele>897</ele>
        <time>2016-04-27T12:42:25Z</time>
      </trkpt>
      <trkpt lat="44.45625" lon="3.56479">
        <ele>898</ele>
        <time>2016-04-27T12:42:34Z</time>
      </trkpt>
      <trkpt lat="44.45627" lon="3.56466">
        <ele>897</ele>
        <time>2016-04-27T12:42:42Z</time>
      </trkpt>
      <trkpt lat="44.45628" lon="3.56459">
        <ele>898</ele>
        <time>2016-04-27T12:42:47Z</time>
      </trkpt>
      <trkpt lat="44.4563" lon="3.56433">
        <ele>894</ele>
        <time>2016-04-27T12:43:10Z</time>
      </trkpt>
      <trkpt lat="44.45627" lon="3.5642">
        <ele>893</ele>
        <time>2016-04-27T12:43:20Z</time>
      </trkpt>
      <trkpt lat="44.45627" lon="3.56414">
        <ele>893</ele>
        <time>2016-04-27T12:43:25Z</time>
      </trkpt>
      <trkpt lat="44.4563" lon="3.56408">
        <ele>892</ele>
        <time>2016-04-27T12:43:33Z</time>
      </trkpt>
      <trkpt lat="44.4563" lon="3.56401">
        <ele>891</ele>
        <time>2016-04-27T12:43:43Z</time>
      </trkpt>
      <trkpt lat="44.45627" lon="3.56394">
        <ele>890</ele>
        <time>2016-04-27T12:43:48Z</time>
      </trkpt>
      <trkpt lat="44.45625" lon="3.56388">
        <ele>889</ele>
        <time>2016-04-27T12:43:54Z</time>
      </trkpt>
      <trkpt lat="44.4562" lon="3.56385">
        <ele>892</ele>
        <time>2016-04-27T12:43:59Z</time>
      </trkpt>
      <trkpt lat="44.45622" lon="3.56378">
        <ele>893</ele>
        <time>2016-04-27T12:44:04Z</time>
      </trkpt>
      <trkpt lat="44.45623" lon="3.56371">
        <ele>893</ele>
        <time>2016-04-27T12:44:08Z</time>
      </trkpt>
      <trkpt lat="44.45623" lon="3.56358">
        <ele>893</ele>
        <time>2016-04-27T12:44:18Z</time>
      </trkpt>
      <trkpt lat="44.45628" lon="3.56355">
        <ele>893</ele>
        <time>2016-04-27T12:44:24Z</time>
      </trkpt>
      <trkpt lat="44.45636" lon="3.56354">
        <ele>895</ele>
        <time>2016-04-27T12:44:28Z</time>
      </trkpt>
      <trkpt lat="44.45636" lon="3.56341">
        <ele>900</ele>
        <time>2016-04-27T12:44:36Z</time>
      </trkpt>
      <trkpt lat="44.45633" lon="3.56335">
        <ele>900</ele>
        <time>2016-04-27T12:44:39Z</time>
      </trkpt>
      <trkpt lat="44.45629" lon="3.56329">
        <ele>899</ele>
        <time>2016-04-27T12:44:43Z</time>
      </trkpt>
      <trkpt lat="44.45627" lon="3.56324">
        <ele>888</ele>
        <time>2016-04-27T12:45:10Z</time>
      </trkpt>
      <trkpt lat="44.45627" lon="3.56318">
        <ele>889</ele>
        <time>2016-04-27T12:45:27Z</time>
      </trkpt>
      <trkpt lat="44.45624" lon="3.56311">
        <ele>886</ele>
        <time>2016-04-27T12:45:30Z</time>
      </trkpt>
      <trkpt lat="44.45618" lon="3.56284">
        <ele>882</ele>
        <time>2016-04-27T12:45:42Z</time>
      </trkpt>
      <trkpt lat="44.45614" lon="3.56284">
        <ele>881</ele>
        <time>2016-04-27T12:45:47Z</time>
      </trkpt>
      <trkpt lat="44.45612" lon="3.56277">
        <ele>880</ele>
        <time>2016-04-27T12:45:51Z</time>
      </trkpt>
      <trkpt lat="44.45608" lon="3.56273">
        <ele>878</ele>
        <time>2016-04-27T12:45:55Z</time>
      </trkpt>
      <trkpt lat="44.45594" lon="3.56271">
        <ele>874</ele>
        <time>2016-04-27T12:46:09Z</time>
      </trkpt>
      <trkpt lat="44.45585" lon="3.56273">
        <ele>880</ele>
        <time>2016-04-27T12:46:22Z</time>
      </trkpt>
      <trkpt lat="44.45582" lon="3.56275">
        <ele>882</ele>
        <time>2016-04-27T12:46:30Z</time>
      </trkpt>
      <trkpt lat="44.45576" lon="3.56283">
        <ele>886</ele>
        <time>2016-04-27T12:47:06Z</time>
      </trkpt>
      <trkpt lat="44.45576" lon="3.56292">
        <ele>888</ele>
        <time>2016-04-27T12:47:16Z</time>
      </trkpt>
      <trkpt lat="44.45573" lon="3.56296">
        <ele>888</ele>
        <time>2016-04-27T12:47:20Z</time>
      </trkpt>
      <trkpt lat="44.45568" lon="3.563">
        <ele>888</ele>
        <time>2016-04-27T12:47:27Z</time>
      </trkpt>
      <trkpt lat="44.45567" lon="3.56306">
        <ele>889</ele>
        <time>2016-04-27T12:47:33Z</time>
      </trkpt>
      <trkpt lat="44.45565" lon="3.56312">
        <ele>886</ele>
        <time>2016-04-27T12:47:41Z</time>
      </trkpt>
      <trkpt lat="44.45561" lon="3.56317">
        <ele>884</ele>
        <time>2016-04-27T12:47:49Z</time>
      </trkpt>
      <trkpt lat="44.4556" lon="3.56323">
        <ele>886</ele>
        <time>2016-04-27T12:47:54Z</time>
      </trkpt>
      <trkpt lat="44.45562" lon="3.5633">
        <ele>888</ele>
        <time>2016-04-27T12:48:00Z</time>
      </trkpt>
      <trkpt lat="44.45557" lon="3.56329">
        <ele>890</ele>
        <time>2016-04-27T12:48:05Z</time>
      </trkpt>
      <trkpt lat="44.45549" lon="3.5632">
        <ele>893</ele>
        <time>2016-04-27T12:48:14Z</time>
      </trkpt>
      <trkpt lat="44.45545" lon="3.56316">
        <ele>892</ele>
        <time>2016-04-27T12:48:21Z</time>
      </trkpt>
      <trkpt lat="44.45542" lon="3.56311">
        <ele>890</ele>
        <time>2016-04-27T12:48:29Z</time>
      </trkpt>
      <trkpt lat="44.45536" lon="3.56311">
        <ele>890</ele>
        <time>2016-04-27T12:48:43Z</time>
      </trkpt>
      <trkpt lat="44.45527" lon="3.56313">
        <ele>889</ele>
        <time>2016-04-27T12:48:57Z</time>
      </trkpt>
      <trkpt lat="44.45522" lon="3.56315">
        <ele>887</ele>
        <time>2016-04-27T12:49:02Z</time>
      </trkpt>
      <trkpt lat="44.45514" lon="3.56322">
        <ele>885</ele>
        <time>2016-04-27T12:49:14Z</time>
      </trkpt>
      <trkpt lat="44.45509" lon="3.56324">
        <ele>886</ele>
        <time>2016-04-27T12:49:20Z</time>
      </trkpt>
      <trkpt lat="44.45487" lon="3.56337">
        <ele>892</ele>
        <time>2016-04-27T12:49:55Z</time>
      </trkpt>
      <trkpt lat="44.45469" lon="3.56345">
        <ele>902</ele>
        <time>2016-04-27T12:50:29Z</time>
      </trkpt>
      <trkpt lat="44.45464" lon="3.56347">
        <ele>903</ele>
        <time>2016-04-27T12:50:35Z</time>
      </trkpt>
      <trkpt lat="44.45454" lon="3.56351">
        <ele>900</ele>
        <time>2016-04-27T12:50:48Z</time>
      </trkpt>
      <trkpt lat="44.4545" lon="3.56354">
        <ele>901</ele>
        <time>2016-04-27T12:50:55Z</time>
      </trkpt>
      <trkpt lat="44.45447" lon="3.56358">
        <ele>901</ele>
        <time>2016-04-27T12:51:02Z</time>
      </trkpt>
      <trkpt lat="44.45439" lon="3.56368">
        <ele>901</ele>
        <time>2016-04-27T12:51:14Z</time>
      </trkpt>
      <trkpt lat="44.45429" lon="3.56382">
        <ele>900</ele>
        <time>2016-04-27T12:51:35Z</time>
      </trkpt>
      <trkpt lat="44.45425" lon="3.56387">
        <ele>901</ele>
        <time>2016-04-27T12:51:41Z</time>
      </trkpt>
      <trkpt lat="44.45423" lon="3.56393">
        <ele>902</ele>
        <time>2016-04-27T12:51:48Z</time>
      </trkpt>
      <trkpt lat="44.4542" lon="3.56399">
        <ele>902</ele>
        <time>2016-04-27T12:51:56Z</time>
      </trkpt>
      <trkpt lat="44.45413" lon="3.56408">
        <ele>903</ele>
        <time>2016-04-27T12:52:08Z</time>
      </trkpt>
      <trkpt lat="44.45411" lon="3.56414">
        <ele>903</ele>
        <time>2016-04-27T12:52:15Z</time>
      </trkpt>
      <trkpt lat="44.45409" lon="3.5642">
        <ele>905</ele>
        <time>2016-04-27T12:52:23Z</time>
      </trkpt>
      <trkpt lat="44.45403" lon="3.56431">
        <ele>905</ele>
        <time>2016-04-27T12:52:36Z</time>
      </trkpt>
      <trkpt lat="44.45397" lon="3.56442">
        <ele>906</ele>
        <time>2016-04-27T12:52:50Z</time>
      </trkpt>
      <trkpt lat="44.45391" lon="3.56451">
        <ele>906</ele>
        <time>2016-04-27T12:53:02Z</time>
      </trkpt>
      <trkpt lat="44.45387" lon="3.56463">
        <ele>910</ele>
        <time>2016-04-27T12:53:17Z</time>
      </trkpt>
      <trkpt lat="44.45385" lon="3.56469">
        <ele>910</ele>
        <time>2016-04-27T12:53:25Z</time>
      </trkpt>
      <trkpt lat="44.45378" lon="3.56494">
        <ele>916</ele>
        <time>2016-04-27T12:53:56Z</time>
      </trkpt>
      <trkpt lat="44.45375" lon="3.565">
        <ele>917</ele>
        <time>2016-04-27T12:54:03Z</time>
      </trkpt>
      <trkpt lat="44.45372" lon="3.56506">
        <ele>916</ele>
        <time>2016-04-27T12:54:09Z</time>
      </trkpt>
      <trkpt lat="44.4537" lon="3.56512">
        <ele>916</ele>
        <time>2016-04-27T12:54:16Z</time>
      </trkpt>
      <trkpt lat="44.45367" lon="3.56517">
        <ele>916</ele>
        <time>2016-04-27T12:54:23Z</time>
      </trkpt>
      <trkpt lat="44.45366" lon="3.56523">
        <ele>916</ele>
        <time>2016-04-27T12:54:31Z</time>
      </trkpt>
      <trkpt lat="44.4535" lon="3.56548">
        <ele>925</ele>
        <time>2016-04-27T12:55:05Z</time>
      </trkpt>
      <trkpt lat="44.45341" lon="3.56555">
        <ele>925</ele>
        <time>2016-04-27T12:55:14Z</time>
      </trkpt>
      <trkpt lat="44.45336" lon="3.56558">
        <ele>925</ele>
        <time>2016-04-27T12:55:19Z</time>
      </trkpt>
      <trkpt lat="44.45332" lon="3.56562">
        <ele>926</ele>
        <time>2016-04-27T12:55:26Z</time>
      </trkpt>
      <trkpt lat="44.45327" lon="3.56565">
        <ele>926</ele>
        <time>2016-04-27T12:55:35Z</time>
      </trkpt>
      <trkpt lat="44.45318" lon="3.56571">
        <ele>927</ele>
        <time>2016-04-27T12:55:48Z</time>
      </trkpt>
      <trkpt lat="44.45316" lon="3.56577">
        <ele>928</ele>
        <time>2016-04-27T12:55:55Z</time>
      </trkpt>
      <trkpt lat="44.45311" lon="3.56581">
        <ele>928</ele>
        <time>2016-04-27T12:56:03Z</time>
      </trkpt>
      <trkpt lat="44.45298" lon="3.5659">
        <ele>931</ele>
        <time>2016-04-27T12:56:19Z</time>
      </trkpt>
      <trkpt lat="44.45294" lon="3.56594">
        <ele>931</ele>
        <time>2016-04-27T12:56:26Z</time>
      </trkpt>
      <trkpt lat="44.45286" lon="3.56602">
        <ele>930</ele>
        <time>2016-04-27T12:56:35Z</time>
      </trkpt>
      <trkpt lat="44.45282" lon="3.56605">
        <ele>930</ele>
        <time>2016-04-27T12:56:40Z</time>
      </trkpt>
      <trkpt lat="44.45278" lon="3.56608">
        <ele>931</ele>
        <time>2016-04-27T12:56:46Z</time>
      </trkpt>
      <trkpt lat="44.45275" lon="3.56614">
        <ele>931</ele>
        <time>2016-04-27T12:56:53Z</time>
      </trkpt>
      <trkpt lat="44.45272" lon="3.5662">
        <ele>931</ele>
        <time>2016-04-27T12:57:00Z</time>
      </trkpt>
      <trkpt lat="44.45266" lon="3.56629">
        <ele>933</ele>
        <time>2016-04-27T12:57:11Z</time>
      </trkpt>
      <trkpt lat="44.45258" lon="3.56636">
        <ele>932</ele>
        <time>2016-04-27T12:57:27Z</time>
      </trkpt>
      <trkpt lat="44.45254" lon="3.56642">
        <ele>932</ele>
        <time>2016-04-27T12:57:33Z</time>
      </trkpt>
      <trkpt lat="44.45252" lon="3.56648">
        <ele>932</ele>
        <time>2016-04-27T12:57:39Z</time>
      </trkpt>
      <trkpt lat="44.45244" lon="3.56665">
        <ele>937</ele>
        <time>2016-04-27T12:57:57Z</time>
      </trkpt>
      <trkpt lat="44.45238" lon="3.56675">
        <ele>938</ele>
        <time>2016-04-27T12:58:08Z</time>
      </trkpt>
      <trkpt lat="44.45234" lon="3.56688">
        <ele>937</ele>
        <time>2016-04-27T12:58:21Z</time>
      </trkpt>
      <trkpt lat="44.45233" lon="3.56707">
        <ele>941</ele>
        <time>2016-04-27T12:58:39Z</time>
      </trkpt>
      <trkpt lat="44.45233" lon="3.56714">
        <ele>941</ele>
        <time>2016-04-27T12:58:46Z</time>
      </trkpt>
      <trkpt lat="44.45232" lon="3.5672">
        <ele>941</ele>
        <time>2016-04-27T12:58:53Z</time>
      </trkpt>
      <trkpt lat="44.45233" lon="3.56727">
        <ele>941</ele>
        <time>2016-04-27T12:59:00Z</time>
      </trkpt>
      <trkpt lat="44.45232" lon="3.56733">
        <ele>941</ele>
        <time>2016-04-27T12:59:08Z</time>
      </trkpt>
      <trkpt lat="44.45227" lon="3.56736">
        <ele>941</ele>
        <time>2016-04-27T12:59:15Z</time>
      </trkpt>
      <trkpt lat="44.45217" lon="3.56737">
        <ele>945</ele>
        <time>2016-04-27T12:59:27Z</time>
      </trkpt>
      <trkpt lat="44.45213" lon="3.56737">
        <ele>945</ele>
        <time>2016-04-27T12:59:32Z</time>
      </trkpt>
      <trkpt lat="44.45201" lon="3.56725">
        <ele>948</ele>
        <time>2016-04-27T12:59:53Z</time>
      </trkpt>
      <trkpt lat="44.45197" lon="3.56724">
        <ele>948</ele>
        <time>2016-04-27T12:59:59Z</time>
      </trkpt>
      <trkpt lat="44.45192" lon="3.5672">
        <ele>948</ele>
        <time>2016-04-27T13:00:05Z</time>
      </trkpt>
      <trkpt lat="44.45175" lon="3.56707">
        <ele>953</ele>
        <time>2016-04-27T13:00:29Z</time>
      </trkpt>
      <trkpt lat="44.45171" lon="3.56703">
        <ele>952</ele>
        <time>2016-04-27T13:00:34Z</time>
      </trkpt>
      <trkpt lat="44.4517" lon="3.56696">
        <ele>954</ele>
        <time>2016-04-27T13:00:42Z</time>
      </trkpt>
      <trkpt lat="44.45158" lon="3.56684">
        <ele>956</ele>
        <time>2016-04-27T13:01:00Z</time>
      </trkpt>
      <trkpt lat="44.45153" lon="3.56682">
        <ele>956</ele>
        <time>2016-04-27T13:01:06Z</time>
      </trkpt>
      <trkpt lat="44.45145" lon="3.56674">
        <ele>958</ele>
        <time>2016-04-27T13:01:20Z</time>
      </trkpt>
      <trkpt lat="44.4514" lon="3.56675">
        <ele>958</ele>
        <time>2016-04-27T13:01:28Z</time>
      </trkpt>
      <trkpt lat="44.45133" lon="3.56682">
        <ele>962</ele>
        <time>2016-04-27T13:01:44Z</time>
      </trkpt>
      <trkpt lat="44.4512" lon="3.56688">
        <ele>961</ele>
        <time>2016-04-27T13:02:03Z</time>
      </trkpt>
      <trkpt lat="44.45111" lon="3.56695">
        <ele>963</ele>
        <time>2016-04-27T13:02:19Z</time>
      </trkpt>
      <trkpt lat="44.45107" lon="3.56697">
        <ele>963</ele>
        <time>2016-04-27T13:02:25Z</time>
      </trkpt>
      <trkpt lat="44.45095" lon="3.56709">
        <ele>967</ele>
        <time>2016-04-27T13:02:47Z</time>
      </trkpt>
      <trkpt lat="44.45091" lon="3.56713">
        <ele>966</ele>
        <time>2016-04-27T13:02:54Z</time>
      </trkpt>
      <trkpt lat="44.45087" lon="3.56717">
        <ele>967</ele>
        <time>2016-04-27T13:03:00Z</time>
      </trkpt>
      <trkpt lat="44.45083" lon="3.56721">
        <ele>967</ele>
        <time>2016-04-27T13:03:06Z</time>
      </trkpt>
      <trkpt lat="44.45065" lon="3.56731">
        <ele>972</ele>
        <time>2016-04-27T13:03:34Z</time>
      </trkpt>
      <trkpt lat="44.45056" lon="3.5673">
        <ele>974</ele>
        <time>2016-04-27T13:03:49Z</time>
      </trkpt>
      <trkpt lat="44.45051" lon="3.56732">
        <ele>975</ele>
        <time>2016-04-27T13:03:56Z</time>
      </trkpt>
      <trkpt lat="44.45046" lon="3.5673">
        <ele>975</ele>
        <time>2016-04-27T13:04:03Z</time>
      </trkpt>
      <trkpt lat="44.4503" lon="3.56733">
        <ele>984</ele>
        <time>2016-04-27T13:04:34Z</time>
      </trkpt>
      <trkpt lat="44.45028" lon="3.56732">
        <ele>985</ele>
        <time>2016-04-27T13:04:40Z</time>
      </trkpt>
      <trkpt lat="44.45023" lon="3.56729">
        <ele>990</ele>
        <time>2016-04-27T13:04:50Z</time>
      </trkpt>
      <trkpt lat="44.45019" lon="3.5673">
        <ele>990</ele>
        <time>2016-04-27T13:04:55Z</time>
      </trkpt>
      <trkpt lat="44.45004" lon="3.56732">
        <ele>989</ele>
        <time>2016-04-27T13:05:12Z</time>
      </trkpt>
      <trkpt lat="44.44999" lon="3.56731">
        <ele>988</ele>
        <time>2016-04-27T13:05:22Z</time>
      </trkpt>
      <trkpt lat="44.4499" lon="3.56729">
        <ele>989</ele>
        <time>2016-04-27T13:05:34Z</time>
      </trkpt>
      <trkpt lat="44.44985" lon="3.56728">
        <ele>989</ele>
        <time>2016-04-27T13:05:40Z</time>
      </trkpt>
      <trkpt lat="44.4498" lon="3.56728">
        <ele>989</ele>
        <time>2016-04-27T13:05:47Z</time>
      </trkpt>
      <trkpt lat="44.44962" lon="3.56724">
        <ele>994</ele>
        <time>2016-04-27T13:06:17Z</time>
      </trkpt>
      <trkpt lat="44.44957" lon="3.56723">
        <ele>995</ele>
        <time>2016-04-27T13:06:24Z</time>
      </trkpt>
      <trkpt lat="44.44952" lon="3.56722">
        <ele>995</ele>
        <time>2016-04-27T13:06:30Z</time>
      </trkpt>
      <trkpt lat="44.44942" lon="3.56724">
        <ele>996</ele>
        <time>2016-04-27T13:06:43Z</time>
      </trkpt>
      <trkpt lat="44.44933" lon="3.56725">
        <ele>995</ele>
        <time>2016-04-27T13:06:55Z</time>
      </trkpt>
      <trkpt lat="44.44913" lon="3.56726">
        <ele>1001</ele>
        <time>2016-04-27T13:07:26Z</time>
      </trkpt>
      <trkpt lat="44.44904" lon="3.56732">
        <ele>1002</ele>
        <time>2016-04-27T13:07:39Z</time>
      </trkpt>
      <trkpt lat="44.44894" lon="3.56735">
        <ele>1000</ele>
        <time>2016-04-27T13:07:50Z</time>
      </trkpt>
      <trkpt lat="44.4489" lon="3.56737">
        <ele>1000</ele>
        <time>2016-04-27T13:07:56Z</time>
      </trkpt>
      <trkpt lat="44.44867" lon="3.56749">
        <ele>1006</ele>
        <time>2016-04-27T13:08:30Z</time>
      </trkpt>
      <trkpt lat="44.44863" lon="3.56751">
        <ele>1005</ele>
        <time>2016-04-27T13:08:47Z</time>
      </trkpt>
      <trkpt lat="44.44858" lon="3.56753">
        <ele>1005</ele>
        <time>2016-04-27T13:08:54Z</time>
      </trkpt>
      <trkpt lat="44.44848" lon="3.56761">
        <ele>1004</ele>
        <time>2016-04-27T13:09:05Z</time>
      </trkpt>
      <trkpt lat="44.44844" lon="3.56763">
        <ele>1004</ele>
        <time>2016-04-27T13:09:11Z</time>
      </trkpt>
      <trkpt lat="44.44832" lon="3.56774">
        <ele>1012</ele>
        <time>2016-04-27T13:09:42Z</time>
      </trkpt>
      <trkpt lat="44.44818" lon="3.56801">
        <ele>1021</ele>
        <time>2016-04-27T13:10:14Z</time>
      </trkpt>
      <trkpt lat="44.44816" lon="3.56807">
        <ele>1021</ele>
        <time>2016-04-27T13:10:20Z</time>
      </trkpt>
      <trkpt lat="44.44813" lon="3.56812">
        <ele>1021</ele>
        <time>2016-04-27T13:10:25Z</time>
      </trkpt>
      <trkpt lat="44.44807" lon="3.56822">
        <ele>1020</ele>
        <time>2016-04-27T13:10:36Z</time>
      </trkpt>
      <trkpt lat="44.44803" lon="3.56826">
        <ele>1022</ele>
        <time>2016-04-27T13:10:43Z</time>
      </trkpt>
      <trkpt lat="44.448" lon="3.56832">
        <ele>1022</ele>
        <time>2016-04-27T13:10:48Z</time>
      </trkpt>
      <trkpt lat="44.44797" lon="3.56845">
        <ele>1019</ele>
        <time>2016-04-27T13:10:58Z</time>
      </trkpt>
      <trkpt lat="44.44796" lon="3.56852">
        <ele>1019</ele>
        <time>2016-04-27T13:11:04Z</time>
      </trkpt>
      <trkpt lat="44.44793" lon="3.56858">
        <ele>1019</ele>
        <time>2016-04-27T13:11:11Z</time>
      </trkpt>
      <trkpt lat="44.44791" lon="3.56865">
        <ele>1020</ele>
        <time>2016-04-27T13:11:18Z</time>
      </trkpt>
      <trkpt lat="44.44787" lon="3.56869">
        <ele>1022</ele>
        <time>2016-04-27T13:11:24Z</time>
      </trkpt>
      <trkpt lat="44.44786" lon="3.56875">
        <ele>1022</ele>
        <time>2016-04-27T13:11:29Z</time>
      </trkpt>
      <trkpt lat="44.44785" lon="3.56882">
        <ele>1022</ele>
        <time>2016-04-27T13:11:35Z</time>
      </trkpt>
      <trkpt lat="44.44774" lon="3.56894">
        <ele>1029</ele>
        <time>2016-04-27T13:12:10Z</time>
      </trkpt>
      <trkpt lat="44.44772" lon="3.569">
        <ele>1031</ele>
        <time>2016-04-27T13:12:19Z</time>
      </trkpt>
      <trkpt lat="44.44772" lon="3.56907">
        <ele>1031</ele>
        <time>2016-04-27T13:12:25Z</time>
      </trkpt>
      <trkpt lat="44.44763" lon="3.56922">
        <ele>1033</ele>
        <time>2016-04-27T13:12:47Z</time>
      </trkpt>
      <trkpt lat="44.4476" lon="3.56929">
        <ele>1033</ele>
        <time>2016-04-27T13:12:53Z</time>
      </trkpt>
      <trkpt lat="44.44756" lon="3.56932">
        <ele>1033</ele>
        <time>2016-04-27T13:12:59Z</time>
      </trkpt>
      <trkpt lat="44.44751" lon="3.56933">
        <ele>1033</ele>
        <time>2016-04-27T13:13:04Z</time>
      </trkpt>
      <trkpt lat="44.44746" lon="3.56934">
        <ele>1033</ele>
        <time>2016-04-27T13:13:10Z</time>
      </trkpt>
      <trkpt lat="44.44741" lon="3.56933">
        <ele>1034</ele>
        <time>2016-04-27T13:13:16Z</time>
      </trkpt>
      <trkpt lat="44.44727" lon="3.56938">
        <ele>1035</ele>
        <time>2016-04-27T13:13:37Z</time>
      </trkpt>
      <trkpt lat="44.44723" lon="3.5694">
        <ele>1037</ele>
        <time>2016-04-27T13:13:45Z</time>
      </trkpt>
      <trkpt lat="44.44709" lon="3.56954">
        <ele>1042</ele>
        <time>2016-04-27T13:14:18Z</time>
      </trkpt>
      <trkpt lat="44.44696" lon="3.56962">
        <ele>1051</ele>
        <time>2016-04-27T13:14:42Z</time>
      </trkpt>
      <trkpt lat="44.44693" lon="3.56967">
        <ele>1051</ele>
        <time>2016-04-27T13:14:49Z</time>
      </trkpt>
      <trkpt lat="44.44688" lon="3.56978">
        <ele>1051</ele>
        <time>2016-04-27T13:15:01Z</time>
      </trkpt>
      <trkpt lat="44.44685" lon="3.56984">
        <ele>1051</ele>
        <time>2016-04-27T13:15:09Z</time>
      </trkpt>
      <trkpt lat="44.44682" lon="3.56996">
        <ele>1047</ele>
        <time>2016-04-27T13:15:19Z</time>
      </trkpt>
      <trkpt lat="44.44664" lon="3.57019">
        <ele>1054</ele>
        <time>2016-04-27T13:15:55Z</time>
      </trkpt>
      <trkpt lat="44.44647" lon="3.57037">
        <ele>1062</ele>
        <time>2016-04-27T13:16:27Z</time>
      </trkpt>
      <trkpt lat="44.44643" lon="3.57042">
        <ele>1061</ele>
        <time>2016-04-27T13:16:32Z</time>
      </trkpt>
      <trkpt lat="44.44639" lon="3.57055">
        <ele>1058</ele>
        <time>2016-04-27T13:16:48Z</time>
      </trkpt>
      <trkpt lat="44.44638" lon="3.57062">
        <ele>1058</ele>
        <time>2016-04-27T13:16:55Z</time>
      </trkpt>
      <trkpt lat="44.4464" lon="3.57068">
        <ele>1060</ele>
        <time>2016-04-27T13:17:02Z</time>
      </trkpt>
      <trkpt lat="44.44643" lon="3.57073">
        <ele>1061</ele>
        <time>2016-04-27T13:17:09Z</time>
      </trkpt>
      <trkpt lat="44.44648" lon="3.57085">
        <ele>1062</ele>
        <time>2016-04-27T13:17:27Z</time>
      </trkpt>
      <trkpt lat="44.44658" lon="3.57107">
        <ele>1070</ele>
        <time>2016-04-27T13:17:57Z</time>
      </trkpt>
      <trkpt lat="44.44657" lon="3.57106">
        <ele>1068</ele>
        <time>2016-04-27T13:27:09Z</time>
      </trkpt>
      <trkpt lat="44.44661" lon="3.57106">
        <ele>1068</ele>
        <time>2016-04-27T13:29:56Z</time>
      </trkpt>
      <trkpt lat="44.44668" lon="3.57116">
        <ele>1070</ele>
        <time>2016-04-27T13:30:09Z</time>
      </trkpt>
      <trkpt lat="44.44672" lon="3.5712">
        <ele>1070</ele>
        <time>2016-04-27T13:30:17Z</time>
      </trkpt>
      <trkpt lat="44.4468" lon="3.57137">
        <ele>1072</ele>
        <time>2016-04-27T13:30:35Z</time>
      </trkpt>
      <trkpt lat="44.44682" lon="3.5715">
        <ele>1076</ele>
        <time>2016-04-27T13:30:57Z</time>
      </trkpt>
      <trkpt lat="44.44681" lon="3.57156">
        <ele>1080</ele>
        <time>2016-04-27T13:31:09Z</time>
      </trkpt>
      <trkpt lat="44.44682" lon="3.57162">
        <ele>1084</ele>
        <time>2016-04-27T13:31:21Z</time>
      </trkpt>
      <trkpt lat="44.44685" lon="3.57169">
        <ele>1090</ele>
        <time>2016-04-27T13:31:34Z</time>
      </trkpt>
      <trkpt lat="44.44688" lon="3.57174">
        <ele>1090</ele>
        <time>2016-04-27T13:31:42Z</time>
      </trkpt>
      <trkpt lat="44.44689" lon="3.5718">
        <ele>1091</ele>
        <time>2016-04-27T13:31:48Z</time>
      </trkpt>
      <trkpt lat="44.44691" lon="3.57187">
        <ele>1091</ele>
        <time>2016-04-27T13:31:53Z</time>
      </trkpt>
      <trkpt lat="44.44694" lon="3.57193">
        <ele>1090</ele>
        <time>2016-04-27T13:32:00Z</time>
      </trkpt>
      <trkpt lat="44.4469" lon="3.57201">
        <ele>1094</ele>
        <time>2016-04-27T13:32:13Z</time>
      </trkpt>
      <trkpt lat="44.44692" lon="3.57208">
        <ele>1098</ele>
        <time>2016-04-27T13:32:21Z</time>
      </trkpt>
      <trkpt lat="44.44692" lon="3.57212">
        <ele>1099</ele>
        <time>2016-04-27T13:32:29Z</time>
      </trkpt>
      <trkpt lat="44.44696" lon="3.57216">
        <ele>1099</ele>
        <time>2016-04-27T13:32:33Z</time>
      </trkpt>
      <trkpt lat="44.44701" lon="3.57233">
        <ele>1097</ele>
        <time>2016-04-27T13:32:58Z</time>
      </trkpt>
      <trkpt lat="44.44705" lon="3.57238">
        <ele>1093</ele>
        <time>2016-04-27T13:33:04Z</time>
      </trkpt>
      <trkpt lat="44.44706" lon="3.57244">
        <ele>1092</ele>
        <time>2016-04-27T13:33:12Z</time>
      </trkpt>
      <trkpt lat="44.44706" lon="3.5725">
        <ele>1090</ele>
        <time>2016-04-27T13:33:21Z</time>
      </trkpt>
      <trkpt lat="44.44706" lon="3.57256">
        <ele>1090</ele>
        <time>2016-04-27T13:33:28Z</time>
      </trkpt>
      <trkpt lat="44.44706" lon="3.57263">
        <ele>1089</ele>
        <time>2016-04-27T13:33:36Z</time>
      </trkpt>
      <trkpt lat="44.44705" lon="3.5727">
        <ele>1089</ele>
        <time>2016-04-27T13:33:43Z</time>
      </trkpt>
      <trkpt lat="44.44703" lon="3.57293">
        <ele>1092</ele>
        <time>2016-04-27T13:34:11Z</time>
      </trkpt>
      <trkpt lat="44.44702" lon="3.57299">
        <ele>1092</ele>
        <time>2016-04-27T13:34:18Z</time>
      </trkpt>
      <trkpt lat="44.44702" lon="3.57306">
        <ele>1092</ele>
        <time>2016-04-27T13:34:27Z</time>
      </trkpt>
      <trkpt lat="44.44698" lon="3.57316">
        <ele>1094</ele>
        <time>2016-04-27T13:34:43Z</time>
      </trkpt>
      <trkpt lat="44.44695" lon="3.57322">
        <ele>1094</ele>
        <time>2016-04-27T13:34:51Z</time>
      </trkpt>
      <trkpt lat="44.44693" lon="3.57328">
        <ele>1094</ele>
        <time>2016-04-27T13:34:57Z</time>
      </trkpt>
      <trkpt lat="44.44693" lon="3.57335">
        <ele>1094</ele>
        <time>2016-04-27T13:35:05Z</time>
      </trkpt>
      <trkpt lat="44.44689" lon="3.57354">
        <ele>1095</ele>
        <time>2016-04-27T13:35:25Z</time>
      </trkpt>
      <trkpt lat="44.44688" lon="3.5736">
        <ele>1096</ele>
        <time>2016-04-27T13:35:32Z</time>
      </trkpt>
      <trkpt lat="44.44687" lon="3.57373">
        <ele>1096</ele>
        <time>2016-04-27T13:35:45Z</time>
      </trkpt>
      <trkpt lat="44.44675" lon="3.57402">
        <ele>1105</ele>
        <time>2016-04-27T13:36:23Z</time>
      </trkpt>
      <trkpt lat="44.44671" lon="3.57415">
        <ele>1106</ele>
        <time>2016-04-27T13:36:40Z</time>
      </trkpt>
      <trkpt lat="44.4467" lon="3.57422">
        <ele>1106</ele>
        <time>2016-04-27T13:36:46Z</time>
      </trkpt>
      <trkpt lat="44.4467" lon="3.57428">
        <ele>1104</ele>
        <time>2016-04-27T13:36:52Z</time>
      </trkpt>
      <trkpt lat="44.44665" lon="3.5744">
        <ele>1101</ele>
        <time>2016-04-27T13:37:04Z</time>
      </trkpt>
      <trkpt lat="44.44659" lon="3.57447">
        <ele>1103</ele>
        <time>2016-04-27T13:37:21Z</time>
      </trkpt>
      <trkpt lat="44.44654" lon="3.57445">
        <ele>1103</ele>
        <time>2016-04-27T13:37:27Z</time>
      </trkpt>
      <trkpt lat="44.4465" lon="3.57445">
        <ele>1104</ele>
        <time>2016-04-27T13:37:39Z</time>
      </trkpt>
      <trkpt lat="44.44628" lon="3.57464">
        <ele>1114</ele>
        <time>2016-04-27T13:38:24Z</time>
      </trkpt>
      <trkpt lat="44.44607" lon="3.57459">
        <ele>1117</ele>
        <time>2016-04-27T13:38:47Z</time>
      </trkpt>
      <trkpt lat="44.44603" lon="3.57455">
        <ele>1117</ele>
        <time>2016-04-27T13:38:54Z</time>
      </trkpt>
      <trkpt lat="44.44596" lon="3.57454">
        <ele>1116</ele>
        <time>2016-04-27T13:39:10Z</time>
      </trkpt>
      <trkpt lat="44.4459" lon="3.57452">
        <ele>1115</ele>
        <time>2016-04-27T13:39:14Z</time>
      </trkpt>
      <trkpt lat="44.44581" lon="3.57457">
        <ele>1111</ele>
        <time>2016-04-27T13:39:25Z</time>
      </trkpt>
      <trkpt lat="44.44577" lon="3.57458">
        <ele>1111</ele>
        <time>2016-04-27T13:39:32Z</time>
      </trkpt>
      <trkpt lat="44.44562" lon="3.57472">
        <ele>1117</ele>
        <time>2016-04-27T13:40:00Z</time>
      </trkpt>
      <trkpt lat="44.44558" lon="3.57471">
        <ele>1117</ele>
        <time>2016-04-27T13:40:07Z</time>
      </trkpt>
      <trkpt lat="44.44553" lon="3.57477">
        <ele>1119</ele>
        <time>2016-04-27T13:40:18Z</time>
      </trkpt>
      <trkpt lat="44.44548" lon="3.57479">
        <ele>1121</ele>
        <time>2016-04-27T13:40:23Z</time>
      </trkpt>
      <trkpt lat="44.44546" lon="3.57485">
        <ele>1123</ele>
        <time>2016-04-27T13:40:30Z</time>
      </trkpt>
      <trkpt lat="44.44542" lon="3.57489">
        <ele>1124</ele>
        <time>2016-04-27T13:40:35Z</time>
      </trkpt>
      <trkpt lat="44.44536" lon="3.57498">
        <ele>1124</ele>
        <time>2016-04-27T13:40:49Z</time>
      </trkpt>
      <trkpt lat="44.44531" lon="3.57502">
        <ele>1119</ele>
        <time>2016-04-27T13:41:02Z</time>
      </trkpt>
      <trkpt lat="44.44528" lon="3.57508">
        <ele>1118</ele>
        <time>2016-04-27T13:41:06Z</time>
      </trkpt>
      <trkpt lat="44.4452" lon="3.57514">
        <ele>1120</ele>
        <time>2016-04-27T13:41:20Z</time>
      </trkpt>
      <trkpt lat="44.44511" lon="3.57514">
        <ele>1126</ele>
        <time>2016-04-27T13:41:44Z</time>
      </trkpt>
      <trkpt lat="44.44507" lon="3.57513">
        <ele>1127</ele>
        <time>2016-04-27T13:41:52Z</time>
      </trkpt>
      <trkpt lat="44.44504" lon="3.57507">
        <ele>1128</ele>
        <time>2016-04-27T13:41:58Z</time>
      </trkpt>
      <trkpt lat="44.44499" lon="3.57508">
        <ele>1126</ele>
        <time>2016-04-27T13:42:03Z</time>
      </trkpt>
      <trkpt lat="44.44493" lon="3.57508">
        <ele>1126</ele>
        <time>2016-04-27T13:42:08Z</time>
      </trkpt>
      <trkpt lat="44.44475" lon="3.5752">
        <ele>1134</ele>
        <time>2016-04-27T13:42:33Z</time>
      </trkpt>
      <trkpt lat="44.44474" lon="3.57526">
        <ele>1134</ele>
        <time>2016-04-27T13:42:40Z</time>
      </trkpt>
      <trkpt lat="44.44472" lon="3.57533">
        <ele>1133</ele>
        <time>2016-04-27T13:42:49Z</time>
      </trkpt>
      <trkpt lat="44.44468" lon="3.57537">
        <ele>1134</ele>
        <time>2016-04-27T13:42:55Z</time>
      </trkpt>
      <trkpt lat="44.44457" lon="3.57551">
        <ele>1132</ele>
        <time>2016-04-27T13:43:08Z</time>
      </trkpt>
      <trkpt lat="44.44453" lon="3.57552">
        <ele>1132</ele>
        <time>2016-04-27T13:43:15Z</time>
      </trkpt>
      <trkpt lat="44.44451" lon="3.57558">
        <ele>1132</ele>
        <time>2016-04-27T13:43:22Z</time>
      </trkpt>
      <trkpt lat="44.44443" lon="3.57562">
        <ele>1136</ele>
        <time>2016-04-27T13:43:38Z</time>
      </trkpt>
      <trkpt lat="44.44435" lon="3.57574">
        <ele>1140</ele>
        <time>2016-04-27T13:44:03Z</time>
      </trkpt>
      <trkpt lat="44.44429" lon="3.57584">
        <ele>1141</ele>
        <time>2016-04-27T13:44:15Z</time>
      </trkpt>
      <trkpt lat="44.44422" lon="3.57594">
        <ele>1144</ele>
        <time>2016-04-27T13:44:29Z</time>
      </trkpt>
      <trkpt lat="44.44422" lon="3.57601">
        <ele>1145</ele>
        <time>2016-04-27T13:44:36Z</time>
      </trkpt>
      <trkpt lat="44.44417" lon="3.576">
        <ele>1145</ele>
        <time>2016-04-27T13:44:42Z</time>
      </trkpt>
      <trkpt lat="44.44413" lon="3.57605">
        <ele>1145</ele>
        <time>2016-04-27T13:44:51Z</time>
      </trkpt>
      <trkpt lat="44.44411" lon="3.57607">
        <ele>1145</ele>
        <time>2016-04-27T13:45:09Z</time>
      </trkpt>
      <trkpt lat="44.44406" lon="3.57608">
        <ele>1144</ele>
        <time>2016-04-27T13:45:15Z</time>
      </trkpt>
      <trkpt lat="44.444" lon="3.57607">
        <ele>1145</ele>
        <time>2016-04-27T13:45:20Z</time>
      </trkpt>
      <trkpt lat="44.44396" lon="3.57607">
        <ele>1145</ele>
        <time>2016-04-27T13:45:26Z</time>
      </trkpt>
      <trkpt lat="44.44382" lon="3.57614">
        <ele>1143</ele>
        <time>2016-04-27T13:45:50Z</time>
      </trkpt>
      <trkpt lat="44.44362" lon="3.57616">
        <ele>1153</ele>
        <time>2016-04-27T13:46:24Z</time>
      </trkpt>
      <trkpt lat="44.4435" lon="3.57624">
        <ele>1155</ele>
        <time>2016-04-27T13:46:50Z</time>
      </trkpt>
      <trkpt lat="44.44348" lon="3.5763">
        <ele>1156</ele>
        <time>2016-04-27T13:46:57Z</time>
      </trkpt>
      <trkpt lat="44.44345" lon="3.57633">
        <ele>1159</ele>
        <time>2016-04-27T13:47:04Z</time>
      </trkpt>
      <trkpt lat="44.44347" lon="3.5764">
        <ele>1159</ele>
        <time>2016-04-27T13:47:23Z</time>
      </trkpt>
      <trkpt lat="44.44347" lon="3.57647">
        <ele>1160</ele>
        <time>2016-04-27T13:47:29Z</time>
      </trkpt>
      <trkpt lat="44.44348" lon="3.57653">
        <ele>1160</ele>
        <time>2016-04-27T13:47:36Z</time>
      </trkpt>
      <trkpt lat="44.44355" lon="3.57662">
        <ele>1163</ele>
        <time>2016-04-27T13:48:09Z</time>
      </trkpt>
      <trkpt lat="44.44369" lon="3.5767">
        <ele>1172</ele>
        <time>2016-04-27T13:48:42Z</time>
      </trkpt>
      <trkpt lat="44.44379" lon="3.57674">
        <ele>1174</ele>
        <time>2016-04-27T13:48:56Z</time>
      </trkpt>
      <trkpt lat="44.44383" lon="3.57685">
        <ele>1174</ele>
        <time>2016-04-27T13:49:10Z</time>
      </trkpt>
      <trkpt lat="44.44385" lon="3.57691">
        <ele>1173</ele>
        <time>2016-04-27T13:49:15Z</time>
      </trkpt>
      <trkpt lat="44.44386" lon="3.57698">
        <ele>1173</ele>
        <time>2016-04-27T13:49:21Z</time>
      </trkpt>
      <trkpt lat="44.44388" lon="3.57703">
        <ele>1172</ele>
        <time>2016-04-27T13:49:31Z</time>
      </trkpt>
      <trkpt lat="44.44387" lon="3.57713">
        <ele>1173</ele>
        <time>2016-04-27T13:49:43Z</time>
      </trkpt>
      <trkpt lat="44.4438" lon="3.5773">
        <ele>1175</ele>
        <time>2016-04-27T13:50:03Z</time>
      </trkpt>
      <trkpt lat="44.44374" lon="3.57742">
        <ele>1175</ele>
        <time>2016-04-27T13:50:16Z</time>
      </trkpt>
      <trkpt lat="44.44371" lon="3.57748">
        <ele>1176</ele>
        <time>2016-04-27T13:50:23Z</time>
      </trkpt>
      <trkpt lat="44.4437" lon="3.57754">
        <ele>1177</ele>
        <time>2016-04-27T13:50:30Z</time>
      </trkpt>
      <trkpt lat="44.44367" lon="3.57775">
        <ele>1177</ele>
        <time>2016-04-27T13:50:48Z</time>
      </trkpt>
      <trkpt lat="44.44354" lon="3.57797">
        <ele>1183</ele>
        <time>2016-04-27T13:51:21Z</time>
      </trkpt>
      <trkpt lat="44.44351" lon="3.57803">
        <ele>1186</ele>
        <time>2016-04-27T13:51:29Z</time>
      </trkpt>
      <trkpt lat="44.44349" lon="3.57809">
        <ele>1186</ele>
        <time>2016-04-27T13:51:37Z</time>
      </trkpt>
      <trkpt lat="44.44347" lon="3.57822">
        <ele>1185</ele>
        <time>2016-04-27T13:51:50Z</time>
      </trkpt>
      <trkpt lat="44.44343" lon="3.57827">
        <ele>1184</ele>
        <time>2016-04-27T13:51:56Z</time>
      </trkpt>
      <trkpt lat="44.4434" lon="3.57832">
        <ele>1184</ele>
        <time>2016-04-27T13:52:02Z</time>
      </trkpt>
      <trkpt lat="44.44336" lon="3.5785">
        <ele>1188</ele>
        <time>2016-04-27T13:52:22Z</time>
      </trkpt>
      <trkpt lat="44.44335" lon="3.57857">
        <ele>1188</ele>
        <time>2016-04-27T13:52:31Z</time>
      </trkpt>
      <trkpt lat="44.44335" lon="3.57864">
        <ele>1188</ele>
        <time>2016-04-27T13:52:40Z</time>
      </trkpt>
      <trkpt lat="44.44336" lon="3.57868">
        <ele>1188</ele>
        <time>2016-04-27T13:52:48Z</time>
      </trkpt>
      <trkpt lat="44.44339" lon="3.57882">
        <ele>1188</ele>
        <time>2016-04-27T13:53:23Z</time>
      </trkpt>
      <trkpt lat="44.44339" lon="3.57895">
        <ele>1191</ele>
        <time>2016-04-27T13:53:38Z</time>
      </trkpt>
      <trkpt lat="44.44338" lon="3.57901">
        <ele>1191</ele>
        <time>2016-04-27T13:53:45Z</time>
      </trkpt>
      <trkpt lat="44.44338" lon="3.57908">
        <ele>1191</ele>
        <time>2016-04-27T13:53:52Z</time>
      </trkpt>
      <trkpt lat="44.44336" lon="3.57927">
        <ele>1196</ele>
        <time>2016-04-27T13:54:10Z</time>
      </trkpt>
      <trkpt lat="44.44337" lon="3.57934">
        <ele>1196</ele>
        <time>2016-04-27T13:54:16Z</time>
      </trkpt>
      <trkpt lat="44.44334" lon="3.57953">
        <ele>1199</ele>
        <time>2016-04-27T13:54:36Z</time>
      </trkpt>
      <trkpt lat="44.44333" lon="3.5796">
        <ele>1199</ele>
        <time>2016-04-27T13:54:41Z</time>
      </trkpt>
      <trkpt lat="44.44332" lon="3.57966">
        <ele>1200</ele>
        <time>2016-04-27T13:54:46Z</time>
      </trkpt>
      <trkpt lat="44.44328" lon="3.57971">
        <ele>1201</ele>
        <time>2016-04-27T13:54:51Z</time>
      </trkpt>
      <trkpt lat="44.44326" lon="3.57978">
        <ele>1202</ele>
        <time>2016-04-27T13:54:57Z</time>
      </trkpt>
      <trkpt lat="44.44325" lon="3.57992">
        <ele>1200</ele>
        <time>2016-04-27T13:55:07Z</time>
      </trkpt>
      <trkpt lat="44.44321" lon="3.5799">
        <ele>1199</ele>
        <time>2016-04-27T13:56:03Z</time>
      </trkpt>
      <trkpt lat="44.44318" lon="3.57996">
        <ele>1199</ele>
        <time>2016-04-27T13:56:22Z</time>
      </trkpt>
      <trkpt lat="44.44309" lon="3.58006">
        <ele>1199</ele>
        <time>2016-04-27T13:56:32Z</time>
      </trkpt>
      <trkpt lat="44.44305" lon="3.58011">
        <ele>1198</ele>
        <time>2016-04-27T13:56:37Z</time>
      </trkpt>
      <trkpt lat="44.44301" lon="3.58015">
        <ele>1198</ele>
        <time>2016-04-27T13:56:41Z</time>
      </trkpt>
      <trkpt lat="44.44298" lon="3.5802">
        <ele>1199</ele>
        <time>2016-04-27T13:56:46Z</time>
      </trkpt>
      <trkpt lat="44.44294" lon="3.58024">
        <ele>1199</ele>
        <time>2016-04-27T13:56:51Z</time>
      </trkpt>
      <trkpt lat="44.44289" lon="3.58028">
        <ele>1199</ele>
        <time>2016-04-27T13:56:56Z</time>
      </trkpt>
      <trkpt lat="44.44282" lon="3.58035">
        <ele>1200</ele>
        <time>2016-04-27T13:57:04Z</time>
      </trkpt>
      <trkpt lat="44.44273" lon="3.5805">
        <ele>1199</ele>
        <time>2016-04-27T13:57:17Z</time>
      </trkpt>
      <trkpt lat="44.44266" lon="3.58063">
        <ele>1199</ele>
        <time>2016-04-27T13:57:27Z</time>
      </trkpt>
      <trkpt lat="44.4426" lon="3.58103">
        <ele>1192</ele>
        <time>2016-04-27T13:58:00Z</time>
      </trkpt>
      <trkpt lat="44.44258" lon="3.58117">
        <ele>1190</ele>
        <time>2016-04-27T13:58:10Z</time>
      </trkpt>
      <trkpt lat="44.44257" lon="3.58131">
        <ele>1190</ele>
        <time>2016-04-27T13:58:21Z</time>
      </trkpt>
      <trkpt lat="44.44257" lon="3.58137">
        <ele>1190</ele>
        <time>2016-04-27T13:58:26Z</time>
      </trkpt>
      <trkpt lat="44.44256" lon="3.58144">
        <ele>1190</ele>
        <time>2016-04-27T13:58:30Z</time>
      </trkpt>
      <trkpt lat="44.44256" lon="3.58157">
        <ele>1191</ele>
        <time>2016-04-27T13:58:39Z</time>
      </trkpt>
      <trkpt lat="44.44256" lon="3.58184">
        <ele>1191</ele>
        <time>2016-04-27T13:58:58Z</time>
      </trkpt>
      <trkpt lat="44.44255" lon="3.5819">
        <ele>1190</ele>
        <time>2016-04-27T13:59:02Z</time>
      </trkpt>
      <trkpt lat="44.44249" lon="3.58201">
        <ele>1192</ele>
        <time>2016-04-27T13:59:13Z</time>
      </trkpt>
      <trkpt lat="44.44236" lon="3.58213">
        <ele>1197</ele>
        <time>2016-04-27T13:59:29Z</time>
      </trkpt>
      <trkpt lat="44.44232" lon="3.58215">
        <ele>1198</ele>
        <time>2016-04-27T13:59:34Z</time>
      </trkpt>
      <trkpt lat="44.44228" lon="3.58217">
        <ele>1198</ele>
        <time>2016-04-27T13:59:39Z</time>
      </trkpt>
      <trkpt lat="44.44202" lon="3.5824">
        <ele>1189</ele>
        <time>2016-04-27T14:00:11Z</time>
      </trkpt>
      <trkpt lat="44.44197" lon="3.58244">
        <ele>1188</ele>
        <time>2016-04-27T14:00:17Z</time>
      </trkpt>
      <trkpt lat="44.44193" lon="3.58246">
        <ele>1188</ele>
        <time>2016-04-27T14:00:22Z</time>
      </trkpt>
      <trkpt lat="44.44188" lon="3.5825">
        <ele>1188</ele>
        <time>2016-04-27T14:00:27Z</time>
      </trkpt>
      <trkpt lat="44.44176" lon="3.58264">
        <ele>1191</ele>
        <time>2016-04-27T14:00:43Z</time>
      </trkpt>
      <trkpt lat="44.44168" lon="3.58272">
        <ele>1190</ele>
        <time>2016-04-27T14:00:54Z</time>
      </trkpt>
      <trkpt lat="44.44163" lon="3.58274">
        <ele>1190</ele>
        <time>2016-04-27T14:00:59Z</time>
      </trkpt>
      <trkpt lat="44.44159" lon="3.58278">
        <ele>1191</ele>
        <time>2016-04-27T14:01:04Z</time>
      </trkpt>
      <trkpt lat="44.44154" lon="3.58281">
        <ele>1192</ele>
        <time>2016-04-27T14:01:09Z</time>
      </trkpt>
      <trkpt lat="44.44149" lon="3.58285">
        <ele>1193</ele>
        <time>2016-04-27T14:01:15Z</time>
      </trkpt>
      <trkpt lat="44.44145" lon="3.58289">
        <ele>1193</ele>
        <time>2016-04-27T14:01:21Z</time>
      </trkpt>
      <trkpt lat="44.44127" lon="3.58312">
        <ele>1187</ele>
        <time>2016-04-27T14:01:49Z</time>
      </trkpt>
      <trkpt lat="44.44114" lon="3.58321">
        <ele>1192</ele>
        <time>2016-04-27T14:02:04Z</time>
      </trkpt>
      <trkpt lat="44.44111" lon="3.58326">
        <ele>1193</ele>
        <time>2016-04-27T14:02:09Z</time>
      </trkpt>
      <trkpt lat="44.44105" lon="3.58335">
        <ele>1193</ele>
        <time>2016-04-27T14:02:19Z</time>
      </trkpt>
      <trkpt lat="44.44101" lon="3.58339">
        <ele>1193</ele>
        <time>2016-04-27T14:02:25Z</time>
      </trkpt>
      <trkpt lat="44.44098" lon="3.58345">
        <ele>1193</ele>
        <time>2016-04-27T14:02:30Z</time>
      </trkpt>
      <trkpt lat="44.44091" lon="3.58355">
        <ele>1194</ele>
        <time>2016-04-27T14:02:39Z</time>
      </trkpt>
      <trkpt lat="44.44079" lon="3.58368">
        <ele>1192</ele>
        <time>2016-04-27T14:02:55Z</time>
      </trkpt>
      <trkpt lat="44.44075" lon="3.58373">
        <ele>1192</ele>
        <time>2016-04-27T14:03:00Z</time>
      </trkpt>
      <trkpt lat="44.44065" lon="3.58387">
        <ele>1195</ele>
        <time>2016-04-27T14:03:15Z</time>
      </trkpt>
      <trkpt lat="44.44061" lon="3.58393">
        <ele>1196</ele>
        <time>2016-04-27T14:03:20Z</time>
      </trkpt>
      <trkpt lat="44.44046" lon="3.58409">
        <ele>1193</ele>
        <time>2016-04-27T14:03:38Z</time>
      </trkpt>
      <trkpt lat="44.44043" lon="3.58416">
        <ele>1192</ele>
        <time>2016-04-27T14:03:43Z</time>
      </trkpt>
      <trkpt lat="44.44037" lon="3.58437">
        <ele>1192</ele>
        <time>2016-04-27T14:03:58Z</time>
      </trkpt>
      <trkpt lat="44.44032" lon="3.58449">
        <ele>1193</ele>
        <time>2016-04-27T14:04:07Z</time>
      </trkpt>
      <trkpt lat="44.44029" lon="3.58462">
        <ele>1192</ele>
        <time>2016-04-27T14:04:16Z</time>
      </trkpt>
      <trkpt lat="44.44027" lon="3.58469">
        <ele>1193</ele>
        <time>2016-04-27T14:04:21Z</time>
      </trkpt>
      <trkpt lat="44.44026" lon="3.58476">
        <ele>1193</ele>
        <time>2016-04-27T14:04:25Z</time>
      </trkpt>
      <trkpt lat="44.44022" lon="3.58481">
        <ele>1193</ele>
        <time>2016-04-27T14:04:30Z</time>
      </trkpt>
      <trkpt lat="44.44026" lon="3.58484">
        <ele>1195</ele>
        <time>2016-04-27T14:04:39Z</time>
      </trkpt>
      <trkpt lat="44.44023" lon="3.58479">
        <ele>1194</ele>
        <time>2016-04-27T14:04:57Z</time>
      </trkpt>
      <trkpt lat="44.44018" lon="3.58482">
        <ele>1194</ele>
        <time>2016-04-27T14:05:03Z</time>
      </trkpt>
      <trkpt lat="44.44003" lon="3.58486">
        <ele>1194</ele>
        <time>2016-04-27T14:05:16Z</time>
      </trkpt>
      <trkpt lat="44.43999" lon="3.58491">
        <ele>1194</ele>
        <time>2016-04-27T14:05:21Z</time>
      </trkpt>
      <trkpt lat="44.43994" lon="3.58493">
        <ele>1194</ele>
        <time>2016-04-27T14:05:26Z</time>
      </trkpt>
      <trkpt lat="44.43989" lon="3.58495">
        <ele>1194</ele>
        <time>2016-04-27T14:05:31Z</time>
      </trkpt>
      <trkpt lat="44.43979" lon="3.58494">
        <ele>1194</ele>
        <time>2016-04-27T14:05:39Z</time>
      </trkpt>
      <trkpt lat="44.43973" lon="3.58493">
        <ele>1194</ele>
        <time>2016-04-27T14:05:44Z</time>
      </trkpt>
      <trkpt lat="44.43969" lon="3.58495">
        <ele>1194</ele>
        <time>2016-04-27T14:05:49Z</time>
      </trkpt>
      <trkpt lat="44.43964" lon="3.58495">
        <ele>1194</ele>
        <time>2016-04-27T14:05:54Z</time>
      </trkpt>
      <trkpt lat="44.43959" lon="3.58496">
        <ele>1194</ele>
        <time>2016-04-27T14:05:59Z</time>
      </trkpt>
      <trkpt lat="44.43944" lon="3.585">
        <ele>1199</ele>
        <time>2016-04-27T14:06:11Z</time>
      </trkpt>
      <trkpt lat="44.43939" lon="3.58503">
        <ele>1199</ele>
        <time>2016-04-27T14:06:15Z</time>
      </trkpt>
      <trkpt lat="44.43924" lon="3.5852">
        <ele>1197</ele>
        <time>2016-04-27T14:06:31Z</time>
      </trkpt>
      <trkpt lat="44.43918" lon="3.58521">
        <ele>1198</ele>
        <time>2016-04-27T14:06:36Z</time>
      </trkpt>
      <trkpt lat="44.43914" lon="3.58523">
        <ele>1198</ele>
        <time>2016-04-27T14:06:41Z</time>
      </trkpt>
      <trkpt lat="44.439" lon="3.58527">
        <ele>1201</ele>
        <time>2016-04-27T14:06:59Z</time>
      </trkpt>
      <trkpt lat="44.4389" lon="3.5853">
        <ele>1201</ele>
        <time>2016-04-27T14:07:10Z</time>
      </trkpt>
      <trkpt lat="44.43886" lon="3.58532">
        <ele>1201</ele>
        <time>2016-04-27T14:07:16Z</time>
      </trkpt>
      <trkpt lat="44.43877" lon="3.58539">
        <ele>1201</ele>
        <time>2016-04-27T14:07:30Z</time>
      </trkpt>
      <trkpt lat="44.43871" lon="3.58549">
        <ele>1200</ele>
        <time>2016-04-27T14:07:42Z</time>
      </trkpt>
      <trkpt lat="44.43862" lon="3.58551">
        <ele>1201</ele>
        <time>2016-04-27T14:07:56Z</time>
      </trkpt>
      <trkpt lat="44.43858" lon="3.58556">
        <ele>1201</ele>
        <time>2016-04-27T14:08:03Z</time>
      </trkpt>
      <trkpt lat="44.43849" lon="3.58563">
        <ele>1202</ele>
        <time>2016-04-27T14:08:15Z</time>
      </trkpt>
      <trkpt lat="44.43836" lon="3.58572">
        <ele>1205</ele>
        <time>2016-04-27T14:08:31Z</time>
      </trkpt>
      <trkpt lat="44.43833" lon="3.58577">
        <ele>1204</ele>
        <time>2016-04-27T14:08:36Z</time>
      </trkpt>
      <trkpt lat="44.4382" lon="3.58589">
        <ele>1206</ele>
        <time>2016-04-27T14:08:54Z</time>
      </trkpt>
      <trkpt lat="44.43818" lon="3.58594">
        <ele>1205</ele>
        <time>2016-04-27T14:08:59Z</time>
      </trkpt>
      <trkpt lat="44.43815" lon="3.586">
        <ele>1204</ele>
        <time>2016-04-27T14:09:04Z</time>
      </trkpt>
      <trkpt lat="44.43811" lon="3.58604">
        <ele>1205</ele>
        <time>2016-04-27T14:09:09Z</time>
      </trkpt>
      <trkpt lat="44.43794" lon="3.58617">
        <ele>1205</ele>
        <time>2016-04-27T14:09:31Z</time>
      </trkpt>
      <trkpt lat="44.43787" lon="3.58627">
        <ele>1205</ele>
        <time>2016-04-27T14:09:41Z</time>
      </trkpt>
      <trkpt lat="44.43782" lon="3.5863">
        <ele>1205</ele>
        <time>2016-04-27T14:09:46Z</time>
      </trkpt>
      <trkpt lat="44.43779" lon="3.58635">
        <ele>1206</ele>
        <time>2016-04-27T14:09:51Z</time>
      </trkpt>
      <trkpt lat="44.43775" lon="3.58639">
        <ele>1206</ele>
        <time>2016-04-27T14:09:56Z</time>
      </trkpt>
      <trkpt lat="44.43771" lon="3.58642">
        <ele>1207</ele>
        <time>2016-04-27T14:10:02Z</time>
      </trkpt>
      <trkpt lat="44.43767" lon="3.58646">
        <ele>1208</ele>
        <time>2016-04-27T14:10:07Z</time>
      </trkpt>
      <trkpt lat="44.43763" lon="3.58649">
        <ele>1209</ele>
        <time>2016-04-27T14:10:12Z</time>
      </trkpt>
      <trkpt lat="44.43756" lon="3.5866">
        <ele>1209</ele>
        <time>2016-04-27T14:10:31Z</time>
      </trkpt>
      <trkpt lat="44.43748" lon="3.58667">
        <ele>1210</ele>
        <time>2016-04-27T14:10:40Z</time>
      </trkpt>
      <trkpt lat="44.43744" lon="3.58671">
        <ele>1210</ele>
        <time>2016-04-27T14:10:45Z</time>
      </trkpt>
      <trkpt lat="44.43739" lon="3.58674">
        <ele>1210</ele>
        <time>2016-04-27T14:10:51Z</time>
      </trkpt>
      <trkpt lat="44.43735" lon="3.58678">
        <ele>1210</ele>
        <time>2016-04-27T14:10:57Z</time>
      </trkpt>
      <trkpt lat="44.4373" lon="3.58681">
        <ele>1209</ele>
        <time>2016-04-27T14:11:02Z</time>
      </trkpt>
      <trkpt lat="44.43712" lon="3.58692">
        <ele>1212</ele>
        <time>2016-04-27T14:11:22Z</time>
      </trkpt>
      <trkpt lat="44.43703" lon="3.58698">
        <ele>1212</ele>
        <time>2016-04-27T14:11:32Z</time>
      </trkpt>
      <trkpt lat="44.43698" lon="3.58701">
        <ele>1212</ele>
        <time>2016-04-27T14:11:37Z</time>
      </trkpt>
      <trkpt lat="44.43693" lon="3.58704">
        <ele>1212</ele>
        <time>2016-04-27T14:11:42Z</time>
      </trkpt>
      <trkpt lat="44.43684" lon="3.58709">
        <ele>1212</ele>
        <time>2016-04-27T14:11:51Z</time>
      </trkpt>
      <trkpt lat="44.43675" lon="3.58716">
        <ele>1213</ele>
        <time>2016-04-27T14:12:00Z</time>
      </trkpt>
      <trkpt lat="44.43671" lon="3.58721">
        <ele>1213</ele>
        <time>2016-04-27T14:12:05Z</time>
      </trkpt>
      <trkpt lat="44.43644" lon="3.58752">
        <ele>1209</ele>
        <time>2016-04-27T14:12:38Z</time>
      </trkpt>
      <trkpt lat="44.4364" lon="3.58756">
        <ele>1209</ele>
        <time>2016-04-27T14:12:42Z</time>
      </trkpt>
      <trkpt lat="44.43629" lon="3.58771">
        <ele>1210</ele>
        <time>2016-04-27T14:12:56Z</time>
      </trkpt>
      <trkpt lat="44.43626" lon="3.58777">
        <ele>1210</ele>
        <time>2016-04-27T14:13:00Z</time>
      </trkpt>
      <trkpt lat="44.43622" lon="3.58782">
        <ele>1210</ele>
        <time>2016-04-27T14:13:05Z</time>
      </trkpt>
      <trkpt lat="44.43615" lon="3.58793">
        <ele>1210</ele>
        <time>2016-04-27T14:13:16Z</time>
      </trkpt>
      <trkpt lat="44.43609" lon="3.58805">
        <ele>1210</ele>
        <time>2016-04-27T14:13:26Z</time>
      </trkpt>
      <trkpt lat="44.43599" lon="3.58811">
        <ele>1210</ele>
        <time>2016-04-27T14:13:35Z</time>
      </trkpt>
      <trkpt lat="44.43576" lon="3.58855">
        <ele>1206</ele>
        <time>2016-04-27T14:14:09Z</time>
      </trkpt>
      <trkpt lat="44.4357" lon="3.58866">
        <ele>1207</ele>
        <time>2016-04-27T14:14:18Z</time>
      </trkpt>
      <trkpt lat="44.43564" lon="3.58877">
        <ele>1206</ele>
        <time>2016-04-27T14:14:27Z</time>
      </trkpt>
      <trkpt lat="44.43562" lon="3.58884">
        <ele>1206</ele>
        <time>2016-04-27T14:14:32Z</time>
      </trkpt>
      <trkpt lat="44.43558" lon="3.5889">
        <ele>1206</ele>
        <time>2016-04-27T14:14:37Z</time>
      </trkpt>
      <trkpt lat="44.43549" lon="3.58915">
        <ele>1208</ele>
        <time>2016-04-27T14:15:01Z</time>
      </trkpt>
      <trkpt lat="44.43547" lon="3.58919">
        <ele>1208</ele>
        <time>2016-04-27T14:15:16Z</time>
      </trkpt>
      <trkpt lat="44.43546" lon="3.58925">
        <ele>1208</ele>
        <time>2016-04-27T14:15:25Z</time>
      </trkpt>
      <trkpt lat="44.43542" lon="3.58941">
        <ele>1205</ele>
        <time>2016-04-27T14:15:48Z</time>
      </trkpt>
      <trkpt lat="44.4354" lon="3.58947">
        <ele>1205</ele>
        <time>2016-04-27T14:15:53Z</time>
      </trkpt>
      <trkpt lat="44.43537" lon="3.58954">
        <ele>1206</ele>
        <time>2016-04-27T14:15:58Z</time>
      </trkpt>
      <trkpt lat="44.43531" lon="3.58974">
        <ele>1207</ele>
        <time>2016-04-27T14:16:12Z</time>
      </trkpt>
      <trkpt lat="44.43528" lon="3.58986">
        <ele>1209</ele>
        <time>2016-04-27T14:16:20Z</time>
      </trkpt>
      <trkpt lat="44.43526" lon="3.58993">
        <ele>1208</ele>
        <time>2016-04-27T14:16:25Z</time>
      </trkpt>
      <trkpt lat="44.43522" lon="3.59007">
        <ele>1206</ele>
        <time>2016-04-27T14:16:35Z</time>
      </trkpt>
      <trkpt lat="44.43521" lon="3.59014">
        <ele>1207</ele>
        <time>2016-04-27T14:16:41Z</time>
      </trkpt>
      <trkpt lat="44.43515" lon="3.59034">
        <ele>1205</ele>
        <time>2016-04-27T14:16:56Z</time>
      </trkpt>
      <trkpt lat="44.43513" lon="3.59042">
        <ele>1205</ele>
        <time>2016-04-27T14:17:01Z</time>
      </trkpt>
      <trkpt lat="44.43511" lon="3.59048">
        <ele>1206</ele>
        <time>2016-04-27T14:17:06Z</time>
      </trkpt>
      <trkpt lat="44.43509" lon="3.59055">
        <ele>1207</ele>
        <time>2016-04-27T14:17:11Z</time>
      </trkpt>
      <trkpt lat="44.43506" lon="3.59068">
        <ele>1207</ele>
        <time>2016-04-27T14:17:20Z</time>
      </trkpt>
      <trkpt lat="44.43502" lon="3.59088">
        <ele>1205</ele>
        <time>2016-04-27T14:17:32Z</time>
      </trkpt>
      <trkpt lat="44.43501" lon="3.59094">
        <ele>1205</ele>
        <time>2016-04-27T14:17:36Z</time>
      </trkpt>
      <trkpt lat="44.43495" lon="3.59113">
        <ele>1207</ele>
        <time>2016-04-27T14:17:51Z</time>
      </trkpt>
      <trkpt lat="44.43493" lon="3.59119">
        <ele>1207</ele>
        <time>2016-04-27T14:17:55Z</time>
      </trkpt>
      <trkpt lat="44.43485" lon="3.59136">
        <ele>1205</ele>
        <time>2016-04-27T14:18:07Z</time>
      </trkpt>
      <trkpt lat="44.43483" lon="3.59142">
        <ele>1205</ele>
        <time>2016-04-27T14:18:11Z</time>
      </trkpt>
      <trkpt lat="44.43481" lon="3.59148">
        <ele>1205</ele>
        <time>2016-04-27T14:18:15Z</time>
      </trkpt>
      <trkpt lat="44.43477" lon="3.59161">
        <ele>1205</ele>
        <time>2016-04-27T14:18:24Z</time>
      </trkpt>
      <trkpt lat="44.43475" lon="3.59166">
        <ele>1205</ele>
        <time>2016-04-27T14:18:29Z</time>
      </trkpt>
      <trkpt lat="44.43473" lon="3.59173">
        <ele>1206</ele>
        <time>2016-04-27T14:18:34Z</time>
      </trkpt>
      <trkpt lat="44.43469" lon="3.59186">
        <ele>1207</ele>
        <time>2016-04-27T14:18:43Z</time>
      </trkpt>
      <trkpt lat="44.43463" lon="3.59198">
        <ele>1207</ele>
        <time>2016-04-27T14:18:53Z</time>
      </trkpt>
      <trkpt lat="44.43452" lon="3.59231">
        <ele>1210</ele>
        <time>2016-04-27T14:19:18Z</time>
      </trkpt>
      <trkpt lat="44.43449" lon="3.59237">
        <ele>1210</ele>
        <time>2016-04-27T14:19:23Z</time>
      </trkpt>
      <trkpt lat="44.43445" lon="3.59242">
        <ele>1210</ele>
        <time>2016-04-27T14:19:28Z</time>
      </trkpt>
      <trkpt lat="44.43437" lon="3.59253">
        <ele>1211</ele>
        <time>2016-04-27T14:19:38Z</time>
      </trkpt>
      <trkpt lat="44.43433" lon="3.59258">
        <ele>1211</ele>
        <time>2016-04-27T14:19:43Z</time>
      </trkpt>
      <trkpt lat="44.43422" lon="3.59273">
        <ele>1209</ele>
        <time>2016-04-27T14:19:57Z</time>
      </trkpt>
      <trkpt lat="44.43419" lon="3.59279">
        <ele>1209</ele>
        <time>2016-04-27T14:20:02Z</time>
      </trkpt>
      <trkpt lat="44.43415" lon="3.59285">
        <ele>1210</ele>
        <time>2016-04-27T14:20:07Z</time>
      </trkpt>
      <trkpt lat="44.4341" lon="3.59296">
        <ele>1209</ele>
        <time>2016-04-27T14:20:15Z</time>
      </trkpt>
      <trkpt lat="44.43404" lon="3.59314">
        <ele>1210</ele>
        <time>2016-04-27T14:20:27Z</time>
      </trkpt>
      <trkpt lat="44.43401" lon="3.59319">
        <ele>1210</ele>
        <time>2016-04-27T14:20:31Z</time>
      </trkpt>
      <trkpt lat="44.43394" lon="3.59331">
        <ele>1210</ele>
        <time>2016-04-27T14:20:41Z</time>
      </trkpt>
      <trkpt lat="44.43389" lon="3.59342">
        <ele>1210</ele>
        <time>2016-04-27T14:20:49Z</time>
      </trkpt>
      <trkpt lat="44.43369" lon="3.59381">
        <ele>1213</ele>
        <time>2016-04-27T14:21:24Z</time>
      </trkpt>
      <trkpt lat="44.43361" lon="3.59398">
        <ele>1210</ele>
        <time>2016-04-27T14:21:37Z</time>
      </trkpt>
      <trkpt lat="44.43358" lon="3.59404">
        <ele>1210</ele>
        <time>2016-04-27T14:21:42Z</time>
      </trkpt>
      <trkpt lat="44.43355" lon="3.5941">
        <ele>1211</ele>
        <time>2016-04-27T14:21:47Z</time>
      </trkpt>
      <trkpt lat="44.43352" lon="3.59424">
        <ele>1209</ele>
        <time>2016-04-27T14:21:56Z</time>
      </trkpt>
      <trkpt lat="44.43348" lon="3.59436">
        <ele>1209</ele>
        <time>2016-04-27T14:22:09Z</time>
      </trkpt>
      <trkpt lat="44.43347" lon="3.59442">
        <ele>1210</ele>
        <time>2016-04-27T14:22:14Z</time>
      </trkpt>
      <trkpt lat="44.43343" lon="3.59461">
        <ele>1214</ele>
        <time>2016-04-27T14:22:28Z</time>
      </trkpt>
      <trkpt lat="44.43341" lon="3.59467">
        <ele>1214</ele>
        <time>2016-04-27T14:22:32Z</time>
      </trkpt>
      <trkpt lat="44.4334" lon="3.59473">
        <ele>1215</ele>
        <time>2016-04-27T14:22:36Z</time>
      </trkpt>
      <trkpt lat="44.43339" lon="3.59507">
        <ele>1215</ele>
        <time>2016-04-27T14:22:57Z</time>
      </trkpt>
      <trkpt lat="44.43338" lon="3.59506">
        <ele>1214</ele>
        <time>2016-04-27T14:23:14Z</time>
      </trkpt>
      <trkpt lat="44.43337" lon="3.59514">
        <ele>1212</ele>
        <time>2016-04-27T14:25:33Z</time>
      </trkpt>
      <trkpt lat="44.43336" lon="3.59513">
        <ele>1207</ele>
        <time>2016-04-27T14:26:27Z</time>
      </trkpt>
      <trkpt lat="44.43335" lon="3.59508">
        <ele>1208</ele>
        <time>2016-04-27T14:26:44Z</time>
      </trkpt>
      <trkpt lat="44.43336" lon="3.59505">
        <ele>1209</ele>
        <time>2016-04-27T14:26:55Z</time>
      </trkpt>
      <trkpt lat="44.43333" lon="3.59498">
        <ele>1210</ele>
        <time>2016-04-27T14:27:20Z</time>
      </trkpt>
      <trkpt lat="44.43325" lon="3.59489">
        <ele>1210</ele>
        <time>2016-04-27T14:27:32Z</time>
      </trkpt>
      <trkpt lat="44.43315" lon="3.59474">
        <ele>1205</ele>
        <time>2016-04-27T14:27:50Z</time>
      </trkpt>
      <trkpt lat="44.43312" lon="3.59461">
        <ele>1207</ele>
        <time>2016-04-27T14:28:00Z</time>
      </trkpt>
      <trkpt lat="44.43316" lon="3.59457">
        <ele>1208</ele>
        <time>2016-04-27T14:28:08Z</time>
      </trkpt>
      <trkpt lat="44.43317" lon="3.59463">
        <ele>1210</ele>
        <time>2016-04-27T14:28:13Z</time>
      </trkpt>
      <trkpt lat="44.43322" lon="3.59467">
        <ele>1210</ele>
        <time>2016-04-27T14:28:19Z</time>
      </trkpt>
      <trkpt lat="44.43321" lon="3.59465">
        <ele>1209</ele>
        <time>2016-04-27T14:29:18Z</time>
      </trkpt>
      <trkpt lat="44.4332" lon="3.59466">
        <ele>1210</ele>
        <time>2016-04-27T14:29:37Z</time>
      </trkpt>
      <trkpt lat="44.4332" lon="3.5947">
        <ele>1212</ele>
        <time>2016-04-27T14:32:36Z</time>
      </trkpt>
      <trkpt lat="44.43321" lon="3.59471">
        <ele>1213</ele>
        <time>2016-04-27T14:42:44Z</time>
      </trkpt>
    </trkseg>
  </trk>
</gpx>